[[{"header":{"parameterUnit":"m.s-1","parameterCategory":1,"la1":30.6,"la2":29.2853,"lo1":-89.7004,"lo2":-87.6739,"dy":0.0162,"dx":0.0183,"nx":112,"ny":82,"refTime":"2026-05-10T12:00:00:Z","depth":0,"parameterNumber":2,"parameterNumberName":"U-component_of_WINDS"},"data":[0.0,0.0,0.0,0.0,0.0,0.0,0.0,0.0,0.0,0.0,0.0,0.0,0.0,0.0,0.0,0.0,0.0,0.0,0.0,0.0,0.0,0.0,0.0,0.0,0.0,0.0,0.0,0.0,0.0,0.0,0.0,0.0,0.0,0.0,0.0,0.0,0.0,0.0,0.0,0.0,0.0,0.0,0.0,0.0,0.0,0.0,0.0,0.0,0.0,0.0,0.0,0.0,0.0,0.0,0.0,0.0,0.0,0.0,0.0,0.0,0.0,0.0,0.0,0.0,0.0,0.0,0.0,0.0,0.0,0.0,0.0,0.0,0.0,0.0,0.0,0.0,0.0,0.0,0.0,0.0,0.0,0.0,0.0,0.0,0.0,0.0,0.0,0.0,0.0,0.0,1.2066,1.1549,1.1142,1.1118,1.1676,1.1507,1.1479,1.1709,0.0,0.0,0.0,0.0,0.0,0.0,0.0,0.0,0.0,0.0,0.0,0.0,0.0,0.0,0.0,0.0,0.0,0.0,0.0,0.0,0.0,0.0,0.0,0.0,0.0,0.0,0.0,0.0,0.0,0.0,0.0,0.0,0.0,0.0,0.0,0.0,0.0,0.0,0.0,0.0,0.0,0.0,0.0,0.0,0.0,0.0,0.0,0.0,0.0,0.0,0.0,0.0,0.0,0.0,0.0,0.0,0.0,0.0,0.0,0.0,0.0,0.0,0.0,0.0,0.0,0.0,0.0,0.0,0.0,0.0,0.0,0.0,0.0,0.0,0.0,0.0,0.0,0.0,0.0,0.0,0.0,0.0,0.0,0.0,0.0,0.0,0.0,0.0,0.0,0.0,0.0,0.0,0.0,0.0,0.0,0.0,0.0,0.0,0.0,0.0,0.0,0.0,0.0,0.0,1.1545,1.1061,1.0935,1.1024,1.1355,1.1584,1.1626,1.1395,0.0,0.0,0.0,0.0,0.0,0.0,0.0,0.0,0.0,0.0,0.0,0.0,0.0,0.0,0.0,0.0,0.0,0.0,0.0,0.0,0.0,0.0,0.0,0.0,0.0,0.0,0.0,0.0,0.0,0.0,0.0,0.0,0.0,0.0,0.0,0.0,0.0,0.0,0.0,0.0,0.0,0.0,0.0,0.0,0.0,0.0,0.0,0.0,0.0,0.0,0.0,0.0,0.0,0.0,0.0,0.0,0.0,0.0,0.0,0.0,0.0,0.0,0.0,0.0,0.0,0.0,0.0,0.0,0.0,0.0,0.0,0.0,0.0,0.0,0.0,0.0,0.0,0.0,0.0,0.0,0.0,0.0,0.0,0.0,0.0,0.0,0.0,0.0,0.0,0.0,0.0,0.0,0.0,0.0,0.0,0.0,0.0,0.0,0.0,0.0,0.0,0.0,0.0,1.1746,1.1414,1.0956,1.0897,1.1077,1.1529,1.1546,1.1534,1.1562,1.1699,0.0,0.0,0.0,0.0,0.0,0.0,0.0,0.0,0.0,0.0,0.0,0.0,0.0,0.0,0.0,0.0,0.0,0.0,0.0,0.0,0.0,0.0,0.0,0.0,0.0,0.0,0.0,0.0,0.0,0.0,0.0,0.0,0.0,0.0,0.0,0.0,0.0,0.0,0.0,0.0,0.0,0.0,0.0,0.0,0.0,0.0,0.0,0.0,0.0,0.0,0.0,0.0,0.0,0.0,0.0,0.0,0.0,0.0,0.0,0.0,0.0,0.0,0.0,0.0,0.0,0.0,0.0,0.0,0.0,0.0,0.0,0.0,0.0,0.0,0.0,0.0,0.0,0.0,0.0,0.0,0.0,0.0,0.0,0.0,0.0,0.0,0.0,0.0,0.0,0.0,0.0,0.0,0.0,0.0,0.0,0.0,0.0,0.0,0.0,0.0,0.0,0.0,1.1293,1.1134,1.0917,1.0897,1.1106,1.1637,1.1518,1.149,1.167,1.1518,0.0,0.0,0.0,0.0,0.0,0.0,0.0,0.0,0.0,0.0,0.0,0.0,0.0,0.0,0.0,0.0,0.0,0.0,0.0,0.0,0.0,0.0,0.0,0.0,0.0,0.0,0.0,0.0,0.0,0.0,0.0,0.0,0.0,0.0,0.0,0.0,0.0,0.0,0.0,0.0,0.0,0.0,0.0,0.0,0.0,0.0,0.0,0.0,0.0,0.0,0.0,0.0,0.0,0.0,0.0,0.0,0.0,0.0,0.0,0.0,0.0,0.0,0.0,0.0,0.0,0.0,0.0,0.0,0.0,0.0,0.0,0.0,0.0,0.0,0.0,0.0,0.0,0.0,0.0,0.0,0.0,0.0,0.0,0.0,0.0,0.0,0.0,0.0,0.0,0.0,0.0,0.0,0.0,0.0,0.0,0.0,0.0,0.0,0.0,0.0,0.0,0.0,1.042,1.0314,1.0838,1.0897,1.1018,1.1316,1.1595,1.1643,1.1341,1.1615,0.0,0.0,0.0,0.0,0.0,0.0,0.0,0.0,0.0,0.0,0.0,0.0,0.0,0.0,0.0,0.0,0.0,0.0,0.0,0.0,0.0,0.0,0.0,0.0,0.0,0.0,0.0,0.0,0.0,0.0,0.0,0.0,0.0,0.0,0.0,0.0,0.0,0.0,0.0,0.0,0.0,0.0,0.0,0.0,0.0,0.0,0.0,0.0,0.0,0.0,0.0,0.0,0.0,0.0,0.0,0.0,0.0,0.0,0.0,0.0,0.0,0.0,0.0,0.0,0.0,0.0,0.0,0.0,0.0,0.0,0.0,0.0,0.0,0.0,0.0,0.0,0.0,0.0,0.0,0.0,0.0,0.0,0.0,0.0,0.0,0.0,0.0,0.0,0.0,0.0,0.0,0.0,0.0,0.0,0.0,0.0,0.0,0.0,0.0,0.0,0.0,0.0,1.0622,1.0524,0.0,1.0587,1.0786,1.1256,1.1267,1.1347,1.1604,0.0,0.0,0.0,0.0,0.0,0.0,0.0,0.0,0.0,0.0,0.0,0.0,0.0,0.0,0.0,0.0,0.0,0.0,0.0,0.0,0.0,0.0,0.0,0.0,0.0,0.0,0.0,0.0,0.0,0.0,0.0,0.0,0.0,0.0,0.0,0.0,0.0,0.0,0.0,0.0,0.0,0.0,0.0,0.0,0.0,0.0,0.0,0.0,0.0,0.0,0.0,0.0,0.0,0.0,0.0,0.0,0.0,0.0,0.0,0.0,0.0,0.0,0.0,0.0,0.0,0.0,0.0,0.0,0.0,0.0,0.0,0.0,0.0,0.0,0.0,0.0,0.0,0.0,0.0,0.0,0.0,0.0,0.0,0.0,0.0,0.0,0.0,0.0,0.0,0.0,0.0,0.0,0.0,0.0,0.0,0.0,0.0,0.0,0.0,0.0,0.0,0.0,1.0496,1.0504,1.0479,0.0,1.0315,1.061,1.1132,1.1015,1.1152,1.1728,0.0,0.0,0.0,0.0,0.0,0.0,0.0,0.0,0.0,0.0,0.0,0.0,0.0,0.0,0.0,0.0,0.0,0.0,0.0,0.0,0.0,0.0,0.0,0.0,0.0,0.0,0.0,0.0,0.0,0.0,0.0,0.0,0.0,0.0,0.0,0.0,0.0,0.0,0.0,0.0,0.0,0.0,0.0,0.0,0.0,0.0,0.0,0.0,0.0,0.0,0.0,0.0,0.0,0.0,0.0,0.0,0.0,0.0,0.0,0.0,0.0,0.0,0.0,0.0,0.0,0.0,0.0,0.0,0.0,0.0,0.0,0.0,0.0,0.0,0.0,0.0,0.0,0.0,0.0,0.0,0.0,0.0,0.0,0.0,0.0,0.0,0.0,0.0,0.0,0.0,0.0,0.0,0.0,0.0,0.0,0.0,0.0,0.0,0.0,0.0,0.0,0.0,0.9663,0.9899,1.0019,0.9814,1.0146,1.0526,1.0867,1.0885,1.1118,0.0,0.0,0.0,0.0,0.0,0.0,0.0,0.0,0.0,0.0,0.0,0.0,0.0,0.0,0.0,0.0,0.0,0.0,0.0,0.0,0.0,0.0,0.0,0.0,0.0,0.0,0.0,0.0,0.0,0.0,0.0,0.0,0.0,0.0,0.0,0.0,0.0,0.0,0.0,0.0,0.0,0.0,0.0,0.0,0.0,0.0,0.0,0.0,0.0,0.0,0.0,0.0,0.0,0.0,0.0,0.0,0.0,0.0,0.0,0.0,0.0,0.0,0.0,0.0,0.0,0.0,0.0,0.0,0.0,0.0,0.0,0.0,0.0,0.0,0.0,0.0,0.0,0.0,0.0,0.0,0.0,0.0,0.0,0.0,0.0,0.0,0.0,0.0,0.0,0.0,0.0,0.0,0.0,0.0,0.0,0.0,0.0,0.0,0.0,0.0,0.0,0.0,0.0,0.9663,0.9899,0.9946,0.9565,0.9835,1.0179,1.052,1.0336,1.0543,1.1371,0.0,0.0,0.0,0.0,0.0,0.0,0.0,0.0,0.0,0.0,0.0,0.0,0.0,0.0,0.0,0.0,0.0,0.0,0.0,0.0,0.0,0.0,0.0,0.0,0.0,0.0,0.0,0.0,0.0,0.0,0.0,0.0,0.0,0.0,0.0,0.0,0.0,0.0,0.0,0.0,0.0,0.0,0.0,0.0,0.0,0.0,0.0,0.0,0.0,0.0,0.0,0.0,0.0,0.0,0.0,0.0,0.0,0.0,0.0,0.0,0.0,0.0,0.0,0.0,0.0,0.0,0.0,0.0,0.0,0.0,0.0,0.0,0.0,0.0,0.0,0.0,0.0,0.0,0.0,0.0,0.0,0.0,0.0,0.0,0.0,0.0,0.0,0.0,0.0,0.0,0.0,0.0,0.0,0.0,0.0,0.0,0.0,0.0,0.0,0.0,0.0,0.0,0.966,0.9776,0.9778,0.9479,0.9601,0.9841,1.0166,1.0021,1.0235,1.1044,0.0,0.0,0.0,0.0,0.0,0.0,0.0,0.0,0.0,0.0,0.0,0.0,0.0,0.0,0.0,0.0,0.0,0.0,0.0,0.0,0.0,0.0,0.0,0.0,0.0,0.0,0.0,0.0,0.0,0.0,0.0,0.0,0.0,0.0,0.0,0.0,0.0,0.0,0.0,0.0,0.0,0.0,0.0,0.0,0.0,0.0,0.0,0.0,0.0,0.0,0.0,0.0,0.0,0.0,0.0,0.0,0.0,0.0,0.0,0.0,0.0,0.0,0.0,0.0,0.0,0.0,0.0,0.0,0.0,0.0,0.0,0.0,0.0,0.0,0.0,0.0,0.0,0.0,0.0,0.0,0.0,0.0,0.0,0.0,0.0,0.0,0.0,0.0,0.0,0.0,0.0,0.0,0.0,0.0,0.0,0.0,0.0,0.0,0.0,0.0,0.0,0.0,0.9602,0.9575,0.9563,0.944,0.9413,0.9528,0.9867,0.9905,1.0102,1.0617,0.0,0.0,0.0,0.0,0.0,0.0,0.0,0.0,0.0,0.0,0.0,0.0,0.0,0.0,0.0,0.0,0.0,0.0,0.0,0.0,0.0,0.0,0.0,0.0,0.0,0.0,0.0,0.0,0.0,0.0,0.0,0.0,0.0,0.0,0.0,0.0,0.0,0.0,0.0,0.0,0.0,0.0,0.0,0.0,0.0,0.0,0.0,0.0,0.0,0.0,0.0,0.0,0.0,0.0,0.0,0.0,0.0,0.0,0.0,0.0,-0.26,0.0,0.0,0.0,0.0,0.0,0.0,0.0,0.0,0.0,0.0,0.0,0.0,0.0,0.0,0.0,0.0,0.0,0.0,0.0,0.0,0.0,0.0,0.0,0.0,0.0,0.0,0.0,0.0,0.0,0.0,0.0,0.0,0.0,0.0,0.0,0.0,0.0,0.0,0.0,0.0,0.0,0.9177,0.9399,0.9436,0.8992,0.922,0.9528,0.9867,0.9905,0.9792,0.9558,0.9954,0.0,0.0,0.0,0.0,0.0,0.0,0.0,0.0,0.0,0.0,0.0,0.0,0.0,0.0,0.0,0.0,0.0,0.0,0.0,0.0,0.0,0.0,0.0,0.0,0.0,0.0,0.0,0.0,0.0,0.0,0.0,0.0,0.0,0.0,0.0,0.0,0.0,0.0,0.0,0.0,0.0,0.0,0.0,0.0,0.0,0.0,0.0,0.0,0.0,0.0,0.0,0.0,0.0,0.0,0.0,0.0,0.0,0.0,0.0,0.0,-0.2887,0.0,0.0,0.0,0.0,0.0,0.0,0.0,0.0,0.0,0.0,0.0,0.0,0.0,0.0,0.0,0.0,0.0,0.0,0.0,0.0,0.0,0.0,0.0,0.0,0.0,0.0,0.0,0.0,0.0,0.0,0.0,0.0,0.0,0.0,0.0,0.0,0.0,0.0,0.0,0.0,0.8956,0.9147,0.9198,0.8882,0.8857,0.8923,0.9064,0.9084,0.8881,0.8413,0.8682,0.0,0.0,0.0,0.0,0.0,0.0,0.0,0.0,0.0,0.0,0.0,0.0,0.0,0.0,0.0,0.0,0.0,0.0,0.0,0.0,0.0,0.0,0.0,0.0,0.0,0.0,0.0,0.0,0.0,0.0,0.0,0.0,0.0,0.0,0.0,0.0,0.0,0.0,0.0,0.0,0.0,0.0,0.0,0.0,0.0,0.0,0.0,0.0,0.0,0.0,0.0,0.0,0.0,-0.4049,-0.4314,-0.4424,-0.4913,-0.5195,-0.526,-0.4659,-0.4175,-0.3774,-0.3342,0.0,0.0,0.0,0.0,0.0,0.0,0.0,0.0,0.0,0.0,0.0,0.0,0.0,0.0,0.0,0.0,0.0,0.0,0.0,0.0,0.0,0.0,0.0,0.0,0.2073,0.2632,0.0,0.0,0.0,0.0,0.0,0.0,0.0,0.0,0.0,0.0,0.0,0.0,0.8634,0.8706,0.8762,0.8697,0.8387,0.8171,0.8133,0.8059,0.7741,0.7124,0.7175,0.6919,0.0,0.0,0.0,0.0,0.0,0.0,0.0,0.0,0.0,0.0,0.0,0.0,0.0,0.0,0.0,0.0,0.0,0.0,0.0,0.0,0.0,0.0,0.0,0.0,0.0,0.0,0.0,0.0,0.0,0.0,0.0,0.0,-0.2001,-0.273,0.0,0.0,0.0,0.0,0.0,0.0,0.0,0.0,0.0,0.0,0.0,0.0,0.0,-0.3756,-0.3604,-0.3621,-0.3621,-0.3604,-0.3678,-0.3943,-0.4402,-0.4485,-0.4805,-0.526,-0.4659,0.0,-0.506,-0.4984,0.0,0.0,0.0,0.0,0.0,0.0,0.0,0.0,0.0,0.0,0.0,0.0,0.0,0.0,0.0,0.0,0.0,0.0,0.0,0.0,0.0,0.0,0.0344,0.0747,0.1311,0.1901,0.0,0.311,0.3587,0.3682,0.4082,0.0,0.0,0.0,0.0,0.0,0.0,0.0,0.7746,0.7875,0.7933,0.7864,0.776,0.7731,0.7849,0.7481,0.6716,0.5491,0.5639,0.5268,0.4137,0.3595,0.0,0.0,0.0,0.0,0.0,0.0,0.0,0.0,0.0,0.0,0.0,0.0,0.0,0.0,0.0,0.0,0.0,0.0,0.0,0.0,0.0,0.0,0.0,0.0,0.0,0.0,0.0,0.0,0.0,-0.2156,-0.2735,-0.3065,-0.3342,-0.3626,0.0,0.0,0.0,0.0,0.0,0.0,0.0,0.0,0.0,-0.3909,-0.3909,-0.389,-0.3829,-0.3829,-0.3785,-0.372,-0.4051,-0.4276,-0.4413,-0.475,-0.5054,-0.5291,-0.5106,-0.5165,-0.5361,-0.4719,-0.4663,-0.4967,0.0,0.0,0.0,0.0,-0.4149,-0.3624,-0.335,-0.3265,-0.321,-0.291,0.0,0.0,0.0,0.0,0.0,0.0,0.0,0.0,0.0,0.0,0.0056,0.0263,0.0763,0.1371,0.1976,0.2633,0.3192,0.0,0.3796,0.4125,0.4696,0.0,0.0,0.0,0.0,0.7342,0.7169,0.7298,0.7309,0.705,0.721,0.7081,0.6502,0.6472,0.589,0.4516,0.4224,0.3638,0.262,0.2088,0.1384,0.0,0.0,0.0,0.0,0.0,0.0,0.0,0.0,0.0,0.0,0.0,0.0,0.0,0.0,0.0,0.0,0.0,0.0,0.0,0.0,0.0,0.0,0.0,0.0,0.0,0.0,0.0,0.0,-0.3031,-0.3403,-0.3459,-0.3805,-0.4051,0.0,0.0,0.0,0.0,0.0,0.0,-0.4134,-0.4134,-0.4105,-0.4055,-0.4051,-0.4035,-0.3994,-0.3994,-0.3949,-0.3861,-0.4309,-0.4439,-0.4307,-0.4758,-0.496,-0.4969,-0.5079,-0.5139,-0.5124,-0.455,-0.4577,-0.4978,-0.4978,-0.4886,-0.4794,-0.5045,-0.4881,-0.4506,-0.4312,-0.4272,-0.4232,-0.3835,-0.3705,-0.3641,-0.3292,0.0,0.0,0.0,0.0,-0.0239,-0.0045,0.0,0.0,0.0,0.0459,0.1017,0.1474,0.2162,0.2876,0.0,0.3604,0.3818,0.4511,0.0,0.0,0.0,0.0,0.6987,0.668,0.6734,0.6682,0.6383,0.6614,0.6418,0.5477,0.5488,0.4975,0.3653,0.2934,0.2158,0.1249,0.0714,-0.0078,-0.1192,0.0,0.0,0.0,0.0,0.0,0.0,0.0,0.0,0.0,0.0,0.0,0.0,0.0,0.0,0.0,0.0,0.0,0.0,0.0,0.0,0.0,0.0,0.0,0.0,0.0,0.0,0.0,0.0,0.0,-0.4409,-0.4291,0.0,0.0,0.0,0.0,-0.4197,-0.4362,-0.4481,-0.4481,-0.4481,-0.4389,-0.42,-0.4197,-0.413,-0.3998,-0.3994,-0.3991,-0.3996,-0.4021,-0.4027,-0.402,-0.4057,-0.4069,-0.4069,-0.408,-0.4153,-0.4343,-0.53,-0.5719,-0.5744,-0.5744,-0.5734,-0.5652,-0.4979,-0.4795,-0.478,-0.4078,-0.3913,-0.402,-0.3986,-0.3983,-0.3974,-0.3956,-0.3509,0.0,0.0,-0.1519,-0.0883,-0.0182,0.0,0.0,0.0,0.0459,0.0907,0.094,0.1873,0.2876,0.0,0.3604,0.395,0.507,0.0,0.568,0.6793,0.6559,0.6256,0.6233,0.6074,0.5951,0.5929,0.5951,0.5806,0.5437,0.4719,0.3824,0.2734,0.1862,0.0938,-0.0062,-0.0558,-0.1374,-0.2578,-0.2645,0.0,0.0,0.0,0.0,0.0,0.0,0.0,0.0,0.0,0.0,0.0,0.0,0.0,0.0,0.0,0.0,0.0,0.0,0.0,0.0,0.0,0.0,0.0,0.0,0.0,0.0,0.0,0.0,-0.4443,-0.4433,0.0,-0.4399,-0.4399,-0.4399,-0.4399,-0.446,-0.4505,-0.4505,-0.4505,-0.4467,-0.4402,-0.4399,-0.4372,-0.4317,-0.4317,-0.426,-0.413,-0.413,-0.4089,-0.3994,-0.3994,-0.3994,-0.4001,-0.4086,-0.416,-0.4236,-0.4756,-0.5111,-0.5348,-0.5348,-0.5299,-0.5233,-0.5363,-0.5192,-0.4861,-0.4601,-0.4535,-0.4515,-0.4131,-0.4062,-0.413,-0.413,-0.3381,-0.2463,-0.2201,-0.1284,-0.0333,-0.007,0.0,0.0,0.0,0.0168,0.0426,0.0817,0.1541,0.228,0.2794,0.3206,0.3634,0.4125,0.4746,0.5334,0.5829,0.6078,0.6205,0.6205,0.5798,0.5515,0.5515,0.5747,0.5554,0.4698,0.4602,0.3908,0.2317,0.1478,0.0572,-0.0479,-0.1223,-0.1951,-0.2691,-0.342,-0.4062,0.0,0.0,0.0,0.0,0.0,0.0,0.0,0.0,0.0,0.0,0.0,0.0,0.0,0.0,0.0,0.0,0.0,0.0,0.0,0.0,0.0,0.0,0.0,0.0,0.0,-0.2916,-0.3178,-0.3663,-0.3946,-0.4111,-0.4125,-0.4349,-0.4505,-0.4505,-0.4505,-0.4505,-0.4505,-0.4505,-0.4505,-0.4505,-0.4505,-0.4505,-0.4505,-0.4505,-0.4426,-0.4307,-0.4307,-0.4253,-0.4168,-0.4168,-0.4168,-0.4175,-0.4264,-0.4307,-0.4314,-0.445,-0.4657,-0.4905,-0.4905,-0.484,-0.48,-0.514,-0.5056,-0.4769,-0.4769,-0.4769,-0.4696,-0.4297,-0.4052,-0.39,-0.3927,-0.3114,-0.215,-0.1899,-0.1119,-0.0315,-0.006,0.0,0.0,0.0,0.0,0.0168,0.0772,0.1373,0.1939,0.2408,0.2964,0.3455,0.3752,0.4521,0.5219,0.5556,0.594,0.6205,0.6205,0.567,0.5301,0.5301,0.5538,0.5331,0.4408,0.4454,0.3809,0.2111,0.1074,0.0068,-0.0964,-0.1883,-0.2592,-0.3064,-0.4144,-0.4746,-0.4839,0.0,0.0,0.0,0.0,0.0,0.0,0.0,0.0,0.0,0.0,0.0,0.0,0.0,0.0,0.0,0.0,0.0,0.0,0.0,0.0,0.0,0.0,0.0,-0.196,-0.2164,-0.2178,-0.2202,-0.2829,-0.3287,-0.3359,-0.4015,-0.4436,-0.4436,-0.4436,-0.4436,-0.4467,-0.4442,-0.4453,-0.4512,-0.4484,-0.448,-0.4505,-0.4474,-0.4474,-0.4505,-0.4446,-0.4436,-0.446,-0.4436,-0.4436,-0.4436,-0.4436,-0.4436,-0.4436,-0.4436,-0.4436,-0.4436,-0.4477,-0.4505,-0.4474,-0.4277,-0.4328,-0.4505,-0.4474,-0.446,-0.446,-0.4436,-0.3901,-0.3273,-0.3345,-0.2801,-0.2023,-0.13,-0.109,-0.0902,-0.0181,0.0,0.0,0.0022,0.0034,0.0191,0.0795,0.1407,0.1961,0.2408,0.2933,0.3482,0.4066,0.469,0.5342,0.6063,0.6183,0.0,0.6205,0.567,0.5301,0.5301,0.5301,0.5103,0.462,0.4223,0.3421,0.2063,0.0628,-0.0595,-0.1535,-0.2539,-0.3307,-0.38,-0.4775,-0.5282,-0.5289,0.0,0.0,0.0,0.0,0.0,0.0,0.0,0.0,0.0,0.0,0.0,0.0,0.0,0.0,0.0,0.0,0.0,0.0,0.0,0.0,0.0,0.0,-0.0335,-0.1267,-0.1405,-0.1606,-0.2139,-0.2383,-0.2508,-0.2522,-0.2718,-0.2829,-0.2829,-0.2829,-0.3128,-0.3812,-0.3208,-0.3395,-0.4615,-0.4032,-0.3957,-0.4491,-0.3915,-0.3929,-0.4491,-0.3372,-0.3107,-0.3608,-0.3079,-0.2829,-0.2829,-0.2829,-0.2829,-0.2829,-0.2829,-0.2829,-0.294,-0.4056,-0.4505,-0.4498,-0.4433,-0.4457,-0.4422,-0.389,-0.3707,-0.3611,-0.3023,-0.269,-0.2508,-0.2522,-0.2009,-0.1366,-0.116,-0.0713,-0.026,-0.005,0.0,0.0105,0.0553,0.065,0.0817,0.1418,0.2029,0.2466,0.2492,0.2933,0.3347,0.3523,0.4415,0.5199,0.5497,0.592,0.0,0.6205,0.567,0.5301,0.5301,0.5301,0.4992,0.4229,0.4067,0.3282,0.1601,0.084,0.0027,-0.091,-0.1913,-0.2962,-0.4072,-0.4457,-0.4767,0.0,0.0,0.0,0.0,0.0,0.0,0.0,0.0,0.0,0.0,0.0,0.0,0.0,0.0,0.0,0.0,0.0,0.0,0.0,0.0,0.0,0.0,0.0,-0.0143,-0.0584,-0.0643,-0.0803,-0.1229,-0.1548,-0.174,-0.1736,-0.2022,-0.2207,-0.2207,-0.2206,-0.2432,-0.2988,-0.2493,-0.2645,-0.3614,-0.3168,-0.3109,-0.3531,-0.3078,-0.3078,-0.3528,-0.263,-0.2427,-0.2832,-0.2393,-0.2207,-0.2205,-0.2203,-0.2207,-0.2207,-0.2207,-0.2207,0.0,0.0,0.0,0.0,0.0,-0.3539,-0.3469,-0.3051,-0.2899,-0.2815,-0.2357,-0.1995,-0.1744,-0.1744,-0.1229,-0.0643,-0.0643,-0.0328,0.0066,0.0376,0.0464,0.0617,0.1217,0.1364,0.1506,0.2059,0.245,0.2729,0.282,0.3156,0.0,0.3648,0.4462,0.523,0.5615,0.6068,0.633,0.6219,0.5769,0.5353,0.5038,0.5009,0.4652,0.378,0.3707,0.0,0.0,0.0,0.0057,-0.1115,-0.1968,0.0,0.0,0.0,0.0,0.0,0.0,0.0,0.0,-0.6295,-0.6499,0.0,0.0,0.0,0.0,0.0,0.0,0.0,0.0,0.0,0.0,0.0,0.0,0.0,0.0,0.0,0.0,0.0,0.0,0.0,0.0,0.0,0.0,-0.0576,-0.0973,-0.0971,-0.1563,-0.1944,-0.1944,-0.1951,-0.1991,-0.2092,0.0,0.0,0.0,0.0,-0.2111,-0.2196,-0.2119,-0.2119,-0.2196,-0.2027,-0.1997,-0.2072,-0.1985,-0.1944,-0.1956,-0.1958,-0.1951,-0.1944,-0.1944,-0.1944,-0.1968,-0.2131,-0.2202,-0.2203,-0.2198,-0.2199,-0.2185,-0.2101,0.0,0.0,-0.1981,-0.1503,-0.0969,-0.098,-0.0518,0.0014,0.0098,0.0123,0.0294,0.1036,0.1219,0.1381,0.1978,0.2126,0.2256,0.2718,0.2826,0.2926,0.3265,0.3526,0.3829,0.4248,0.4764,0.5364,0.609,0.6427,0.6506,0.6239,0.5907,0.5438,0.4746,0.0,0.0,0.345,0.3335,0.2728,0.1388,0.071,-0.0263,-0.1646,-0.2277,-0.263,-0.2696,-0.3781,-0.4332,-0.4332,-0.502,-0.5346,-0.5339,-0.5646,-0.5718,0.0,0.0,0.0,0.0,0.0,0.0,0.0,0.0,0.0,0.0,0.0,0.0,0.0,0.0,0.0,0.0,0.0,0.0,0.0,0.0,0.0,0.0,-0.0122,-0.0213,-0.0214,-0.0336,-0.0428,-0.0428,-0.043,-0.073,-0.1438,-0.0812,-0.1038,-0.2407,-0.1706,-0.1592,-0.2197,-0.1614,-0.1614,-0.2181,0.0,0.0,-0.1292,-0.0704,-0.0428,-0.0428,-0.0425,-0.0425,-0.0428,-0.0428,-0.0428,-0.0548,-0.1736,-0.2206,-0.2198,-0.2196,-0.2203,-0.2111,-0.1525,-0.1315,-0.1219,-0.0617,-0.0335,-0.0218,-0.0212,-0.0112,0.0,0.0713,0.089,0.1059,0.1802,0.1989,0.2143,0.2746,0.2884,0.3013,0.3486,0.3582,0.3578,0.3554,0.392,0.4426,0.4995,0.5189,0.5471,0.6109,0.6427,0.6506,0.6239,0.5907,0.5556,0.5207,0.4826,0.4401,0.3907,0.3515,0.2728,0.1388,0.0528,-0.0271,-0.1037,-0.1655,-0.2208,-0.2694,-0.3498,-0.3918,-0.3918,-0.4271,-0.4397,-0.4315,-0.5325,-0.59,0.0,0.0,0.0,0.0,0.0,0.0,0.0,0.0,0.0,0.0,0.0,0.0,0.0,0.0,0.0,0.0,0.0,0.0,0.0,0.0,0.0,0.0,0.0,0.0,0.0,0.0,0.0,0.0,0.0,-0.0194,-0.0629,-0.0229,-0.0379,-0.1218,-0.079,-0.0719,-0.1095,-0.0741,-0.0741,-0.1094,-0.0355,-0.0194,-0.0532,-0.0175,0.0,0.0,0.0,0.0,0.0,0.0,0.0,-0.0079,-0.0806,-0.1097,-0.1099,-0.1102,-0.1093,-0.1046,-0.0678,-0.0555,-0.0492,-0.0121,0.0,0.0075,0.0517,0.0611,0.0732,0.1561,0.1726,0.182,0.2565,0.2744,0.2909,0.3503,0.3657,0.3694,0.3864,0.4189,0.4392,0.4191,0.4634,0.5197,0.5674,0.5755,0.5948,0.652,0.6714,0.67,0.6435,0.5929,0.5407,0.4907,0.4312,0.3784,0.3385,0.292,0.2264,0.1358,0.0704,0.011,-0.043,-0.1027,-0.163,-0.2239,-0.2611,-0.2948,-0.3245,-0.3148,-0.3065,-0.301,-0.3689,-0.4424,0.0,0.0,0.0,0.0,0.0,0.0,0.0,-0.0632,0.0,0.0,0.0,0.0,0.0,0.0,0.0,0.0,0.0,0.0,0.0,0.0152,0.025,0.0245,0.0096,0.0,0.0,0.0146,0.026,0.026,0.0415,0.0516,0.0521,0.0532,0.0521,0.0521,0.0521,0.0521,0.0521,0.0521,0.0521,0.0521,0.0521,0.0521,0.0521,0.0526,0.052,0.0519,0.0523,0.0525,0.052,0.052,0.052,0.052,0.052,0.0529,0.0486,0.0126,0.011,0.0251,0.0251,0.0377,0.0517,0.0529,0.0528,0.0652,0.1357,0.1497,0.1597,0.2468,0.2603,0.2643,0.335,0.3539,0.3655,0.414,0.4264,0.4223,0.4072,0.462,0.5066,0.4823,0.5378,0.5966,0.6236,0.6321,0.6498,0.6937,0.7,0.6904,0.6637,0.6031,0.5358,0.4616,0.388,0.3245,0.2782,0.2307,0.1891,0.1551,0.1032,0.0565,0.0189,-0.0515,-0.1133,-0.1616,-0.1765,-0.2083,-0.2559,-0.2208,-0.2038,-0.2039,-0.2149,-0.2775,-0.1724,-0.1385,-0.1755,-0.2618,-0.2054,-0.1302,0.0,-0.0623,0.0,0.0,0.0,0.0,0.0,0.0,0.0,0.0,0.0,0.0,0.0,0.0666,0.1155,0.1152,0.0467,0.0,0.0,0.0702,0.1152,0.1152,0.1922,0.2391,0.24,0.2391,0.2394,0.2394,0.2394,0.2394,0.2394,0.2394,0.2394,0.2394,0.2394,0.2394,0.2394,0.2403,0.24,0.2398,0.2392,0.2392,0.24,0.24,0.24,0.24,0.24,0.2395,0.2207,0.06,0.0483,0.1162,0.1162,0.1692,0.2395,0.2397,0.2394,0.2413,0.2509,0.2529,0.266,0.3294,0.3462,0.359,0.4202,0.4363,0.4388,0.4457,0.4467,0.4412,0.4214,0.4762,0.5229,0.5087,0.5832,0.6503,0.6548,0.6751,0.6926,0.6989,0.7,0.6904,0.6637,0.6314,0.5839,0.5097,0.4368,0.3637,0.2931,0.2445,0.2233,0.2358,0.1429,0.0855,0.0796,-0.0295,-0.0933,-0.1004,-0.1643,-0.2007,-0.2073,-0.214,-0.2178,-0.2178,-0.2199,-0.2282,-0.1431,-0.0892,-0.0759,-0.1654,-0.1207,-0.0547,-0.0543,-0.0265,0.0,0.0,0.0,0.0,0.0,0.0,0.0202,0.0838,0.083,0.0979,0.1595,0.1927,0.211,0.211,0.187,0.1657,0.1578,0.1892,0.211,0.211,0.2477,0.2694,0.2694,0.2694,0.2694,0.2694,0.2694,0.2694,0.2694,0.2694,0.2694,0.2694,0.2694,0.2694,0.2694,0.2694,0.2694,0.2694,0.2694,0.2694,0.2694,0.2694,0.2694,0.2694,0.2694,0.2694,0.2611,0.1843,0.181,0.211,0.211,0.2376,0.2706,0.2706,0.2696,0.2788,0.3307,0.34,0.3502,0.4264,0.4354,0.4426,0.5274,0.5289,0.5246,0.5867,0.5866,0.5697,0.5618,0.6169,0.6631,0.6427,0.7064,0.759,0.7389,0.7324,0.7341,0.7499,0.7226,0.696,0.6843,0.6362,0.5594,0.4462,0.3998,0.353,0.2948,0.2797,0.2665,0.2508,0.1748,0.1185,0.0912,0.0079,-0.0539,-0.0892,-0.0858,-0.1008,-0.1356,-0.1059,-0.0923,-0.0923,-0.0923,-0.0918,-0.0935,-0.0478,-0.0156,-0.0786,-0.0473,0.0,0.0,0.0,0.0086,0.0388,0.044,0.0528,0.0804,0.0849,0.111,0.1896,0.1851,0.2021,0.2794,0.3015,0.3115,0.3115,0.3468,0.3657,0.3566,0.3281,0.3103,0.3063,0.3297,0.3447,0.3447,0.3447,0.346,0.3503,0.3503,0.3516,0.3557,0.3557,0.3557,0.3557,0.3557,0.3529,0.3503,0.3458,0.3447,0.3447,0.3447,0.3462,0.3503,0.3503,0.3518,0.3557,0.3557,0.3557,0.3557,0.3557,0.3339,0.3061,0.3061,0.3228,0.3447,0.3447,0.3447,0.3563,0.4201,0.432,0.4354,0.4931,0.4963,0.5032,0.5963,0.5945,0.5926,0.6875,0.6919,0.6718,0.6617,0.7182,0.7644,0.7444,0.7949,0.8316,0.8077,0.7796,0.768,0.7872,0.747,0.713,0.713,0.6408,0.5483,0.4384,0.4079,0.3766,0.3296,0.3346,0.3228,0.2833,0.2232,0.1748,0.1406,0.0849,0.0251,-0.0387,0.0064,-0.0013,-0.0648,-0.0208,0.0,0.0,0.024,0.036,-0.0034,-0.0017,0.0,-0.0035,-0.0018,0.0,0.0,0.0,0.03,0.1337,0.1547,0.1846,0.2817,0.2998,0.3021,0.3047,0.2942,0.2868,0.2901,0.3633,0.4146,0.4146,0.508,0.5703,0.5714,0.4774,0.4101,0.3973,0.4805,0.5312,0.5312,0.5312,0.5376,0.5507,0.5513,0.5577,0.5714,0.5714,0.5714,0.5714,0.5714,0.5644,0.5507,0.5376,0.5312,0.5312,0.5312,0.5393,0.5513,0.5513,0.5594,0.5714,0.5714,0.5714,0.5714,0.5714,0.4972,0.3965,0.3965,0.4553,0.5312,0.5312,0.5312,0.5329,0.5342,0.5355,0.5325,0.514,0.5093,0.5253,0.6014,0.6181,0.6338,0.695,0.7099,0.6989,0.6674,0.7182,0.7691,0.7685,0.8075,0.8395,0.8389,0.811,0.7899,0.7894,0.7655,0.7482,0.7482,0.6554,0.5787,0.5481,0.5092,0.4674,0.42,0.4166,0.4,0.3587,0.3003,0.2658,0.2647,0.2193,0.1596,0.0855,0.0991,0.0702,-0.0028,-0.0014,0.0,0.0014,0.0868,0.1262,0.0,0.0,0.0136,0.0713,0.0863,0.1023,0.165,0.1796,0.1918,0.2375,0.2458,0.259,0.3028,0.3095,0.3326,0.4046,0.4048,0.42,0.4855,0.5129,0.5261,0.5261,0.5658,0.5897,0.5813,0.0,0.0,0.5192,0.5493,0.5671,0.5671,0.5671,0.5695,0.5728,0.5732,0.5752,0.58,0.58,0.58,0.58,0.58,0.5776,0.5728,0.5695,0.5671,0.5671,0.5671,0.5684,0.5732,0.5732,0.5759,0.58,0.58,0.58,0.58,0.58,0.554,0.5189,0.5189,0.5344,0.5528,0.5528,0.5477,0.5395,0.5395,0.5395,0.5514,0.6018,0.6061,0.6321,0.7866,0.8026,0.8017,0.888,0.8782,0.8464,0.8344,0.8518,0.8645,0.8459,0.8705,0.8871,0.8697,0.8417,0.8163,0.7939,0.7819,0.7695,0.7522,0.6986,0.6495,0.6135,0.5702,0.5103,0.4266,0.4407,0.427,0.3637,0.3196,0.2927,0.2838,0.2387,0.2018,0.177,0.1806,0.1711,0.1466,0.1466,0.1525,0.166,0.1955,0.2144,0.055,0.0738,0.1164,0.1739,0.1909,0.2104,0.2708,0.2845,0.297,0.3444,0.3551,0.369,0.4152,0.4242,0.4473,0.5165,0.5148,0.5289,0.601,0.5979,0.5905,0.5977,0.6051,0.6074,0.5994,0.5984,0.0,0.581,0.58,0.58,0.58,0.58,0.5827,0.5863,0.5863,0.5908,0.5984,0.6327,0.6691,0.7053,0.7007,0.6975,0.6971,0.6907,0.6874,0.6874,0.6874,0.6915,0.6975,0.6975,0.7011,0.7053,0.7053,0.7053,0.7053,0.7053,0.7053,0.6928,0.6089,0.5742,0.5664,0.5664,0.5782,0.5937,0.5937,0.6125,0.6453,0.7013,0.7069,0.7335,0.8901,0.9068,0.9065,0.9897,0.9797,0.9497,0.9391,0.9385,0.9331,0.9158,0.9258,0.9291,0.8998,0.8717,0.8443,0.8124,0.8164,0.8084,0.7694,0.745,0.7227,0.6966,0.6673,0.6154,0.5301,0.5436,0.5155,0.4199,0.3928,0.3658,0.3309,0.3054,0.2794,0.2531,0.2575,0.2495,0.2313,0.2313,0.2398,0.258,0.2893,0.3076,0.1611,0.2121,0.2915,0.2954,0.3065,0.3177,0.3232,0.3232,0.353,0.455,0.4763,0.5084,0.6115,0.6306,0.631,0.631,0.6152,0.6096,0.63,0.6156,0.6137,0.638,0.6398,0.6437,0.6495,0.6488,0.0,0.6049,0.0,0.5895,0.5895,0.5949,0.6037,0.6175,0.6175,0.6263,0.6481,0.7407,0.8351,0.9296,0.9171,0.9106,0.9095,0.891,0.8825,0.8825,0.8825,0.8936,0.9106,0.9106,0.9178,0.9296,0.9296,0.9296,0.9296,0.9296,0.9296,0.8972,0.6755,0.5978,0.5971,0.5971,0.6444,0.7001,0.6971,0.7462,0.8026,0.8064,0.8075,0.8269,0.9139,0.937,0.9495,1.0001,1.0112,1.0025,0.9781,0.9721,0.9714,0.9701,0.9701,0.9586,0.9264,0.8984,0.8731,0.8462,0.8631,0.8584,0.7999,0.7932,0.7932,0.7932,0.7912,0.7685,0.7146,0.711,0.6549,0.5238,0.5133,0.4799,0.4091,0.4165,0.3887,0.3189,0.3301,0.3126,0.2616,0.2616,0.269,0.2837,0.3673,0.4059,0.2403,0.2621,0.305,0.3701,0.4006,0.4313,0.4967,0.5114,0.5222,0.5585,0.5669,0.5792,0.623,0.6385,0.6457,0.6457,0.6481,0.6542,0.6583,0.6552,0.6862,0.7757,0.7862,0.8224,0.9112,0.8971,0.0,0.0,0.7963,0.7281,0.7281,0.801,0.851,0.8754,0.8556,0.8579,0.8838,0.8885,0.905,0.9296,0.9259,0.9248,0.9248,0.9187,0.918,0.918,0.918,0.9192,0.9248,0.9248,0.9265,0.9296,0.9296,0.9296,0.9296,0.9296,0.9296,0.9205,0.8623,0.8333,0.8256,0.8256,0.8293,0.8272,0.8081,0.8149,0.839,0.8846,0.8963,0.9172,1.004,1.0269,1.0297,1.0436,1.0281,1.0078,1.0005,1.0007,0.994,0.9741,0.9701,0.9586,0.9264,0.9137,0.9004,0.8744,0.8758,0.8677,0.8322,0.8276,0.8276,0.8276,0.8051,0.7685,0.7146,0.7192,0.6868,0.598,0.5594,0.5264,0.4981,0.4618,0.4377,0.4289,0.4324,0.4322,0.4282,0.4282,0.4363,0.4489,0.4712,0.4958,0.3602,0.3864,0.4383,0.4872,0.5132,0.5417,0.5907,0.6022,0.6045,0.6115,0.6132,0.6159,0.6282,0.6416,0.6491,0.6491,0.7041,0.7475,0.7575,0.7953,0.8501,0.919,0.9228,0.9466,1.0141,1.0022,1.0002,1.0191,0.9227,0.8633,0.8633,0.9301,0.9697,0.9703,0.9697,0.9978,1.0565,1.0163,1.0251,1.0838,1.0838,1.0761,1.0638,1.0889,1.0948,1.0844,0.0,1.0948,1.0844,1.0966,1.086,1.0625,1.0773,1.075,1.0614,1.0614,1.0614,1.0614,1.0614,1.0571,1.0358,0.9474,0.9335,0.9467,0.9319,0.9479,0.979,1.0132,1.0221,1.0337,1.082,1.0958,1.0925,1.0798,1.0637,1.0468,1.0334,1.0314,1.0276,1.0115,0.9982,0.982,0.9624,0.9491,0.9365,0.9218,0.9192,0.9145,0.8985,0.8851,0.8751,0.8751,0.8711,0.8514,0.8056,0.8224,0.7989,0.7128,0.6933,0.6683,0.628,0.5614,0.5284,0.5354,0.4978,0.4848,0.4982,0.4982,0.5072,0.5233,0.5301,0.5426,0.4871,0.5319,0.5993,0.5993,0.6146,0.6338,0.6474,0.649,0.6528,0.6679,0.6698,0.6698,0.6698,0.6802,0.6855,0.6736,0.7675,0.8467,0.87,0.9481,1.0172,1.0606,1.0548,1.0534,1.0702,1.0676,1.0665,1.0717,1.0402,1.0134,0.9965,1.0373,1.0449,1.0167,1.049,1.1047,1.1888,1.138,1.1696,1.2844,1.2844,1.2691,1.2438,1.2953,1.3066,1.2877,1.3093,1.3079,1.2864,1.31,1.2899,1.2445,1.2744,1.2671,1.2425,1.2425,1.2398,1.2365,1.2365,1.2338,1.2003,1.0276,1.0125,1.0653,1.0617,1.1003,1.1459,1.1402,1.1406,1.1406,1.1406,1.1362,1.1286,1.1056,1.0962,1.0885,1.0646,1.0609,1.0609,1.0609,1.037,1.0152,1.0112,0.9907,0.9741,0.9707,0.9701,0.9701,0.9701,0.9445,0.9271,0.9271,0.9478,0.9532,0.9291,0.9499,0.9283,0.8444,0.8528,0.831,0.7676,0.6818,0.6383,0.6395,0.565,0.5338,0.549,0.549,0.5589,0.5805,0.5914,0.6001,0.5617,0.5783,0.5993,0.5993,0.6146,0.6509,0.7346,0.7538,0.7783,0.8613,0.8789,0.8789,0.8789,0.8893,0.8747,0.8032,0.8193,0.8501,0.8814,0.9005,0.9833,1.1742,1.1947,1.2331,1.3329,1.3159,0.0,0.0,1.3114,1.2455,1.1403,1.2203,1.2659,1.2587,1.2857,1.2996,1.2949,1.2844,1.2896,1.3126,1.3126,1.31,1.306,1.314,1.316,1.3133,1.3186,0.0,1.3133,1.3186,1.3146,1.306,1.3113,1.31,1.3033,1.3033,1.2912,1.2703,1.2703,1.2531,1.2243,1.1885,1.1871,1.194,1.1704,1.1724,1.1761,1.1479,1.1406,1.1406,1.1406,1.1232,1.1056,1.1002,1.0825,1.0653,1.06,1.0609,1.0609,1.0609,1.0553,1.0439,1.016,1.0058,0.996,0.9734,0.9701,0.9701,0.9701,0.9654,0.9606,0.9606,0.9418,0.9378,0.9593,0.9411,0.9328,0.9434,0.8914,0.8537,0.8419,0.7676,0.732,0.7434,0.7285,0.7314,0.7498,0.7498,0.7625,0.7882,0.7899,0.8124,0.67,0.6892,0.7067,0.7591,0.7787,0.7993,0.8466,0.858,0.8713,0.9207,0.9296,0.9296,0.9296,0.941,0.937,0.8944,0.9629,1.0275,1.0445,1.1123,1.2003,1.3118,1.3245,1.347,1.4039,1.3955,1.3935,1.4096,1.3955,1.3514,1.2727,1.3145,1.3487,1.3661,1.3613,1.3613,1.3667,1.3367,1.3267,1.3413,1.3413,1.334,1.32,1.3527,1.356,1.3427,1.358,1.3581,1.3427,1.3607,1.3487,1.3207,1.3353,1.3327,1.3193,1.3193,1.312,1.3006,1.3006,1.2811,1.2569,1.2569,1.2444,1.2278,1.2156,1.2109,1.2064,1.1906,1.1866,1.1866,1.1866,1.1777,1.1637,1.15,1.1126,1.0774,1.0626,1.0609,1.0609,1.0609,1.0609,1.0546,1.039,1.0363,1.0316,1.0191,1.0171,1.0171,1.0171,1.0171,1.0095,0.9927,0.9765,0.9724,0.9893,0.992,0.992,0.9913,0.9745,0.964,0.964,0.8861,0.8469,0.8528,0.8233,0.812,0.8216,0.8345,0.8475,0.8617,0.8723,0.8875,0.7916,0.8122,0.8313,0.9107,0.9296,0.9353,0.958,0.9612,0.9693,0.99,0.9938,0.9938,0.9938,1.0021,1.0061,0.994,1.099,1.1858,1.1969,1.3058,1.3894,1.4074,1.4142,1.4155,1.4116,1.4109,0.0,1.4109,1.4109,1.3981,1.3727,1.372,1.3827,1.4082,1.384,1.3827,1.4103,1.3627,1.3494,1.372,1.372,1.36,1.3414,1.3874,1.3961,1.3727,1.3988,1.3955,1.374,1.3988,1.3814,1.34,1.3627,1.358,1.3394,1.3394,1.334,1.3287,1.3287,1.3106,1.2878,1.2823,1.2564,1.2305,1.2305,1.2305,1.2305,1.2305,1.2305,1.2305,1.2305,1.2258,1.2138,1.1862,1.1423,1.1022,1.0827,1.0774,1.076,1.07,1.0823,1.0923,1.0877,1.1005,1.1115,1.1115,1.1115,1.1115,1.1115,1.0902,1.0683,1.048,1.0253,1.0125,1.0207,1.0383,1.041,1.0221,1.0443,1.0609,1.0609,1.0002,0.9663,0.9663,0.9258,0.904,0.904,0.926,0.9398,0.9465,0.9633,0.973,0.9145,0.9169,0.9183,0.9282,0.9296,0.9542,1.0453,1.0658,1.092,1.1848,1.2021,1.2021,1.2021,1.2041,1.1885,1.1393,1.145,1.1703,1.218,1.2646,1.3219,1.4009,1.4315,1.4376,1.4115,1.4109,1.4109,1.4109,1.4109,1.4096,1.4069,1.4048,1.4076,1.4109,1.4062,1.4062,1.4109,1.4035,1.4021,1.4048,1.4048,1.4035,1.4029,1.4062,1.4075,1.4069,1.4096,1.4075,0.0,1.4096,1.4076,1.4008,1.4035,1.4049,1.4029,1.4029,1.3814,1.356,1.356,1.3393,1.312,1.2878,1.2564,1.2305,1.2305,1.2305,1.2305,1.2305,1.2305,1.2305,1.2305,1.2122,1.1855,1.1519,1.1406,1.1359,1.1339,1.1332,1.1252,1.1002,1.1549,1.1972,1.1731,1.2297,1.278,1.278,1.278,1.278,1.278,1.1888,1.1338,1.1605,1.072,1.0227,1.0526,1.0294,1.0261,1.0539,1.0579,1.0609,1.0609,1.0766,1.0834,1.0834,1.1027,1.112,1.112,1.1146,1.1314,1.1611,1.1637,1.177,1.004,1.032,1.0543,1.0992,1.1118,1.1211,1.1601,1.1694,1.183,1.2224,1.2305,1.2305,1.2305,1.2305,1.2301,1.228,1.2418,1.2645,1.3032,1.3372,1.3769,1.4278,1.4427,1.4454,1.4355,1.4349,1.4275,1.4102,1.4109,1.4109,1.4109,1.4109,1.4109,1.4109,1.4109,1.4109,1.4109,1.4109,1.4109,1.4109,1.4109,1.4109,1.4109,1.4109,1.4109,1.4109,1.4109,1.4109,0.0,1.4109,1.4109,1.4109,1.4109,1.4109,1.4109,1.4109,1.4015,1.3908,1.3908,1.37,1.3413,1.3327,1.3086,1.276,1.2412,1.2305,1.2305,1.2305,1.2305,1.2427,1.3007,1.3515,1.379,1.3462,1.3385,1.3349,1.3182,1.3153,1.3036,1.2633,1.282,1.2933,1.2583,1.2795,1.2891,1.257,1.2523,1.2333,1.1855,1.1544,1.1349,1.1325,1.059,1.0307,1.0798,1.0715,1.0768,1.1062,1.1082,1.1082,1.1082,1.1172,1.1232,1.1232,1.1543,1.169,1.169,1.187,1.2011,1.2149,1.2149,1.2209,1.1074,1.1444,1.1763,1.2204,1.2305,1.2305,1.2305,1.2305,1.2305,1.2305,1.2305,1.2305,1.2305,1.2305,1.2417,1.2756,1.3026,1.3293,1.356,1.3954,1.4262,1.4382,1.4447,1.4467,1.4381,1.4374,1.4309,1.4102,1.4109,1.4109,1.4109,1.4109,1.4109,1.4109,1.4109,1.4109,1.4109,1.4109,1.4109,1.4109,1.4109,1.4109,1.4109,1.4109,1.4109,1.413,1.4433,1.4573,0.0,1.4922,1.5047,1.5047,1.5047,1.5047,1.5047,1.5047,1.5047,1.5047,1.5047,1.4897,1.4636,1.4225,1.3971,1.3662,1.2821,1.2791,1.3,1.2898,1.3004,1.3302,1.3973,1.4665,1.5132,1.4911,1.4844,1.4795,1.4605,1.4572,1.4447,1.4006,1.4125,1.4176,1.3801,1.3936,1.3975,1.3589,1.3525,1.3332,1.2766,1.2642,1.2545,1.2348,1.1734,1.1275,1.1132,1.1122,1.1192,1.1392,1.1406,1.1406,1.1406,1.1493,1.1557,1.1557,1.1868,1.2015,1.2015,1.2204,1.2305,1.2305,1.2392,1.2478,1.236,1.2537,1.271,1.2378,1.2305,1.2305,1.2305,1.2305,1.2305,1.2305,1.2305,1.2305,1.2305,1.2305,1.2417,1.2756,1.3026,1.3293,1.356,1.4127,1.4387,1.415,1.4349,1.4409,1.4122,1.4088,1.4088,1.4109,1.4109,0.0,1.4109,1.4109,1.4109,1.4109,1.4109,1.4109,1.4109,1.4109,1.4109,1.4109,1.4109,1.4109,1.4109,1.4109,1.4109,1.4166,1.522,1.5675,0.0,1.6825,1.7281,1.7281,1.7281,1.7281,1.7281,1.7281,1.7281,1.7281,1.7281,1.7253,1.7033,1.5705,1.527,1.5011,1.3618,1.394,1.4681,1.429,1.4671,1.5163,1.5181,1.5199,1.5199,1.5199,1.519,1.519,1.519,1.519,1.51,1.4745,1.5323,1.5794,1.5521,1.6125,1.6655,1.6655,1.6649,1.6649,1.664,1.595,1.5466,1.5441,1.4736,1.3487,1.1553,1.1406,1.1406,1.1406,1.1406,1.1406,1.1406,1.1728,1.1882,1.1882,1.2169,1.2298,1.2298,1.2305,1.2305,1.2311,1.2643,1.2945,1.2325,1.2537,1.2717,1.2378,1.2305,1.2305,1.2305,1.2305,1.2305,1.2305,1.2305,1.2305,1.2305,1.249,1.2791,1.328,1.3614,1.3908,1.4181,1.4576,1.4812,1.4718,1.4943,1.5003,1.4738,1.4502,1.4302,1.4102,1.4109,1.4412,1.5158,1.5458,1.5127,1.413,1.4109,1.4447,1.52,1.5192,1.5566,1.6281,1.6281,1.6281,1.6288,1.6612,1.6763,1.6792,1.7421,1.7529,1.729,1.7643,1.7586,1.7302,1.7302,1.7302,1.7302,1.7302,1.7302,1.7302,1.7302,1.7302,1.7236,1.6798,1.6665,1.6581,1.6135,1.5432,1.4926,1.5529,1.612,1.6571,1.6571,1.6845,1.7113,1.7113,1.7113,1.7113,1.7113,1.7113,1.7002,1.6626,1.6751,1.6809,1.638,1.6529,1.6578,1.6209,1.6147,1.594,1.5393,1.5317,1.5206,1.4975,1.4925,1.4311,1.2813,1.2694,1.2508,1.2047,1.2024,1.2024,1.2024,1.2111,1.2276,1.2502,1.2596,1.2731,1.2926,1.2926,1.2926,1.2926,1.3019,1.322,1.2271,1.2537,1.2717,1.2378,1.2305,1.2305,1.2305,1.2305,1.2305,1.2305,1.2305,1.2305,1.2305,1.2564,1.2904,1.3247,1.3634,1.4,1.4315,1.4609,1.4859,1.4972,1.5146,1.5291,1.54,1.5384,1.5425,1.5557,1.5708,1.6085,1.6758,1.7037,1.6742,1.5824,1.5795,1.6119,1.6799,1.6799,1.7134,1.7788,1.7788,1.7788,1.7796,1.8083,1.8233,1.8262,1.8914,1.9049,0.0,1.9291,1.9303,1.9032,1.9032,1.8923,1.8779,1.8779,1.8682,1.855,1.855,1.855,1.849,1.806,1.7646,1.7374,1.7807,1.7099,1.6346,1.7417,1.7715,1.7727,1.7727,1.7859,1.7991,1.7991,1.7991,1.7991,1.7991,1.7991,1.7961,1.7881,1.7734,1.7588,1.7438,1.7282,1.713,1.6958,1.6929,1.6804,1.6473,1.6617,1.6599,1.6208,1.6519,1.6217,1.487,1.4302,1.3841,1.3415,1.3043,1.288,1.301,1.267,1.2631,1.2932,1.2939,1.3039,1.3193,1.3193,1.3247,1.3353,1.3353,1.3507,0.0,1.249,1.269,1.2371,1.2305,1.2305,1.2305,1.2305,0.0,1.2305,1.2305,1.2311,1.2325,1.2616,1.2831,1.289,1.3327,1.376,1.4082,1.4369,1.4685,1.5091,1.51,1.5373,1.6192,1.6605,1.7158,1.7987,1.8396,1.8622,1.8716,1.8763,1.8801,1.8887,1.8912,1.8853,1.8716,1.8708,1.8759,1.8823,1.8823,1.8823,1.8845,1.8849,1.8887,0.0,1.9959,2.0383,0.0,2.151,2.1935,2.1905,2.1905,2.1641,2.1239,2.1239,2.1016,2.0693,2.0693,2.0693,2.0508,1.9497,1.8416,1.7718,1.8789,1.8754,1.858,1.9649,1.9347,1.8685,1.8656,1.8371,1.8069,1.804,1.8059,1.8088,1.8088,1.8088,1.8196,1.8578,1.8352,1.8205,1.8578,1.8342,1.8215,1.8588,1.8646,1.881,1.9238,1.9305,1.9131,1.8713,1.9043,1.8767,1.746,1.6163,1.537,1.5291,1.4403,1.402,1.4336,1.3452,1.3113,1.3464,1.3471,1.3445,1.3386,1.3445,1.3588,1.3749,1.3831,1.4021,1.1593,0.0,1.2392,1.2318,1.2305,1.2305,0.0,1.2305,1.2305,1.2305,1.2305,1.2371,1.2636,1.2912,1.3266,1.3721,1.4075,1.4314,1.4387,1.4669,1.5292,1.6397,1.598,1.6202,1.7703,1.74,1.7484,1.8402,1.8559,1.8965,1.9773,2.0164,2.0731,2.157,2.1884,2.1324,1.9846,1.9816,2.0256,2.1119,2.1119,2.1119,2.1129,2.144,2.1582,2.1601,2.2181,2.2251,2.1984,2.2258,2.2178,2.1905,2.1905,2.1816,2.1738,2.1738,2.169,2.1593,2.1593,2.1593,2.1503,2.0881,2.0287,1.9874,2.0138,1.9573,1.9058,2.013,2.0029,1.9523,1.9219,1.9062,1.8906,1.8539,1.8722,1.8984,1.8984,1.8984,1.9014,1.9121,1.9053,1.9014,1.9121,1.9053,1.9041,1.9121,1.9131,1.917,1.9296,1.9305,1.9266,1.915,1.9228,1.9165,1.8823,1.7862,1.6945,1.6177,1.5897,1.5807,1.5888,1.4877,1.4871,1.6004,1.6221,1.5926,1.5112,1.5939,1.5945,1.5228,1.6062,1.6468,1.1557,1.1864,1.2122,1.2122,1.2204,1.2305,1.2305,1.2305,1.2305,1.2305,1.2305,1.2392,1.2749,1.3019,1.334,1.3794,1.4221,1.4594,1.4861,1.5177,1.5842,1.7179,1.6953,1.7406,1.9258,1.9242,1.9434,2.0329,2.055,2.0917,2.1508,2.1767,2.2181,2.276,2.2996,2.2597,2.1529,2.1529,2.1848,2.244,2.244,2.244,2.2471,2.2674,2.2781,2.2791,2.3003,2.2986,2.2781,2.2781,2.2645,2.244,2.244,2.2344,2.2168,2.2168,2.2051,2.1905,2.1905,2.1758,2.1562,2.1523,2.1094,2.0625,2.081,2.035,1.9864,2.044,2.0254,1.9844,1.9639,1.9434,1.9247,1.8976,1.9121,1.9305,1.9305,1.9305,1.9346,1.9541,1.9442,1.9364,1.9541,1.9414,1.9364,1.9541,1.957,1.9648,1.9872,1.9892,1.9814,1.96,1.9774,1.9814,1.959,1.9315,1.8732,1.7794,1.7338,1.7135,1.7261,1.631,1.6188,1.7068,1.7235,1.7009,1.6437,1.7009,1.7009,1.6457,1.7029,1.7425,1.1607,1.1832,1.1913,1.1942,1.2124,1.2305,1.2305,1.2305,1.2305,1.2305,1.2305,1.2405,1.279,1.3052,1.3313,1.3673,1.4214,1.4843,1.5563,1.5878,1.6544,1.7995,1.8041,1.8751,2.0782,2.1178,2.1662,2.253,2.2918,2.3091,2.3091,2.3091,2.3091,2.3091,2.3091,2.3091,2.3091,2.3091,2.3091,2.3091,2.3091,2.3091,2.3091,2.3091,2.3091,2.3091,0.0,0.0,2.3091,2.3091,2.3091,2.3091,2.3091,2.2898,2.2586,2.2586,2.2383,2.208,2.208,2.1766,2.1474,2.1855,2.1456,2.0859,2.1201,2.1025,2.0684,2.0684,2.0371,2.0,1.9913,1.9697,1.9481,1.9413,1.9452,1.9501,1.9501,1.9501,1.9608,1.9941,1.9727,1.9608,1.9951,1.9717,1.96,1.9961,2.0019,2.0146,2.0556,2.0605,2.0439,2.0049,2.0361,2.0439,2.0049,2.0371,2.0273,1.955,1.876,1.8336,1.8404,1.7804,1.748,1.7557,1.7718,1.7718,1.7565,1.7718,1.7752,1.7661,1.7831,1.8148,1.1052,1.1507,1.1942,1.2178,1.2271,1.2305,1.2305,1.2305,1.2305,1.2305,1.2305,1.2472,1.3039,1.318,1.3467,1.4234,1.4669,1.5378,1.6732,1.6956,1.7794,1.9986,1.9645,2.001,2.2038,2.1658,2.1773,2.2906,2.3062,2.3091,2.3091,2.3091,2.3091,2.3091,2.3091,2.3091,2.3091,2.3091,2.3091,2.3091,2.3091,2.3091,2.3091,2.3091,2.3091,2.3091,0.0,2.3091,2.3091,2.3091,2.3091,2.3091,2.3091,2.3052,2.3003,2.3003,2.2976,2.2927,2.2927,2.2654,2.2303,2.2371,2.209,2.172,2.1768,2.1484,2.1113,2.1113,2.081,2.04,2.001,2.0137,2.0293,1.9902,2.0098,2.041,2.041,2.041,2.0429,2.0468,2.0429,2.0429,2.0468,2.0429,2.0429,2.0468,2.0488,2.0527,2.0595,2.0605,2.0576,2.0507,2.0566,2.0576,2.0507,2.0566,2.0546,2.0419,2.0265,1.9801,1.8926,1.9643,1.9632,1.8758,1.9638,1.9658,1.8738,1.9658,1.9796,1.9281,2.0171,2.0841,1.1149,1.1543,1.2013,1.2469,1.2684,1.2792,1.2792,1.2792,1.2792,0.0,1.2792,1.2973,1.3574,1.3687,1.3975,1.485,1.567,1.6485,1.7354,1.8025,1.9075,2.0824,0.0,2.1096,2.2667,2.2497,2.2492,2.3047,2.3091,2.3091,2.3091,2.3091,2.3091,2.3091,2.3091,2.3091,2.3091,2.3091,2.3091,2.3091,2.3091,2.3091,2.3091,2.3091,2.3091,2.3091,0.0,2.3091,2.3091,2.3091,2.3091,2.3091,2.3091,2.3091,2.3091,2.3091,2.3091,2.3091,2.3091,2.284,2.2527,2.2752,2.2412,2.1944,2.2158,2.1924,2.1582,2.1582,2.1114,2.0556,2.0332,2.0439,2.0556,2.0332,2.0439,2.0605,2.0605,2.0605,2.0605,2.0605,2.0605,2.0605,2.0605,2.0605,2.0605,2.0605,2.0605,2.0605,2.0605,2.0605,2.0605,2.0605,2.0605,2.0605,2.0605,2.0605,2.0605,2.0605,2.0605,2.0382,1.9883,2.0343,2.0362,1.9883,2.0343,2.0362,1.9864,2.0584,2.0757,2.0476,2.1221,2.1816,1.1412,1.1744,1.2116,1.2656,0.0,1.3039,1.318,1.3153,0.0,0.0,0.0,1.3453,1.3995,1.4277,1.4719,1.5659,1.6651,1.7599,1.8441,1.9337,2.0373,2.1569,2.1725,2.2076,2.3003,2.3091,2.3091,2.3091,2.3091,2.3091,2.3091,2.3091,2.3091,2.3091,2.3091,2.3091,2.3091,2.3091,2.3091,2.3091,2.3091,2.3091,2.3091,2.3091,2.3091,2.3091,2.3091,2.3091,2.3091,2.3091,2.3091,2.3091,2.3091,2.3091,2.3091,2.3091,2.3091,2.3091,2.3091,2.2908,2.2693,2.2994,2.2684,2.2236,2.2547,2.2363,2.2031,2.2031,2.1495,2.0899,2.0899,2.082,2.0742,2.0742,2.0742,2.0742,2.0742,2.082,2.0869,2.0762,2.082,2.0859,2.0762,2.082,2.0899,2.0899,2.0899,2.0899,2.0899,2.0899,2.0899,2.0899,2.0899,2.0899,2.0899,2.0899,2.0899,2.0899,2.0801,2.0693,2.0605,2.0684,2.0742,2.0742,2.0742,2.0791,2.0918,2.1201,2.1415,2.1502,2.1875,2.2256,1.1718,1.2069,1.2363,1.2703,1.2577,0.0,1.3067,1.3006,0.0,1.3153,0.0,0.0,1.4028,1.475,1.5693,1.6882,1.7392,1.8449,2.0724,2.1114,2.1614,2.284,2.2982,2.3003,2.3091,2.3091,2.3091,2.3091,2.3091,2.3091,2.3091,2.3091,2.3091,2.3091,2.3091,2.3091,2.3091,2.3091,2.3091,2.3091,2.3091,2.3091,2.3091,2.3091,2.3091,2.3091,2.3091,2.3091,2.3091,2.3091,2.3091,2.3091,2.3091,2.3091,2.3091,2.3091,2.3091,2.3091,2.3091,2.3081,2.3052,2.3081,2.3052,2.3013,2.3042,2.2781,2.2471,2.2471,2.2139,2.1808,2.1808,2.1474,2.1162,2.1162,2.1162,2.1162,2.1162,2.1504,2.167,2.1249,2.1514,2.166,2.124,2.1523,2.1808,2.1808,2.1808,2.1808,2.1808,2.1808,2.1808,2.1808,2.1808,2.1808,2.1808,2.1808,2.1808,2.1808,2.1386,2.0976,2.0625,2.0967,2.1162,2.1162,2.1162,2.1366,2.1808,2.1847,2.2041,2.2401,2.243,2.2674,1.1846,1.2254,1.2671,1.2979,1.2953,0.0,0.0,1.3801,1.3955,1.4257,1.441,0.0,0.0,1.5317,1.6049,1.7305,1.8256,1.9405,2.1069,2.1965,2.2589,2.3047,2.3091,2.3091,2.3091,2.3091,2.3091,2.3091,2.3091,2.3091,2.3091,2.3091,2.3091,2.3091,2.3091,2.3091,2.3091,2.3091,2.3091,2.3091,2.3091,2.3091,2.3091,2.3091,2.3091,2.3091,2.3091,2.3091,2.3091,2.3091,2.3091,2.3091,2.3091,2.3091,2.3091,2.3091,2.3091,2.3091,2.3091,2.3091,2.3091,2.3091,2.3091,2.3091,2.3091,2.2984,2.2879,2.2879,2.2762,2.2527,2.2021,2.1768,2.1641,2.1641,2.1641,2.1641,2.1641,2.1768,2.1857,2.167,2.1777,2.1836,2.167,2.1777,2.1905,2.1905,2.1905,2.1905,2.1905,2.1905,2.1905,2.1905,2.1905,2.1905,2.1905,2.1905,2.1905,2.1905,2.1728,2.1562,2.1407,2.1543,2.1641,2.1641,2.1641,2.1719,2.1905,2.2148,2.2353,2.2519,2.2762,2.2945,1.2161,1.2494,1.2857,1.3133,0.0,0.0,1.4088,1.4309,1.4496,1.4905,1.5059,1.5213,1.5478,0.0,1.6339,1.8002,1.8956,2.0056,2.1645,2.2589,2.3091,2.3091,2.3091,2.3091,2.3091,2.3091,2.3091,2.3091,2.3091,2.3091,2.3091,2.3091,2.3091,2.3091,2.3091,2.3091,2.3091,2.3091,2.3091,2.3091,2.3091,2.3091,2.3091,2.3091,2.3091,2.3091,2.3091,2.3091,2.3091,2.3091,2.3091,2.3091,2.3091,2.3091,2.3091,2.3091,2.3091,2.3091,2.3091,2.3091,2.3091,2.3091,2.3091,2.3091,2.3091,2.3091,2.3091,2.3091,2.3091,2.2964,2.241,2.2178,2.209,2.209,2.209,2.209,2.209,2.2187,2.2246,2.2109,2.2197,2.2236,2.2109,2.2197,2.2275,2.2275,2.2275,2.2275,2.2275,2.2275,2.2275,2.2275,2.2275,2.2275,2.2275,2.2275,2.2275,2.2275,2.2275,2.2168,2.1915,2.2012,2.209,2.209,2.209,2.2148,2.2285,2.2547,2.2693,2.2693,2.2976,2.3091,1.2716,1.2803,1.2864,1.3133,0.0,0.0,1.4374,1.4309,1.429,1.4872,1.5227,1.5484,1.5748,1.5808,0.0,1.91,1.9519,2.0359,2.2753,2.3091,2.3091,2.3091,2.3091,2.3091,2.3091,2.3091,2.3091,2.3091,2.3091,2.3091,2.3091,2.3091,2.3091,2.3091,2.3091,2.3091,2.3091,2.3091,2.3091,2.3091,2.3091,2.3091,2.3091,2.3091,2.3091,2.3091,2.3091,2.3091,2.3091,2.3091,2.3091,2.3091,2.3091,2.3091,2.3091,2.3091,2.3091,2.3091,2.3091,2.3091,2.3091,2.3091,2.3091,2.3091,2.3091,2.3091,2.3091,2.3091,2.3091,2.3091,2.3091,2.281,2.2519,2.2519,2.2519,2.2519,2.2519,2.282,2.2974,2.2576,2.283,2.2964,2.2566,2.284,2.3091,2.3091,2.3091,2.3091,2.3091,2.3091,2.3091,2.3091,2.3091,2.3091,2.3091,2.3091,2.3091,2.3091,2.3091,2.2742,2.1934,2.2295,2.2519,2.2519,2.2519,2.2703,2.3091,2.3091,2.3091,2.3091,2.3091,2.3091,1.2484,1.2765,1.3146,1.34,1.3867,1.4394,0.0,1.507,0.0,0.0,1.5621,1.5708,1.5788,1.6527,0.0,1.9245,2.0215,2.1302,2.2884,2.3091,2.3091,2.3091,2.3091,2.3091,2.3091,2.3091,2.3091,2.3091,2.3091,2.3091,2.3091,2.3091,2.3091,2.3091,2.3091,2.3091,2.3091,2.3091,2.3091,2.3091,2.3091,2.3091,2.3091,2.3091,2.3091,2.3091,2.3091,2.3091,2.3091,2.3091,2.3091,2.3091,2.3091,2.3091,2.3091,2.3091,2.3091,2.3091,2.3091,2.3091,2.3091,2.3091,2.3091,2.3091,2.3091,2.3091,2.3091,2.3091,2.3091,2.3091,2.3091,2.3003,2.2927,2.2927,2.2927,2.2927,2.2927,2.3013,2.3062,2.2957,2.3013,2.3052,2.2925,2.3013,2.3091,2.3091,2.3091,2.3091,2.3091,2.3091,2.3091,2.3091,2.3091,2.3091,2.3091,2.3091,2.3091,2.3091,2.3091,2.2984,2.2762,2.2869,2.2927,2.2927,2.2927,2.2974,2.3091,2.3091,2.3091,2.3091,2.3091,2.3091,1.2833,1.3186,1.3627,1.39,1.4327,1.485,1.5438,1.5571,0.0,0.0,1.5808,1.5808,1.5808,1.685,0.0,1.9291,2.0499,2.1725,2.2938,2.3091,2.3091,2.3091,2.3091,2.3091,2.3091,2.3091,2.3091,2.3091,2.3091,2.3091,2.3091,2.3091,2.3091,2.3091,2.3091,2.3091,2.3091,2.3091,2.3091,2.3091,2.3091,2.3091,2.3091,2.3091,2.3091,2.3091,2.3091,2.3091,2.3091,2.3091,2.3091,2.3091,2.3091,2.3091,2.3091,2.3091,2.3091,2.3091,2.3091,2.3091,2.3091,2.3091,2.3091,2.3091,2.3091,2.3091,2.3091,2.3091,2.3091,2.314,2.3327,2.3376,2.3327,2.314,2.3091,2.3091,2.3091,2.3091,2.3091,2.3091,2.3091,2.3091,2.3091,2.3091,2.3091,2.3091,2.3091,2.3091,2.3091,2.3091,2.3091,2.3091,2.3091,2.3091,2.3091,2.3091,2.3091,2.3091,2.3091,2.3091,2.3091,2.3091,2.3091,2.3091,2.3091,2.3091,2.3091,2.3091,2.3091,2.3091,2.3091,2.3091,1.3527,1.384,1.4162,1.4461,1.4803,1.52,1.5688,1.5808,1.5808,1.5808,1.5828,1.5889,1.6008,1.7102,1.8365,1.9573,2.0793,2.1937,2.3018,2.3149,2.314,2.3101,2.3091,2.3091,2.3091,2.3091,2.3091,2.3091,2.3091,2.3091,2.3091,2.3091,2.3091,2.3091,2.3091,2.3091,2.3091,2.3091,2.3091,2.3091,2.3091,2.3091,2.3091,2.3091,2.3091,2.3091,2.3091,2.3091,2.3091,2.3091,2.3091,2.3091,2.3091,2.3091,2.3091,2.3091,2.3091,2.3091,2.3091,2.3091,2.3091,2.3091,2.3091,2.3091,2.3091,2.3091,2.3091,2.3091,2.312,2.3259,2.3633,2.376,2.3682,2.3198,2.312,2.314,2.3101,2.3091,2.3091,2.3091,2.3091,2.3091,2.3091,2.3091,2.3091,2.3091,2.3091,2.3132,2.3171,2.3149,2.3169,2.3208,2.3208,2.3198,2.3159,2.3149,2.3162,2.3091,2.3091,2.3091,2.3091,2.3091,2.3091,2.3091,2.3091,2.3091,2.3091,2.3091,2.3091,2.3091,2.3091,2.3091,1.3527,1.384,1.423,1.4758,1.5257,1.5648,1.5775,1.5808,1.5808,1.5808,1.6012,1.6511,1.7565,1.8978,2.0418,2.1734,2.2954,2.3718,2.3647,2.3652,2.3503,2.314,2.3091,2.3091,2.3091,2.3091,2.3091,2.3091,2.3091,2.3091,2.3091,2.3091,2.3091,2.3091,2.3091,2.3091,2.3091,2.3091,2.3091,2.3091,2.3091,2.3091,2.3091,2.3091,2.3091,2.3091,2.3091,2.3091,2.3091,2.3091,2.3091,2.3091,2.3091,2.3091,2.3091,2.3091,2.3091,2.3091,2.3091,2.3091,2.3091,2.3091,2.3091,2.3091,2.3091,2.3091,2.3091,2.3091,2.3367,2.3594,2.3327,2.3513,2.3682,2.3198,2.3376,2.3555,2.3169,2.3091,2.3091,2.3091,2.3091,2.3091,2.3091,2.3091,2.3091,2.3091,2.3091,2.324,2.3603,2.3652,2.3779,2.4088,2.4118,2.3981,2.3682,2.3652,2.3484,2.312,2.3091,2.3091,2.3091,2.3091,2.3091,2.3091,2.3091,2.3091,2.3091,2.3091,2.3091,2.3091,2.3091,2.3091,1.3906,1.4282,1.4671,1.5231,1.5581,1.5808,1.5808,1.5915,1.6039,1.6039,1.619,1.6745,1.8227,1.9447,2.0776,2.2356,2.3446,2.4111,2.4092,2.3916,2.3711,2.3454,2.324,2.3091,2.3091,2.3091,2.3091,2.3091,2.3091,2.3091,2.3091,2.3091,2.3091,2.3091,2.3091,2.3091,2.3091,2.3091,2.3091,2.3091,2.3091,2.3091,2.3091,2.3091,2.3091,2.3091,2.3091,2.3091,2.3091,2.3091,2.3091,2.3091,2.3091,2.3091,2.3091,2.3091,2.3091,2.3091,2.3091,2.3091,2.3091,2.3091,2.3091,2.3091,2.3091,2.3091,2.3162,2.3367,2.3613,2.3828,2.4014,2.4238,2.4369,2.4121,2.376,2.3396,2.314,2.3091,2.3091,2.3091,2.3091,2.3159,2.3396,2.3435,2.3435,2.3435,2.3435,2.3513,2.376,2.3965,2.417,2.4371,2.4391,2.4326,2.4111,2.4092,2.3906,2.3454,2.3435,2.3435,2.3435,2.323,2.3091,2.3091,2.3091,2.3091,2.3091,2.3091,2.3091,2.3091,2.3091,2.3091,1.4327,1.4776,1.52,1.5741,1.5881,1.5895,1.5941,1.6359,1.672,1.6799,1.6806,1.7292,1.885,1.9918,2.1126,2.2853,2.3689,2.4219,2.4492,2.416,2.3867,2.3799,2.3386,2.3091,2.3091,2.3091,2.3091,2.3091,2.3091,2.3091,2.3091,2.3091,2.3091,2.3091,2.3091,2.3091,2.3091,2.3091,2.3091,2.3091,2.3091,2.3091,2.3091,2.3091,2.3091,2.3091,2.3091,2.3091,2.3091,2.3091,2.3091,2.3091,2.3091,2.3091,2.3091,2.3091,2.3091,2.3091,2.3091,2.3091,2.3091,2.3091,2.3091,2.3132,2.321,2.323,2.3318,2.3769,2.3955,2.4183,2.4818,2.5033,2.5072,2.4994,2.4141,2.3315,2.3315,2.3315,2.3315,2.3315,2.3279,2.3367,2.3818,2.386,2.3809,2.3887,2.3896,2.3926,2.4017,2.4316,2.456,2.4615,2.4625,2.4586,2.4531,2.4531,2.4346,2.3926,2.3896,2.3896,2.3896,2.3523,2.3315,2.3315,2.3269,2.323,2.323,2.323,2.3191,2.3091,2.3091,2.3091,1.4267,1.4901,1.5478,1.609,1.6237,1.6279,1.6533,1.7517,1.8449,1.8762,1.8814,1.9222,2.0605,2.2154,2.3647,2.5053,2.5387,2.5337,2.5053,2.4609,2.4199,2.3838,2.3386,2.3091,2.3091,2.3091,2.3091,2.3091,2.3091,2.3091,2.3091,2.3091,2.3091,2.3091,2.3091,2.3091,2.3091,2.3091,2.3091,2.3091,2.3091,2.3091,2.3091,2.3091,2.3091,2.3091,2.3091,2.3091,2.3091,2.3091,2.3091,2.3091,2.3091,2.3091,2.3091,2.3091,2.3091,2.3091,2.3091,2.3091,2.3091,2.3091,2.3091,2.3191,2.3584,2.3701,2.3789,2.4196,2.46,2.4857,2.457,2.4809,2.4994,2.459,2.4352,2.4225,2.4225,2.4225,2.4225,2.4225,2.3955,2.3838,2.4235,2.4033,2.3916,2.4277,2.4336,2.4473,2.4867,2.4965,2.5127,2.5493,2.5532,2.5376,2.5033,2.5004,2.4818,2.4365,2.4336,2.4336,2.4336,2.4254,2.4225,2.4225,2.3887,2.3701,2.3701,2.3701,2.3506,2.3091,2.3091,2.3091,1.4529,1.5077,1.5538,1.615,1.6297,1.6566,1.7587,1.8426,1.9237,2.014,2.108,2.1903,2.2491,2.2983,2.3831,2.5441,2.5503,2.5381,2.5439,2.5059,2.4619,2.4189,2.3769,2.3386,2.312,2.3091,2.3091,2.3091,2.3091,2.3091,2.3091,2.3091,2.3091,2.3091,2.3091,2.3091,2.3091,2.3091,2.3091,2.3091,2.3091,2.3091,2.3091,2.3091,2.3091,2.3091,2.3091,2.3091,2.3091,2.3091,2.3091,2.3091,2.3091,2.3091,2.3091,2.3091,2.3091,2.3091,2.3091,2.3091,2.314,2.3406,2.3484,2.3584,2.4014,2.4141,2.4228,2.4658,2.4945,2.5102,2.5123,2.5279,2.5367,2.5181,2.5132,2.5132,2.5132,2.4742,2.4391,2.4391,2.4463,2.4505,2.4401,2.4463,2.4505,2.4401,2.4619,2.4877,2.5063,2.5307,2.5493,2.5689,2.5693,2.564,2.5459,2.5439,2.5254,2.4814,2.4785,2.4785,2.4785,2.4551,2.4625,2.5123,2.4492,2.4141,2.4141,2.4141,2.402,2.3835,2.3835,2.3835,1.5074,1.5718,1.6253,1.6629,1.7037,1.7648,1.8681,1.9658,2.0639,2.1643,2.3097,2.4196,2.4196,2.3923,2.4123,2.5479,2.5459,2.5352,2.5669,2.5352,2.4975,2.4619,2.4209,2.3818,2.3474,2.3347,2.3279,2.3279,2.3159,2.3091,2.3091,2.3091,2.3091,2.3091,2.3091,2.3091,2.3091,2.3091,2.3091,2.3091,2.3091,2.3091,2.3091,2.3091,2.3091,2.3091,2.3091,2.3091,2.3091,2.3091,2.3091,2.3091,2.3091,2.3091,2.3091,2.3091,2.3091,2.311,2.324,2.3279,2.3357,2.3809,2.3945,2.4033,2.4453,2.458,2.4678,2.5141,2.5258,2.5312,2.562,2.5693,2.5693,2.5693,2.5693,2.5693,2.5693,2.5201,2.4723,2.4723,2.4922,2.5024,2.4762,2.4955,2.5024,2.4762,2.5029,2.5258,2.5258,2.5503,2.5693,2.5693,2.5693,2.5693,2.5693,2.5693,2.5571,2.5278,2.5258,2.5258,2.5258,2.4932,2.5045,2.5698,2.5064,2.4674,2.458,2.458,2.4521,2.4391,2.4391,2.4391,1.5966,1.7112,1.8177,1.7884,1.9111,2.024,1.9681,2.1593,2.3482,2.3556,2.4648,2.5586,2.5586,2.5567,2.5582,2.5684,2.5689,2.5689,2.5708,2.5352,2.5082,2.5063,2.4648,2.4352,2.4332,2.3984,2.375,2.375,2.3357,2.3091,2.3091,2.3091,2.3091,2.3091,2.3091,2.3091,2.3091,2.3091,2.3091,2.3091,2.3091,2.3091,2.3091,2.3091,2.3091,2.3091,2.3091,2.3091,2.3091,2.3091,2.3091,2.3091,2.3091,2.3091,2.3091,2.3091,2.3091,2.3149,2.3613,2.375,2.3828,2.4248,2.4362,2.4463,2.4926,2.5053,2.5151,2.5552,2.5679,2.5664,2.5684,2.5693,2.5693,2.5693,2.5693,2.5693,2.5693,2.5654,2.5615,2.5615,2.5342,2.5219,2.5581,2.5332,2.5229,2.5581,2.5659,2.5679,2.5679,2.5698,2.5693,2.5693,2.5693,2.5693,2.5693,2.5693,2.5698,2.5679,2.5679,2.5679,2.5679,2.5659,2.5645,2.5693,2.5669,2.5435,2.5053,2.5053,2.4814,2.4391,2.4391,2.4391,1.686,1.759,1.8148,1.8677,1.9467,2.0437,2.1542,2.2776,2.3939,2.4815,2.5382,2.5693,2.5693,2.5693,2.5693,2.5693,2.5693,2.5693,2.5693,2.5571,2.5391,2.5121,2.4955,2.4727,2.442,2.4277,2.4199,2.4199,2.3799,2.3555,2.3555,2.3269,2.3091,2.3091,2.3091,2.3091,2.3091,2.3091,2.3091,2.3091,2.3091,2.3091,2.3091,2.3091,2.3091,2.3091,2.3091,2.3091,2.3091,2.3091,2.3091,2.3091,2.3091,2.3091,2.3091,2.3091,2.3298,2.3574,2.374,2.3965,2.4268,2.4697,2.4857,2.4945,2.5361,2.5498,2.5503,2.5669,2.5693,2.5693,2.5693,2.5693,2.5693,2.5693,2.5693,2.5693,2.5693,2.5693,2.5693,2.5693,2.5581,2.5459,2.5332,2.541,2.5449,2.5322,2.5532,2.5693,2.5693,2.5693,2.5693,2.5693,2.5693,2.5693,2.5693,2.5693,2.5693,2.5693,2.5693,2.5693,2.5693,2.5693,2.5693,2.5693,2.5693,2.564,2.5498,2.5498,2.5396,2.524,2.524,2.524,1.7868,1.8563,1.9066,1.9587,2.0363,2.1365,2.2712,2.3621,2.4465,2.5475,2.5693,2.5693,2.5693,2.5693,2.5693,2.5693,2.5693,2.5693,2.5693,2.5693,2.5601,2.5332,2.5293,2.5176,2.4869,2.4703,2.4639,2.4639,2.4238,0.0,2.4004,2.3571,2.3269,2.3101,2.3091,2.3091,2.3091,2.3091,2.3091,2.3091,2.3091,2.3091,2.3091,2.3091,2.3091,2.3091,2.3091,2.3091,2.3091,2.3091,2.3091,2.3091,2.3091,2.3091,2.311,2.3279,2.3545,2.3828,2.4121,2.4404,2.4707,2.5156,2.5293,2.5352,2.562,2.5693,2.5693,2.5693,2.5693,2.5693,2.5693,2.5693,2.5693,2.5693,2.5693,2.5693,2.5693,2.5693,2.5693,2.5693,2.5693,2.562,2.5342,2.5513,2.561,2.5332,2.5523,2.5693,2.5693,2.5693,2.5693,2.5693,2.5693,2.5693,2.5693,2.5693,2.5693,2.5693,2.5693,2.5693,2.5693,2.5693,2.5693,2.5693,2.5693,2.5693,2.5693,2.5693,2.5693,2.5693,2.5693,2.5693,0.0,0.0,0.0,2.0628,2.1845,2.3127,2.3019,2.4054,2.519,2.5601,2.5689,2.5698,2.5693,2.5693,2.5693,2.5693,2.5693,2.5693,2.5693,2.5693,2.5693,2.5693,2.5693,2.5693,2.5693,2.5342,2.5112,2.5112,2.4678,2.441,2.441,2.4023,2.3584,2.311,2.3091,2.3091,2.3091,2.3091,2.3091,2.3091,2.3091,2.3091,2.3091,2.3091,2.3091,2.3091,2.3091,2.3091,2.3091,2.3091,2.3091,2.3091,2.3091,2.3101,2.3191,2.3633,2.3831,2.3968,2.4799,2.5102,2.518,2.5571,2.5693,2.5693,2.5693,2.5693,2.5693,2.5693,2.5693,2.5693,2.5693,2.5693,2.5693,2.5693,2.5693,2.5693,2.5693,2.5693,2.5693,2.5693,2.5693,2.5693,2.5693,2.5693,2.5693,2.5693,2.5693,2.5693,2.5693,2.5693,2.5693,2.5693,2.5693,2.5693,2.5693,2.5693,2.5693,2.5693,2.5693,2.5693,2.5693,2.5693,2.5693,2.5693,2.5693,2.5693,2.5693,2.5693,2.5693,2.5693,2.5693,2.5693,1.9772,0.0,0.0,0.0,0.0,0.0,2.3003,2.3667,2.4378,2.5098,2.5278,2.5352,2.565,2.5693,2.5693,2.5693,2.5693,2.5693,2.5693,2.5693,2.5693,2.5693,2.5693,2.5693,2.5693,2.5601,2.5532,0.0,2.5137,2.4916,2.4916,2.4189,2.3584,2.311,2.3091,2.3091,2.3091,2.3091,2.3091,2.3091,2.3091,2.3091,2.3091,2.3091,2.3091,2.3091,2.3091,2.3091,2.3091,2.3091,2.3091,2.3091,2.3091,2.3308,2.3623,2.374,2.4212,2.4769,2.5014,2.5283,2.5542,2.5645,2.5693,2.5693,2.5693,2.5693,2.5693,2.5693,2.5693,2.5693,2.5693,2.5693,2.5693,2.5693,2.5693,2.5693,2.5693,2.5693,2.5693,2.5693,2.5693,2.5693,2.5693,2.5693,2.5693,2.5693,2.5693,2.5693,2.5693,2.5693,2.5693,2.5693,2.5693,2.5693,2.5693,2.5693,2.5693,2.5693,2.5693,2.5693,2.5693,2.5693,2.5693,2.5693,2.5693,2.5693,2.5693,2.5693,2.5693,2.5693,2.5693,2.5693,0.0,0.0,0.0,0.0,0.0,0.0,2.292,2.334,2.3818,2.4877,2.5092,2.5229,2.563,2.5693,2.5693,2.5693,2.5693,2.5693,2.5693,2.5693,2.5693,2.5693,2.5693,2.5693,2.5693,2.5693,2.5693,2.5693,2.5474,2.5185,2.4814,2.4326,2.3747,2.311,2.3091,2.3091,2.3091,2.3091,2.3091,2.3091,2.3091,2.3091,2.3091,2.3091,2.3091,2.3091,2.3091,2.3091,2.3091,2.3091,2.3091,2.311,2.3318,2.3564,2.3828,2.4212,2.4662,2.5121,2.5283,2.5493,2.5693,2.5693,2.5693,2.5693,2.5693,2.5693,2.5693,2.5693,2.5693,2.5693,2.5693,2.5693,2.5693,2.5693,2.5693,2.5693,2.5693,2.5693,2.5693,2.5693,2.5693,2.5693,2.5693,2.5693,2.5693,2.5693,2.5693,2.5693,2.5693,2.5693,2.5693,2.5693,2.5693,2.5693,2.5693,2.5693,2.5693,2.5693,2.5693,2.5693,2.5693,2.5693,2.5693,2.5693,2.5693,2.5693,2.5693,2.5693,2.5693,2.5693,2.5693,2.5693,2.0468,2.0605,0.0,0.0,2.1122,0.0,2.2613,2.2925,2.3327,2.4623,2.4916,2.5082,2.5484,2.561,2.562,2.5547,2.565,2.5693,2.5693,2.5693,2.5728,2.5776,2.5786,2.5806,2.5854,2.5815,2.5786,2.5786,2.5713,2.5328,2.444,2.4391,2.4001,2.312,2.3091,2.3091,2.3091,2.3091,2.3091,2.3091,2.3091,2.3091,2.3091,2.3091,2.3091,2.3091,2.3091,2.3091,2.3091,2.3091,2.3091,2.314,2.3564,2.375,2.3887,2.4721,2.5053,2.516,2.5562,2.5693,2.5693,2.5693,2.5693,2.5693,2.5693,2.5693,2.5693,2.5693,2.5693,2.5693,2.5693,2.5693,2.5693,2.5693,2.5693,2.5693,2.5693,2.5693,2.5693,2.5693,2.5693,2.5693,2.5693,2.5693,2.5693,2.5693,2.5693,2.5693,2.5693,2.5693,2.5693,2.5693,2.5693,2.5693,2.5693,2.5693,2.5693,2.5693,2.5693,2.5693,2.5693,2.5693,2.5693,2.5693,2.5693,2.5693,2.5693,2.5693,2.5693,2.5693,2.5693,2.5693,2.0468,2.0605,2.0625,2.0693,0.0,0.0,2.1445,2.1854,2.2423,2.3362,2.3831,2.417,2.4576,2.4961,2.5078,2.4713,2.5249,2.5693,2.5693,2.5693,2.5845,2.6221,2.626,2.6396,2.6703,2.6455,2.626,2.626,2.5913,2.5328,2.444,2.4391,2.4001,2.312,2.3091,2.3091,2.3091,2.3091,2.3091,2.3091,2.3091,2.3091,2.3091,2.3091,2.3091,2.3091,2.3091,2.3091,2.3091,2.3091,2.3091,2.3101,2.3188,2.3464,2.3857,2.4355,2.4789,2.516,2.5562,2.5693,2.5693,2.5693,2.5693,2.5693,2.5693,2.5693,2.5693,2.5693,2.5693,2.5693,2.5693,2.5693,2.5693,2.5693,2.5693,2.5693,2.5693,2.5693,2.5693,2.5693,2.5693,2.5693,2.5693,2.5693,2.5693,2.5693,2.5693,2.5693,2.5693,2.5693,2.5693,2.5693,2.5693,2.5693,2.5693,2.5693,2.5693,2.5693,2.5693,2.5693,2.5693,2.5693,2.5693,2.5693,2.5693,2.5693,2.5693,2.5693,2.5693,2.5693,2.5693,2.5693,2.0546,2.0605,2.0605,2.0605,0.0,0.0,0.0,2.1728,2.2208,2.3284,2.3665,2.3916,2.4336,2.459,2.4746,2.4746,2.5117,2.5478,2.5679,2.5693,2.5874,2.6338,2.6387,2.6553,2.6947,2.6631,2.6299,2.6084,2.5835,2.5328,2.444,2.4391,2.4001,2.312,2.3091,2.3091,2.3091,2.3091,2.3091,2.3091,2.3091,2.3091,2.3091,2.3091,2.3091,2.3091,2.3091,2.3091,2.3091,2.3091,2.3091,2.312,2.3357,2.373,2.415,2.459,2.5019,2.5439,2.564,2.5693,2.5693,2.5693,2.5693,2.5693,2.5693,2.5693,2.5693,2.5693,2.5693,2.5693,2.5693,2.5693,2.5693,2.5693,2.5693,2.5693,2.5693,2.5693,2.5693,2.5693,2.5693,2.5693,2.5693,2.5693,2.5693,2.5693,2.5693,2.5693,2.5693,2.5693,2.5693,2.5693,2.5693,2.5693,2.5693,2.5693,2.5693,2.5693,2.5693,2.5693,2.5693,2.5693,2.5693,2.5693,2.5693,2.5693,2.5693,2.5693,2.5693,2.5693,2.5693,2.5693,0.0,0.0,0.0,0.0,0.0,2.0791,0.0,0.0,0.0,2.331,2.3603,2.3769,2.4088,2.4215,2.4385,2.4672,2.4857,2.5068,2.5406,2.5532,0.0,2.6353,2.6387,2.6553,2.6947,2.6631,2.6211,2.5747,2.5693,2.5367,2.459,2.444,2.404,2.3269,2.3162,2.3091,2.3091,2.3091,2.3091,2.3091,2.3091,2.3091,2.3091,2.3091,2.3091,2.3091,2.3091,2.3091,2.3091,2.3091,2.3091,2.313,2.3525,2.3926,2.4346,2.4809,2.5225,2.5601,2.5664,2.5693,2.5693,2.5693,2.5693,2.5693,2.5693,2.5693,2.5693,2.5693,2.5693,2.5693,2.5693,2.5693,2.5693,2.5693,2.5693,2.5693,2.5693,2.5693,2.5693,2.5693,2.5693,2.5693,2.5693,2.5693,2.5693,2.5693,2.5693,2.5693,2.5693,2.5693,2.5693,2.5693,2.5693,2.5693,2.5693,2.5693,2.5693,2.5693,2.5693,2.5693,2.5693,2.5693,2.5693,2.5693,2.5693,2.5693,2.5693,2.5693,2.5693,2.5693,2.5693,2.5693,0.0,0.0,0.0,0.0,2.0605,0.0,0.0,0.0,2.2031,2.2549,0.0,2.3179,2.3227,0.0,0.0,0.0,0.0,0.0,2.4537,2.4902,2.5473,2.6289,2.6387,2.6553,2.6947,2.6631,2.6211,2.5747,2.5693,2.5493,2.5043,2.4629,2.4199,2.373,2.3318,2.3091,2.3091,2.3091,2.3091,2.3091,2.3091,2.3091,2.3091,2.3091,2.3091,2.3091,2.3091,2.3091,2.3091,2.3091,2.3091,2.3101,2.3171,2.3454,2.3906,2.4336,2.4766,2.5229,2.5571,2.5693,2.5693,2.5693,2.5693,2.5693,2.5693,2.5693,2.5693,2.5693,2.5693,2.5693,2.5693,2.5693,2.5693,2.5693,2.5693,2.5693,2.5693,2.5693,2.5693,2.5693,2.5693,2.5693,2.5693,2.5693,2.5693,2.5693,2.5693,2.5693,2.5693,2.5693,2.5693,2.5693,2.5693,2.5693,2.5693,2.5693,2.5693,2.5693,2.5693,2.5693,2.5693,2.5693,2.5693,2.5693,2.5693,2.5693,2.5693,2.5693,2.5693,2.5693,2.5693,2.5693,0.0,0.0,0.0,0.0,0.0,0.0,2.1796,0.0,2.2373,0.0,0.0,0.0,0.0,0.0,0.0,0.0,2.3818,0.0,0.0,2.458,2.5107,2.625,0.0,0.0,2.6631,2.6494,2.6211,2.5747,2.5693,2.5513,2.5112,2.4916,2.4505,2.3809,2.3613,2.3376,2.3091,2.3091,2.3091,2.3091,2.3091,2.3091,2.3091,2.3091,2.3091,2.3091,2.3091,2.3091,2.3091,2.3091,2.3269,2.3516,2.3516,2.3779,2.4209,2.4639,2.5078,2.5478,2.565,2.5693,2.5693,2.5693,2.5693,2.5693,2.5693,2.5693,2.5693,2.5693,2.5693,2.5693,2.5693,2.5693,2.5693,2.5693,2.5693,2.5693,2.5693,2.5693,2.5693,2.5693,2.5693,2.5693,2.5693,2.5693,2.5693,2.5693,2.5693,2.5693,2.5693,2.5693,2.5693,2.5693,2.5693,2.5693,2.5693,2.5693,2.5693,2.5693,2.5693,2.5693,2.5693,2.5693,2.5693,2.5693,2.5693,2.5693,2.5693,2.5693,2.5693,2.5693,2.5693,2.5693,2.0732,0.0,0.0,0.0,0.0,0.0,0.0,0.0,0.0,0.0,0.0,0.0,0.0,0.0,0.0,0.0,0.0,2.3896,0.0,2.4248,0.0,0.0,0.0,0.0,0.0,2.6211,2.6084,2.5737,2.5693,2.5571,2.5273,2.516,2.4809,2.4183,2.3906,2.3633,2.3298,2.3149,2.3091,2.3091,2.3091,2.3091,2.3091,2.3091,2.3091,2.3091,2.3091,2.3091,2.311,2.3249,2.3484,2.3809,2.4053,2.4326,2.4639,2.4975,2.5352,2.5693,2.5693,2.5693,2.5693,2.5693,2.5693,2.5693,2.5693,2.5693,2.5693,2.5693,2.5693,2.5693,2.5693,2.5693,2.5693,2.5693,2.5693,2.5693,2.5693,2.5693,2.5693,2.5693,2.5693,2.5693,2.5693,2.5693,2.5693,2.5693,2.5693,2.5693,2.5693,2.5693,2.5693,2.5693,2.5693,2.5693,2.5693,2.5693,2.5693,2.5693,2.5693,2.5693,2.5693,2.5693,2.5693,2.5693,2.5693,2.5693,2.5693,2.5693,2.5693,2.5708,2.5581,2.5591,0.0,0.0,0.0,2.1758,0.0,0.0,0.0,0.0,2.2754,0.0,0.0,0.0,0.0,0.0,0.0,0.0,0.0,0.0,0.0,0.0,0.0,0.0,0.0,0.0,0.0,2.5713,2.5728,0.0,2.5693,2.5684,2.5689,2.5303,2.5082,2.5053,2.4242,2.3779,2.3792,2.3327,2.3091,2.3091,2.3091,2.3091,2.3091,2.3091,2.3091,2.3091,2.3091,2.3091,2.313,2.3594,2.3779,2.3867,2.473,2.5086,2.5072,2.5082,2.5352,2.5693,2.5693,2.5693,2.5693,2.5693,2.5693,2.5693,2.5693,2.5693,2.5693,2.5693,2.5693,2.5693,2.5693,2.5693,2.5693,2.5693,2.5693,2.5693,2.5693,2.5693,2.5693,2.5693,2.5693,2.5693,2.5693,2.5693,2.5693,2.5693,2.5693,2.5693,2.5693,2.5693,2.5693,2.5693,2.5693,2.5693,2.5693,2.5693,2.5693,2.5693,2.5693,2.5693,2.5693,2.5693,2.5693,2.5693,2.5693,2.5693,2.5693,2.5693,2.5693,2.5698,2.5293,2.5322,0.0,0.0,2.0987,2.172,0.0,0.0,0.0,0.0,0.0,0.0,0.0,0.0,0.0,0.0,0.0,0.0,0.0,0.0,0.0,0.0,0.0,0.0,0.0,0.0,0.0,0.0,0.0,2.5322,2.5542,0.0,2.5693,2.5571,2.5371,2.5102,2.4809,2.4388,2.3821,2.3643,2.3406,2.3091,2.3091,2.3091,2.3091,2.3091,2.3091,2.3091,2.3091,2.3091,2.313,2.3613,2.3955,2.4268,2.4867,2.5254,2.5508,2.5508,2.5581,2.5693,2.5693,2.5693,2.5693,2.5693,2.5693,2.5693,2.5693,2.5693,2.5693,2.5693,2.5693,2.5693,2.5693,2.5693,2.5693,2.5693,2.5693,2.5693,2.5693,2.5693,2.5693,2.5693,2.5693,2.5693,2.5693,2.5693,2.5693,2.5693,2.5693,2.5693,2.5693,2.5693,2.5693,2.5693,2.5693,2.5693,2.5693,2.5693,2.5693,2.5693,2.5693,2.5693,2.5693,2.5693,2.5693,2.5693,2.5693,2.5693,2.5693,2.5693,2.5562,2.5283,2.4844,2.4873,2.0781,2.0801,0.0,2.1729,2.2002,0.0,2.2957,0.0,2.3474,0.0,0.0,0.0,0.0,0.0,0.0,0.0,0.0,0.0,0.0,2.3789,0.0,0.0,0.0,0.0,0.0,2.5259,2.5249,2.5303,2.543,0.0,0.0,2.5693,2.5581,2.5312,2.517,2.4828,2.4271,2.3935,2.3652,2.3347,2.3169,2.3091,2.3091,2.3091,2.3091,2.3101,2.3279,2.3347,2.3396,2.4004,2.4427,2.4697,2.5137,2.5478,2.5693,2.5693,2.5693,2.5693,2.5693,2.5693,2.5693,2.5693,2.5693,2.5693,2.5693,2.5693,2.5693,2.5693,2.5693,2.5693,2.5693,2.5693,2.5693,2.5693,2.5693,2.5693,2.5693,2.5693,2.5693,2.5693,2.5693,2.5693,2.5693,2.5693,2.5693,2.5693,2.5693,2.5693,2.5693,2.5693,2.5693,2.5693,2.5693,2.5693,2.5693,2.5693,2.5693,2.5693,2.5693,2.5693,2.5693,2.5693,2.5693,2.5693,2.5693,2.564,2.5498,2.5498,2.5273,2.4848,2.4394,2.4346]},{"header":{"parameterUnit":"m.s-1","parameterCategory":1,"la1":30.6,"la2":29.2853,"lo1":-89.7004,"lo2":-87.6739,"dy":0.0162,"dx":0.0183,"nx":112,"ny":82,"refTime":"2026-05-10T12:00:00:Z","depth":0,"parameterNumber":3,"parameterNumberName":"V-component_of_WINDS"},"data":[0.0,0.0,0.0,0.0,0.0,0.0,0.0,0.0,0.0,0.0,0.0,0.0,0.0,0.0,0.0,0.0,0.0,0.0,0.0,0.0,0.0,0.0,0.0,0.0,0.0,0.0,0.0,0.0,0.0,0.0,0.0,0.0,0.0,0.0,0.0,0.0,0.0,0.0,0.0,0.0,0.0,0.0,0.0,0.0,0.0,0.0,0.0,0.0,0.0,0.0,0.0,0.0,0.0,0.0,0.0,0.0,0.0,0.0,0.0,0.0,0.0,0.0,0.0,0.0,0.0,0.0,0.0,0.0,0.0,0.0,0.0,0.0,0.0,0.0,0.0,0.0,0.0,0.0,0.0,0.0,0.0,0.0,0.0,0.0,0.0,0.0,0.0,0.0,0.0,0.0,1.4301,1.3433,1.1883,1.0643,1.0027,1.0191,1.0223,0.9989,0.0,0.0,0.0,0.0,0.0,0.0,0.0,0.0,0.0,0.0,0.0,0.0,0.0,0.0,0.0,0.0,0.0,0.0,0.0,0.0,0.0,0.0,0.0,0.0,0.0,0.0,0.0,0.0,0.0,0.0,0.0,0.0,0.0,0.0,0.0,0.0,0.0,0.0,0.0,0.0,0.0,0.0,0.0,0.0,0.0,0.0,0.0,0.0,0.0,0.0,0.0,0.0,0.0,0.0,0.0,0.0,0.0,0.0,0.0,0.0,0.0,0.0,0.0,0.0,0.0,0.0,0.0,0.0,0.0,0.0,0.0,0.0,0.0,0.0,0.0,0.0,0.0,0.0,0.0,0.0,0.0,0.0,0.0,0.0,0.0,0.0,0.0,0.0,0.0,0.0,0.0,0.0,0.0,0.0,0.0,0.0,0.0,0.0,0.0,0.0,0.0,0.0,0.0,0.0,1.3281,1.1529,1.1079,1.0739,1.036,1.0103,1.0084,1.0316,0.0,0.0,0.0,0.0,0.0,0.0,0.0,0.0,0.0,0.0,0.0,0.0,0.0,0.0,0.0,0.0,0.0,0.0,0.0,0.0,0.0,0.0,0.0,0.0,0.0,0.0,0.0,0.0,0.0,0.0,0.0,0.0,0.0,0.0,0.0,0.0,0.0,0.0,0.0,0.0,0.0,0.0,0.0,0.0,0.0,0.0,0.0,0.0,0.0,0.0,0.0,0.0,0.0,0.0,0.0,0.0,0.0,0.0,0.0,0.0,0.0,0.0,0.0,0.0,0.0,0.0,0.0,0.0,0.0,0.0,0.0,0.0,0.0,0.0,0.0,0.0,0.0,0.0,0.0,0.0,0.0,0.0,0.0,0.0,0.0,0.0,0.0,0.0,0.0,0.0,0.0,0.0,0.0,0.0,0.0,0.0,0.0,0.0,0.0,0.0,0.0,0.0,0.0,1.3983,1.3058,1.1113,1.0897,1.0685,1.0166,1.0147,1.016,1.0129,1.0534,0.0,0.0,0.0,0.0,0.0,0.0,0.0,0.0,0.0,0.0,0.0,0.0,0.0,0.0,0.0,0.0,0.0,0.0,0.0,0.0,0.0,0.0,0.0,0.0,0.0,0.0,0.0,0.0,0.0,0.0,0.0,0.0,0.0,0.0,0.0,0.0,0.0,0.0,0.0,0.0,0.0,0.0,0.0,0.0,0.0,0.0,0.0,0.0,0.0,0.0,0.0,0.0,0.0,0.0,0.0,0.0,0.0,0.0,0.0,0.0,0.0,0.0,0.0,0.0,0.0,0.0,0.0,0.0,0.0,0.0,0.0,0.0,0.0,0.0,0.0,0.0,0.0,0.0,0.0,0.0,0.0,0.0,0.0,0.0,0.0,0.0,0.0,0.0,0.0,0.0,0.0,0.0,0.0,0.0,0.0,0.0,0.0,0.0,0.0,0.0,0.0,0.0,1.3775,1.2965,1.1097,1.0897,1.0655,1.0072,1.0179,1.021,1.0034,1.0179,0.0,0.0,0.0,0.0,0.0,0.0,0.0,0.0,0.0,0.0,0.0,0.0,0.0,0.0,0.0,0.0,0.0,0.0,0.0,0.0,0.0,0.0,0.0,0.0,0.0,0.0,0.0,0.0,0.0,0.0,0.0,0.0,0.0,0.0,0.0,0.0,0.0,0.0,0.0,0.0,0.0,0.0,0.0,0.0,0.0,0.0,0.0,0.0,0.0,0.0,0.0,0.0,0.0,0.0,0.0,0.0,0.0,0.0,0.0,0.0,0.0,0.0,0.0,0.0,0.0,0.0,0.0,0.0,0.0,0.0,0.0,0.0,0.0,0.0,0.0,0.0,0.0,0.0,0.0,0.0,0.0,0.0,0.0,0.0,0.0,0.0,0.0,0.0,0.0,0.0,0.0,0.0,0.0,0.0,0.0,0.0,0.0,0.0,0.0,0.0,0.0,0.0,1.3718,1.2708,1.1065,1.0897,1.0745,1.0403,1.0091,1.0065,1.0347,1.0097,0.0,0.0,0.0,0.0,0.0,0.0,0.0,0.0,0.0,0.0,0.0,0.0,0.0,0.0,0.0,0.0,0.0,0.0,0.0,0.0,0.0,0.0,0.0,0.0,0.0,0.0,0.0,0.0,0.0,0.0,0.0,0.0,0.0,0.0,0.0,0.0,0.0,0.0,0.0,0.0,0.0,0.0,0.0,0.0,0.0,0.0,0.0,0.0,0.0,0.0,0.0,0.0,0.0,0.0,0.0,0.0,0.0,0.0,0.0,0.0,0.0,0.0,0.0,0.0,0.0,0.0,0.0,0.0,0.0,0.0,0.0,0.0,0.0,0.0,0.0,0.0,0.0,0.0,0.0,0.0,0.0,0.0,0.0,0.0,0.0,0.0,0.0,0.0,0.0,0.0,0.0,0.0,0.0,0.0,0.0,0.0,0.0,0.0,0.0,0.0,0.0,0.0,1.4079,1.3216,0.0,1.1144,1.0952,1.0439,1.0484,1.0398,1.011,0.0,0.0,0.0,0.0,0.0,0.0,0.0,0.0,0.0,0.0,0.0,0.0,0.0,0.0,0.0,0.0,0.0,0.0,0.0,0.0,0.0,0.0,0.0,0.0,0.0,0.0,0.0,0.0,0.0,0.0,0.0,0.0,0.0,0.0,0.0,0.0,0.0,0.0,0.0,0.0,0.0,0.0,0.0,0.0,0.0,0.0,0.0,0.0,0.0,0.0,0.0,0.0,0.0,0.0,0.0,0.0,0.0,0.0,0.0,0.0,0.0,0.0,0.0,0.0,0.0,0.0,0.0,0.0,0.0,0.0,0.0,0.0,0.0,0.0,0.0,0.0,0.0,0.0,0.0,0.0,0.0,0.0,0.0,0.0,0.0,0.0,0.0,0.0,0.0,0.0,0.0,0.0,0.0,0.0,0.0,0.0,0.0,0.0,0.0,0.0,0.0,0.0,1.48,1.4507,1.3672,0.0,1.1343,1.1095,1.0599,1.0777,1.0606,0.9906,0.0,0.0,0.0,0.0,0.0,0.0,0.0,0.0,0.0,0.0,0.0,0.0,0.0,0.0,0.0,0.0,0.0,0.0,0.0,0.0,0.0,0.0,0.0,0.0,0.0,0.0,0.0,0.0,0.0,0.0,0.0,0.0,0.0,0.0,0.0,0.0,0.0,0.0,0.0,0.0,0.0,0.0,0.0,0.0,0.0,0.0,0.0,0.0,0.0,0.0,0.0,0.0,0.0,0.0,0.0,0.0,0.0,0.0,0.0,0.0,0.0,0.0,0.0,0.0,0.0,0.0,0.0,0.0,0.0,0.0,0.0,0.0,0.0,0.0,0.0,0.0,0.0,0.0,0.0,0.0,0.0,0.0,0.0,0.0,0.0,0.0,0.0,0.0,0.0,0.0,0.0,0.0,0.0,0.0,0.0,0.0,0.0,0.0,0.0,0.0,0.0,0.0,1.5427,1.4973,1.4013,1.1932,1.1468,1.1202,1.0926,1.0908,1.0586,0.0,0.0,0.0,0.0,0.0,0.0,0.0,0.0,0.0,0.0,0.0,0.0,0.0,0.0,0.0,0.0,0.0,0.0,0.0,0.0,0.0,0.0,0.0,0.0,0.0,0.0,0.0,0.0,0.0,0.0,0.0,0.0,0.0,0.0,0.0,0.0,0.0,0.0,0.0,0.0,0.0,0.0,0.0,0.0,0.0,0.0,0.0,0.0,0.0,0.0,0.0,0.0,0.0,0.0,0.0,0.0,0.0,0.0,0.0,0.0,0.0,0.0,0.0,0.0,0.0,0.0,0.0,0.0,0.0,0.0,0.0,0.0,0.0,0.0,0.0,0.0,0.0,0.0,0.0,0.0,0.0,0.0,0.0,0.0,0.0,0.0,0.0,0.0,0.0,0.0,0.0,0.0,0.0,0.0,0.0,0.0,0.0,0.0,0.0,0.0,0.0,0.0,0.0,1.5427,1.4973,1.4089,1.2256,1.1813,1.1518,1.1207,1.1404,1.1159,1.0284,0.0,0.0,0.0,0.0,0.0,0.0,0.0,0.0,0.0,0.0,0.0,0.0,0.0,0.0,0.0,0.0,0.0,0.0,0.0,0.0,0.0,0.0,0.0,0.0,0.0,0.0,0.0,0.0,0.0,0.0,0.0,0.0,0.0,0.0,0.0,0.0,0.0,0.0,0.0,0.0,0.0,0.0,0.0,0.0,0.0,0.0,0.0,0.0,0.0,0.0,0.0,0.0,0.0,0.0,0.0,0.0,0.0,0.0,0.0,0.0,0.0,0.0,0.0,0.0,0.0,0.0,0.0,0.0,0.0,0.0,0.0,0.0,0.0,0.0,0.0,0.0,0.0,0.0,0.0,0.0,0.0,0.0,0.0,0.0,0.0,0.0,0.0,0.0,0.0,0.0,0.0,0.0,0.0,0.0,0.0,0.0,0.0,0.0,0.0,0.0,0.0,0.0,1.5979,1.5309,1.4395,1.2958,1.2302,1.1833,1.1529,1.1681,1.1442,1.0607,0.0,0.0,0.0,0.0,0.0,0.0,0.0,0.0,0.0,0.0,0.0,0.0,0.0,0.0,0.0,0.0,0.0,0.0,0.0,0.0,0.0,0.0,0.0,0.0,0.0,0.0,0.0,0.0,0.0,0.0,0.0,0.0,0.0,0.0,0.0,0.0,0.0,0.0,0.0,0.0,0.0,0.0,0.0,0.0,0.0,0.0,0.0,0.0,0.0,0.0,0.0,0.0,0.0,0.0,0.0,0.0,0.0,0.0,0.0,0.0,0.0,0.0,0.0,0.0,0.0,0.0,0.0,0.0,0.0,0.0,0.0,0.0,0.0,0.0,0.0,0.0,0.0,0.0,0.0,0.0,0.0,0.0,0.0,0.0,0.0,0.0,0.0,0.0,0.0,0.0,0.0,0.0,0.0,0.0,0.0,0.0,0.0,0.0,0.0,0.0,0.0,0.0,1.6693,1.5779,1.4796,1.3704,1.2764,1.2086,1.1811,1.1805,1.1507,1.0816,0.0,0.0,0.0,0.0,0.0,0.0,0.0,0.0,0.0,0.0,0.0,0.0,0.0,0.0,0.0,0.0,0.0,0.0,0.0,0.0,0.0,0.0,0.0,0.0,0.0,0.0,0.0,0.0,0.0,0.0,0.0,0.0,0.0,0.0,0.0,0.0,0.0,0.0,0.0,0.0,0.0,0.0,0.0,0.0,0.0,0.0,0.0,0.0,0.0,0.0,0.0,0.0,0.0,0.0,0.0,0.0,0.0,0.0,0.0,0.0,2.0263,0.0,0.0,0.0,0.0,0.0,0.0,0.0,0.0,0.0,0.0,0.0,0.0,0.0,0.0,0.0,0.0,0.0,0.0,0.0,0.0,0.0,0.0,0.0,0.0,0.0,0.0,0.0,0.0,0.0,0.0,0.0,0.0,0.0,0.0,0.0,0.0,0.0,0.0,0.0,0.0,0.0,1.6036,1.5452,1.4599,1.2992,1.2445,1.2086,1.1811,1.1805,1.1465,1.0685,1.0263,0.0,0.0,0.0,0.0,0.0,0.0,0.0,0.0,0.0,0.0,0.0,0.0,0.0,0.0,0.0,0.0,0.0,0.0,0.0,0.0,0.0,0.0,0.0,0.0,0.0,0.0,0.0,0.0,0.0,0.0,0.0,0.0,0.0,0.0,0.0,0.0,0.0,0.0,0.0,0.0,0.0,0.0,0.0,0.0,0.0,0.0,0.0,0.0,0.0,0.0,0.0,0.0,0.0,0.0,0.0,0.0,0.0,0.0,0.0,0.0,2.0225,0.0,0.0,0.0,0.0,0.0,0.0,0.0,0.0,0.0,0.0,0.0,0.0,0.0,0.0,0.0,0.0,0.0,0.0,0.0,0.0,0.0,0.0,0.0,0.0,0.0,0.0,0.0,0.0,0.0,0.0,0.0,0.0,0.0,0.0,0.0,0.0,0.0,0.0,0.0,0.0,1.6473,1.5783,1.4865,1.3467,1.2872,1.2324,1.1706,1.1666,1.1329,1.0553,1.0154,0.0,0.0,0.0,0.0,0.0,0.0,0.0,0.0,0.0,0.0,0.0,0.0,0.0,0.0,0.0,0.0,0.0,0.0,0.0,0.0,0.0,0.0,0.0,0.0,0.0,0.0,0.0,0.0,0.0,0.0,0.0,0.0,0.0,0.0,0.0,0.0,0.0,0.0,0.0,0.0,0.0,0.0,0.0,0.0,0.0,0.0,0.0,0.0,0.0,0.0,0.0,0.0,0.0,2.0124,2.0029,2.0005,1.989,1.9819,1.9802,1.9931,2.0018,2.0058,2.0174,0.0,0.0,0.0,0.0,0.0,0.0,0.0,0.0,0.0,0.0,0.0,0.0,0.0,0.0,0.0,0.0,0.0,0.0,0.0,0.0,0.0,0.0,0.0,0.0,2.0147,1.9905,0.0,0.0,0.0,0.0,0.0,0.0,0.0,0.0,0.0,0.0,0.0,0.0,1.7061,1.6075,1.5081,1.4072,1.3276,1.2463,1.1615,1.1429,1.1055,1.039,1.0164,1.027,0.0,0.0,0.0,0.0,0.0,0.0,0.0,0.0,0.0,0.0,0.0,0.0,0.0,0.0,0.0,0.0,0.0,0.0,0.0,0.0,0.0,0.0,0.0,0.0,0.0,0.0,0.0,0.0,0.0,0.0,0.0,0.0,2.0665,2.2235,0.0,0.0,0.0,0.0,0.0,0.0,0.0,0.0,0.0,0.0,0.0,0.0,0.0,2.1233,2.0308,2.0404,2.0404,2.0308,2.0275,2.0165,2.001,1.9971,1.9917,1.9802,1.9931,0.0,1.9833,1.9853,0.0,0.0,0.0,0.0,0.0,0.0,0.0,0.0,0.0,0.0,0.0,0.0,0.0,0.0,0.0,0.0,0.0,0.0,0.0,0.0,0.0,0.0,2.0368,1.9556,1.935,1.9301,0.0,1.9638,2.0152,2.0234,2.0117,0.0,0.0,0.0,0.0,0.0,0.0,0.0,1.6516,1.554,1.4517,1.3502,1.2585,1.1933,1.1692,1.1092,1.0542,1.0153,1.0005,1.0161,1.0672,1.0784,0.0,0.0,0.0,0.0,0.0,0.0,0.0,0.0,0.0,0.0,0.0,0.0,0.0,0.0,0.0,0.0,0.0,0.0,0.0,0.0,0.0,0.0,0.0,0.0,0.0,0.0,0.0,0.0,0.0,2.1062,2.2077,2.2803,2.2527,2.2265,0.0,0.0,0.0,0.0,0.0,0.0,0.0,0.0,0.0,2.2237,2.2237,2.2062,2.1716,2.1716,2.1466,2.0962,2.09,2.0556,2.0007,1.993,1.9855,1.9834,2.0386,2.0572,2.0543,2.0699,2.0712,2.0641,0.0,0.0,0.0,0.0,2.0004,2.0106,2.0153,2.0187,2.0196,2.03,0.0,0.0,0.0,0.0,0.0,0.0,0.0,0.0,0.0,0.0,2.0508,2.0076,1.9966,1.9914,1.9843,2.0082,2.0297,0.0,2.0233,2.0108,1.9943,0.0,0.0,0.0,0.0,1.7401,1.6562,1.5561,1.4579,1.3725,1.3176,1.2532,1.1715,1.1238,1.0625,0.9768,0.9728,0.9879,1.0176,1.1233,1.2207,0.0,0.0,0.0,0.0,0.0,0.0,0.0,0.0,0.0,0.0,0.0,0.0,0.0,0.0,0.0,0.0,0.0,0.0,0.0,0.0,0.0,0.0,0.0,0.0,0.0,0.0,0.0,0.0,2.2827,2.3288,2.3497,2.3285,2.3124,0.0,0.0,0.0,0.0,0.0,0.0,2.3447,2.3447,2.3353,2.3144,2.3124,2.3028,2.2797,2.2797,2.2468,2.1829,2.1725,2.134,2.0709,2.061,2.0562,2.06,2.1257,2.1664,2.1869,2.1756,2.165,2.1562,2.1562,2.1162,2.0562,2.028,2.0381,2.0647,2.0449,2.0537,2.0744,2.0881,2.0944,2.1055,2.1705,0.0,0.0,0.0,0.0,2.0858,2.0644,2.0605,2.0605,2.0605,2.0542,2.0483,2.0435,2.0354,2.0305,0.0,2.0308,2.0229,1.9986,0.0,0.0,0.0,0.0,1.7294,1.6744,1.558,1.4598,1.4047,1.3637,1.3015,1.2035,1.1686,1.1126,1.0227,1.0273,1.0404,1.0551,1.2108,1.2968,1.2973,0.0,0.0,0.0,0.0,0.0,0.0,0.0,0.0,0.0,0.0,0.0,0.0,0.0,0.0,0.0,0.0,0.0,0.0,0.0,0.0,0.0,0.0,0.0,0.0,0.0,0.0,0.0,0.0,0.0,2.5084,2.449,0.0,0.0,0.0,0.0,2.4031,2.4736,2.5171,2.5171,2.5171,2.481,2.405,2.4031,2.3646,2.2816,2.2797,2.2778,2.2737,2.2733,2.2692,2.2654,2.2647,2.2645,2.2645,2.2703,2.3186,2.3866,2.273,2.2265,2.2259,2.2259,2.2221,2.2101,2.1461,2.1743,2.2366,2.167,2.1979,2.2654,2.268,2.266,2.2682,2.2725,2.2798,0.0,0.0,2.1724,2.1564,2.08,2.0605,2.0605,2.0605,2.0542,2.0507,2.0506,2.0383,2.0305,0.0,2.0308,2.0203,1.9871,0.0,1.9685,1.935,1.7961,1.6928,1.6895,1.5346,1.4236,1.4182,1.3385,1.2851,1.2926,1.2394,1.2106,1.2237,1.2321,1.2445,1.2637,1.3465,1.3877,1.3745,1.4626,0.0,0.0,0.0,0.0,0.0,0.0,0.0,0.0,0.0,0.0,0.0,0.0,0.0,0.0,0.0,0.0,0.0,0.0,0.0,0.0,0.0,0.0,0.0,0.0,0.0,0.0,0.0,0.0,2.5277,2.506,0.0,2.4868,2.4868,2.4868,2.4868,2.5135,2.5305,2.5305,2.5305,2.5173,2.4887,2.4868,2.4714,2.4406,2.4406,2.4159,2.3646,2.3646,2.3336,2.2797,2.2797,2.2797,2.2836,2.3396,2.3819,2.4103,2.4185,2.3853,2.328,2.328,2.2951,2.2445,2.2073,2.2214,2.2568,2.2304,2.2417,2.27,2.2773,2.3182,2.3646,2.3646,2.3686,2.3681,2.3393,2.262,2.1794,2.1504,2.1016,2.0605,2.0605,2.0585,2.0542,2.0511,2.043,2.0204,1.9646,1.9484,1.9607,2.0049,1.9489,1.9113,1.956,1.8067,1.6905,1.6905,1.5431,1.439,1.439,1.3982,1.3597,1.3337,1.3019,1.2734,1.2542,1.255,1.2624,1.2725,1.3558,1.4222,1.4697,1.5386,1.5956,0.0,0.0,0.0,0.0,0.0,0.0,0.0,0.0,0.0,0.0,0.0,0.0,0.0,0.0,0.0,0.0,0.0,0.0,0.0,0.0,0.0,0.0,0.0,0.0,0.0,2.5105,2.5427,2.5362,2.5359,2.5333,2.533,2.5313,2.5305,2.5305,2.5305,2.5305,2.5305,2.5305,2.5305,2.5305,2.5305,2.5305,2.5305,2.5305,2.5022,2.4507,2.4507,2.4199,2.3639,2.3639,2.3639,2.3678,2.4257,2.4507,2.4546,2.5077,2.49,2.4315,2.4315,2.3989,2.3459,2.3067,2.3166,2.3505,2.3505,2.3505,2.354,2.3616,2.4056,2.4536,2.4531,2.4589,2.4574,2.4301,2.3293,2.2244,2.1973,2.125,2.0605,2.0605,2.0605,2.0585,2.0513,2.0442,2.0141,1.9264,1.9048,1.9164,1.9704,1.9061,1.878,1.9619,1.8113,1.6905,1.6905,1.5499,1.449,1.449,1.4381,1.4188,1.3928,1.3811,1.3679,1.3468,1.3747,1.3945,1.401,1.4803,1.5488,1.5998,1.6318,1.6722,1.7264,0.0,0.0,0.0,0.0,0.0,0.0,0.0,0.0,0.0,0.0,0.0,0.0,0.0,0.0,0.0,0.0,0.0,0.0,0.0,0.0,0.0,0.0,0.0,2.5805,2.5533,2.5532,2.5491,2.5449,2.5394,2.5404,2.5348,2.5317,2.5317,2.5317,2.5317,2.5332,2.5356,2.5334,2.5344,2.5349,2.5329,2.5305,2.5291,2.5291,2.5305,2.5296,2.5317,2.5293,2.5317,2.5317,2.5317,2.5317,2.5317,2.5317,2.5317,2.5317,2.5317,2.531,2.5305,2.5212,2.4413,2.4623,2.5305,2.5291,2.5293,2.5293,2.5317,2.5346,2.5395,2.5406,2.5452,2.5349,2.4555,2.3764,2.2951,2.2148,2.1289,2.0625,2.0605,2.0605,2.0585,2.0512,2.044,2.0139,1.9264,1.9053,1.896,1.8824,1.8638,1.8746,1.9489,1.8053,0.0,1.6905,1.5499,1.449,1.449,1.449,1.4561,1.4681,1.482,1.4966,1.5094,1.5984,1.6532,1.6609,1.7315,1.7682,1.7642,1.7404,1.7277,1.7234,0.0,0.0,0.0,0.0,0.0,0.0,0.0,0.0,0.0,0.0,0.0,0.0,0.0,0.0,0.0,0.0,0.0,0.0,0.0,0.0,0.0,2.8144,2.7889,2.6689,2.6525,2.6259,2.5575,2.5475,2.5463,2.5461,2.5461,2.5449,2.5449,2.5449,2.5709,2.6288,2.6368,2.6345,2.6258,2.6294,2.599,2.5308,2.5344,2.5342,2.5308,2.5402,2.5416,2.537,2.542,2.5449,2.5449,2.5449,2.5449,2.5449,2.5449,2.5449,2.5436,2.5341,2.5305,2.5267,2.506,2.5115,2.532,2.5367,2.5375,2.5389,2.5426,2.5464,2.5463,2.5461,2.5526,2.553,2.5305,2.4658,2.3846,2.2988,2.2168,2.1367,2.0696,2.0537,2.0511,2.0439,2.0368,2.0084,1.9253,1.9053,1.8984,1.8953,1.8705,1.8786,1.9615,1.812,0.0,1.6905,1.5499,1.449,1.449,1.449,1.46,1.4839,1.4884,1.4997,1.5229,1.6033,1.6543,1.6674,1.7375,1.8,1.8463,1.8976,1.89,0.0,0.0,0.0,0.0,0.0,0.0,0.0,0.0,0.0,0.0,0.0,0.0,0.0,0.0,0.0,0.0,0.0,0.0,0.0,0.0,0.0,0.0,2.9141,2.9062,2.8158,2.7395,2.6746,2.6182,2.5774,2.5683,2.6055,2.6054,2.6039,2.6039,2.6373,2.6627,2.6748,2.7132,2.7314,2.7222,2.7278,2.7029,2.6484,2.6501,2.6501,2.6465,2.655,2.6569,2.6529,2.6199,2.6039,2.602,2.5667,2.5706,2.6039,2.6039,2.6039,0.0,0.0,0.0,0.0,0.0,2.5379,2.5389,2.5423,2.5441,2.545,2.5497,2.5528,2.5546,2.5546,2.5595,2.5636,2.5636,2.5037,2.4277,2.3747,2.3003,2.2179,2.1235,2.0991,2.0883,2.0443,2.0322,2.005,1.9228,1.9314,0.0,1.8989,1.8674,1.8778,1.9582,1.84,1.7275,1.6942,1.5796,1.4908,1.4605,1.4573,1.4671,1.4919,1.4937,0.0,0.0,0.0,1.7402,1.8228,1.8627,0.0,0.0,0.0,0.0,0.0,0.0,0.0,0.0,1.9928,2.0457,0.0,0.0,0.0,0.0,0.0,0.0,0.0,0.0,0.0,0.0,0.0,0.0,0.0,0.0,0.0,0.0,3.0391,3.0625,2.9863,2.832,2.7266,2.7168,2.6419,2.6212,2.6975,2.7006,2.6961,2.6961,2.7685,2.7819,2.7146,0.0,0.0,0.0,0.0,2.8202,2.8098,2.8104,2.8104,2.8098,2.8111,2.8113,2.8088,2.7311,2.6961,2.6921,2.6157,2.6256,2.6961,2.6961,2.6961,2.6881,2.5987,2.5648,2.5667,2.5766,2.5785,2.5786,2.5793,0.0,0.0,2.5705,2.5718,2.5743,2.5645,2.5659,2.5703,2.5683,2.5136,2.449,2.4333,2.3758,2.2986,2.206,2.183,2.1582,2.0642,2.043,2.018,1.9316,1.9746,1.9988,1.9064,1.876,1.8861,1.9501,1.8733,1.7814,1.6997,1.6203,1.5437,1.4743,0.0,0.0,1.4979,1.5005,1.5087,1.5289,1.6899,1.8553,2.0206,2.0283,2.0319,2.031,2.0216,2.0165,2.0165,2.101,2.1393,2.1314,2.1982,2.1963,0.0,0.0,0.0,0.0,0.0,0.0,0.0,0.0,0.0,0.0,0.0,0.0,0.0,0.0,0.0,3.0527,3.0781,3.084,3.0664,2.9746,2.8848,2.8125,2.789,2.7831,2.8007,2.8025,2.8004,2.8004,2.8161,2.8467,2.8949,2.9188,2.9259,2.9159,2.9208,2.8862,2.8117,2.8157,2.8157,2.8099,0.0,0.0,2.8173,2.8058,2.8004,2.8004,2.7829,2.7848,2.8004,2.8004,2.8004,2.7905,2.6936,2.6549,2.6628,2.7334,2.7607,2.7595,2.7653,2.7684,2.7571,2.6926,2.6717,2.6601,2.5898,2.5683,0.0,2.5635,2.5492,2.5193,2.4426,2.4098,2.3751,2.2883,2.2669,2.2416,2.1477,2.1263,2.1026,2.0217,2.005,1.9964,1.9669,1.9578,1.9562,1.9597,1.8733,1.7814,1.6997,1.6203,1.5395,1.4628,1.4635,1.4768,1.4907,1.4964,1.5087,1.5289,1.6964,1.8396,1.9386,2.0049,2.0369,2.0291,2.0901,2.1204,2.1204,2.2767,2.316,2.246,2.2343,2.2561,0.0,0.0,0.0,0.0,0.0,0.0,0.0,0.0,0.0,0.0,0.0,3.0254,3.0254,0.0,3.1367,3.0976,3.1269,3.1406,3.0957,3.0527,2.9922,2.9043,2.8574,2.8476,2.8906,2.8945,2.8945,2.8945,2.9355,2.9589,2.9544,2.9999,3.0212,3.0151,3.0185,2.9972,2.9511,2.9522,2.9522,2.9491,2.9568,2.9589,2.9546,2.9121,2.8945,2.8926,2.8496,2.8555,2.8945,2.8945,2.8945,2.8906,2.8406,2.7928,2.7595,2.8045,2.8201,2.8203,2.8234,2.8256,2.8179,2.7773,2.7656,2.7558,2.7085,2.6653,2.6298,2.6223,2.59,2.5423,2.4927,2.481,2.4575,2.3707,2.3506,2.3243,2.2344,2.2067,2.1768,2.0952,2.0638,2.0323,1.9788,1.9704,1.9647,1.9485,1.9026,1.8408,1.759,1.6859,1.613,1.5389,1.5038,1.4898,1.5034,1.5111,1.5381,1.5919,1.7212,1.8339,1.9214,2.0013,2.0423,2.0346,2.1168,2.1577,2.1554,2.3324,2.3985,2.3558,2.3798,2.3871,0.0,0.0,0.0,0.0,0.0,0.0,0.0,3.2181,3.1348,3.2051,3.207,3.1777,3.125,3.2266,3.2773,3.1582,3.1836,3.1953,3.125,3.0976,3.0604,2.9901,2.9219,2.9082,2.9785,2.9824,2.9803,2.9803,3.0446,3.0542,2.9839,3.0464,3.0835,3.0835,3.0835,3.0835,3.0835,3.0835,3.0835,3.0835,3.0835,3.0835,3.0816,3.0113,2.9781,2.9761,2.9058,2.9155,2.9781,2.9781,2.9781,2.9781,2.9781,2.937,2.8746,2.8789,2.8789,2.8768,2.8768,2.8767,2.8726,2.855,2.8491,2.8469,2.8249,2.7694,2.7082,2.6859,2.6278,2.5685,2.5444,2.5379,2.5205,2.4496,2.4336,2.4105,2.324,2.2898,2.2503,2.1697,2.1224,2.0721,1.9967,1.9673,1.9492,1.932,1.9297,1.8999,1.8203,1.7485,1.6803,1.613,1.5418,1.5105,1.5435,1.5493,1.5904,1.6784,1.7665,1.8487,1.9257,2.0071,2.0555,2.0679,2.1529,2.2011,2.2138,2.3745,2.4525,2.4544,2.5201,2.5081,2.95,2.9851,3.0614,3.1512,3.1867,3.2239,0.0,3.265,3.207,3.2187,3.1582,3.125,3.1934,3.2207,3.2519,3.3027,3.2598,3.2168,3.207,3.1282,3.0681,3.0584,3.0602,3.0644,3.0742,3.0656,3.0584,3.0584,3.0604,3.059,3.0492,3.059,3.0629,3.0629,3.0629,3.0629,3.0629,3.0629,3.0629,3.0629,3.0629,3.0629,3.0629,3.0531,3.0492,3.0472,3.0394,3.0394,3.0492,3.0492,3.0492,3.0492,3.0492,3.0433,3.0369,3.0541,3.0523,3.0427,3.0427,3.0383,3.0218,2.9434,2.9199,2.904,2.8327,2.8031,2.7783,2.6948,2.6631,2.6378,2.5535,2.531,2.5286,2.5195,2.5173,2.4945,2.4127,2.3806,2.3407,2.2538,2.1529,2.0784,2.0688,1.9922,1.9324,1.9301,1.9297,1.8999,1.8203,1.7406,1.6663,1.5984,1.5327,1.5296,1.6261,1.6361,1.6746,1.7616,1.8539,1.9102,1.9202,2.0037,2.0858,2.1637,2.244,2.3234,2.3993,2.4928,2.5375,2.5375,2.5452,2.5445,3.0142,3.0866,3.1631,3.1891,3.2048,3.2339,3.3179,3.2362,3.1582,3.2109,3.1914,3.1777,3.2129,3.3008,3.3593,3.3388,3.3056,3.2641,3.2109,3.123,3.065,3.065,3.1135,3.1284,3.076,3.0664,3.065,3.065,3.0623,3.0604,3.0604,3.0604,3.0604,3.0604,3.0604,3.0604,3.0604,3.0604,3.0604,3.0604,3.0604,3.0604,3.0604,3.0604,3.0604,3.0604,3.0604,3.0604,3.0604,3.0604,3.0604,3.0604,3.0604,3.0604,3.0611,3.0687,3.0689,3.065,3.065,3.0611,3.0544,3.0172,3.0055,2.9988,2.9601,2.9138,2.8654,2.8215,2.739,2.6627,2.6591,2.5851,2.5222,2.5606,2.5346,2.4924,2.4581,2.4348,2.3963,2.3127,2.2491,2.1927,2.1459,2.0612,2.017,2.0674,1.9921,1.9187,1.8834,1.8156,1.7281,1.6193,1.5851,1.5922,1.6457,1.6939,1.7375,1.7773,1.8688,1.9202,1.9197,2.0566,2.1478,2.1798,2.3129,2.3983,2.4357,2.5212,2.5628,2.5628,2.5628,2.5882,3.0591,3.1285,3.1875,3.2022,3.2125,3.2402,3.3223,3.2285,3.1504,3.2322,3.2302,3.2281,3.2744,3.3837,3.4494,3.4049,3.3562,3.3044,3.234,3.1497,3.0937,3.0937,3.1666,3.194,3.1301,3.1058,3.0821,3.0589,3.0565,3.0548,3.0548,3.0548,3.0665,3.0896,3.0896,3.1012,3.1224,3.1224,3.1224,3.1224,3.1224,3.1129,3.0896,3.0645,3.0548,3.0548,3.0548,3.0684,3.0896,3.0896,3.1032,3.1224,3.1224,3.1224,3.1224,3.1224,3.0953,3.057,3.057,3.0553,3.0548,3.0548,3.0548,3.0535,3.0493,3.0023,2.9465,2.9176,2.8239,2.7314,2.7465,2.661,2.5733,2.594,2.5544,2.5073,2.4857,2.4639,2.4336,2.3743,2.329,2.2809,2.223,2.1418,2.1065,2.1702,2.056,1.9624,1.9624,1.8843,1.7828,1.6579,1.6515,1.673,1.7107,1.7674,1.8133,1.8475,1.9128,1.9492,1.95,2.1018,2.1932,2.2145,2.3613,2.4492,2.4757,2.539,2.5703,2.5703,2.5936,2.6365,3.0898,3.0918,3.1133,3.1973,3.2207,3.2402,3.3223,3.2754,3.2362,3.3117,3.258,3.2506,3.4122,3.4479,3.4752,3.5494,3.4268,3.3197,3.3155,3.2355,3.1762,3.1762,3.2417,3.2868,3.2827,3.2187,3.1413,3.0563,3.0443,3.0418,3.0418,3.0418,3.0784,3.1634,3.1672,3.2038,3.2827,3.2827,3.2827,3.2827,3.2827,3.2422,3.1634,3.0784,3.0418,3.0418,3.0418,3.088,3.1672,3.1672,3.2134,3.2827,3.2827,3.2827,3.2827,3.2827,3.1841,3.0505,3.0505,3.0462,3.0418,3.0418,3.0418,3.0416,3.0393,3.0371,3.0198,2.9338,2.9069,2.8782,2.7774,2.7457,2.7181,2.6224,2.5981,2.5748,2.4963,2.4639,2.4485,2.4466,2.366,2.2988,2.2969,2.2281,2.1776,2.1798,2.1033,2.0452,2.0452,1.9205,1.7978,1.7154,1.7191,1.7674,1.8654,1.8742,1.9177,2.0152,2.0247,2.0276,2.0277,2.1195,2.213,2.3031,2.3886,2.4756,2.5664,2.5684,2.5703,2.5723,2.6509,2.6884,3.1601,3.1348,3.1093,3.1867,3.1629,3.1253,3.148,3.1335,3.1367,3.2198,3.2133,3.2455,3.4182,3.451,3.4743,3.5512,3.4686,3.3901,3.3873,3.3081,3.2526,3.2526,3.3252,3.3548,3.2968,0.0,0.0,3.2102,3.2072,3.2061,3.2061,3.2061,3.2195,3.2487,3.2506,3.2622,3.2891,3.2891,3.2891,3.2891,3.2891,3.2756,3.2487,3.2195,3.2061,3.2061,3.2061,3.2237,3.2506,3.2506,3.266,3.2891,3.2891,3.2891,3.2891,3.2891,3.2559,3.2083,3.2083,3.1721,3.1253,3.1253,3.0865,3.0404,3.0404,3.0404,3.0303,2.9829,2.9301,2.8887,2.8789,2.7932,2.7121,2.718,2.639,2.5528,2.5259,2.5139,2.493,2.4395,2.4454,2.4415,2.3896,2.3125,2.2428,2.1886,2.1555,2.1143,2.0562,1.9592,1.8895,1.8707,1.8292,1.8245,1.8759,1.9829,2.0418,2.0302,2.1384,2.1777,2.1198,2.2589,2.3507,2.3821,2.466,2.5255,2.5563,2.5563,2.5853,2.6432,2.6706,2.7436,3.1519,3.1456,3.1365,3.1847,3.1779,3.1571,3.1544,3.1532,3.1756,3.2592,3.2757,3.3194,3.4595,3.486,3.5008,3.5485,3.4836,3.4361,3.4639,3.391,3.3487,3.3792,3.4314,3.4449,3.3888,3.383,0.0,3.2949,3.2891,3.2891,3.2891,3.2891,3.3045,3.3356,3.3356,3.3506,3.383,3.3728,3.3638,3.3544,3.3234,3.3081,3.3062,3.2756,3.2603,3.2603,3.2603,3.2795,3.3081,3.3081,3.3253,3.3544,3.3544,3.3544,3.3544,3.3544,3.3544,3.349,3.3057,3.2564,3.2122,3.2122,3.1485,3.0721,3.0721,3.0445,3.0117,2.9931,2.9517,2.915,2.9344,2.8597,2.7797,2.7803,2.7008,2.6182,2.5888,2.5828,2.5681,2.5162,2.5479,2.5571,2.4764,2.3951,2.3157,2.2359,2.2469,2.2249,2.1102,2.0505,2.0232,2.0303,1.9907,1.9706,1.9912,2.0926,2.142,2.111,2.2135,2.2537,2.2058,2.3395,2.4175,2.4204,2.5024,2.5621,2.5952,2.5952,2.6415,2.7261,2.7524,2.8231,3.0739,3.1315,3.1918,3.1954,3.2571,3.3188,3.3183,3.3183,3.3408,3.4132,3.43,3.453,3.5354,3.5538,3.5558,3.5558,3.4891,3.4683,3.55,3.4911,3.4696,3.5505,3.5602,3.5595,3.5584,3.5546,0.0,3.3243,0.0,3.3013,3.3013,3.3003,3.3384,3.4253,3.4253,3.4634,3.5507,3.5226,3.4954,3.4694,3.3858,3.3471,3.3433,3.2613,3.2232,3.2232,3.2232,3.2707,3.3471,3.3471,3.3957,3.4694,3.4694,3.4694,3.4694,3.4694,3.4694,3.4537,3.3386,3.2958,3.292,3.292,3.2213,3.1337,3.1283,3.0567,2.9757,2.9706,2.9683,2.9629,2.9434,2.9382,2.9116,2.8097,2.7829,2.7591,2.6827,2.6662,2.6644,2.6607,2.6607,2.6337,2.554,2.4768,2.3988,2.3171,2.3712,2.3625,2.2051,2.1867,2.1867,2.1867,2.1812,2.1852,2.1993,2.2046,2.2199,2.2464,2.2568,2.2701,2.2839,2.3699,2.4201,2.4323,2.5077,2.5925,2.6865,2.6865,2.7309,2.8178,2.8869,2.9231,3.1412,3.1747,3.2043,3.2642,3.2921,3.304,3.2987,3.2985,3.3205,3.4057,3.4221,3.4498,3.5334,3.5981,3.6385,3.6385,3.6757,3.7103,3.7334,3.7161,3.7026,3.6988,3.6986,3.6907,3.6718,3.6149,0.0,0.0,3.5104,3.4534,3.4534,3.4352,3.4614,3.5439,3.4884,3.4979,3.578,3.5144,3.4759,3.4694,3.4481,3.4363,3.4363,3.4137,3.4038,3.4038,3.4038,3.4156,3.4363,3.4363,3.45,3.4694,3.4694,3.4694,3.4694,3.4694,3.4694,3.4658,3.4344,3.3813,3.3268,3.3268,3.2655,3.1773,3.1177,3.0816,3.0447,2.9686,2.9488,2.9424,2.916,2.91,2.9028,2.8771,2.8246,2.7737,2.7535,2.7493,2.731,2.6717,2.6607,2.6337,2.554,2.5232,2.4824,2.4025,2.4061,2.3841,2.2827,2.2699,2.2699,2.2699,2.2157,2.1852,2.1993,2.2594,2.2776,2.2318,2.3584,2.412,2.3561,2.447,2.5308,2.5976,2.6188,2.6723,2.7619,2.7619,2.8041,2.8852,2.9034,2.9825,3.2241,3.2643,3.3011,3.3475,3.3832,3.4084,3.4042,3.4042,3.4176,3.468,3.4776,3.493,3.5404,3.6154,3.6696,3.6696,3.731,3.7903,3.8301,3.7925,3.7666,3.7825,3.7535,3.7274,3.7116,3.6683,3.6607,3.7062,3.6085,3.5448,3.5448,3.5642,3.58,3.5899,3.58,3.5905,3.6246,3.5081,3.4607,3.4837,3.4837,3.4657,3.4327,3.5067,3.5192,3.4856,0.0,3.5192,3.4856,3.5248,3.4974,3.4351,3.4694,3.4619,3.4314,3.4314,3.4314,3.4314,3.4314,3.3979,3.3616,3.3876,3.3306,3.2415,3.197,3.1495,3.099,3.0448,3.0274,3.0235,3.0086,3.0057,2.9965,2.9616,2.9176,2.876,2.8393,2.8338,2.8185,2.7745,2.7378,2.6979,2.6531,2.6164,2.5773,2.5328,2.5254,2.5084,2.4644,2.4277,2.4043,2.4043,2.3974,2.3796,2.3522,2.427,2.4451,2.3779,2.5054,2.5668,2.5307,2.5923,2.649,2.6994,2.7105,2.7585,2.8434,2.8434,2.8854,2.9679,3.0063,3.0775,3.2962,3.3585,3.4205,3.4205,3.4853,3.5493,3.5469,3.5446,3.5439,3.5391,3.5387,3.5387,3.5387,3.6043,3.665,3.6791,3.7305,3.7994,3.8842,3.8116,3.7715,3.8325,3.7794,3.7351,3.7324,3.723,3.7192,3.7299,3.6577,3.6084,3.601,3.6626,3.6665,3.5974,3.6735,3.6999,3.6656,3.5219,3.4703,3.5169,3.5169,3.4809,3.4174,3.5649,3.5899,3.5199,3.5973,3.5874,3.5224,3.5991,3.544,3.4192,3.4894,3.4754,3.4137,3.4137,3.4064,3.3972,3.3972,3.3899,3.3895,3.4416,3.3911,3.3093,3.2982,3.2298,3.1537,3.1433,3.139,3.139,3.139,3.1323,3.106,3.0375,3.0118,2.9855,2.9152,2.8999,2.8999,2.8999,2.8442,2.7939,2.7829,2.7218,2.6717,2.6625,2.6607,2.6607,2.6607,2.5993,2.5558,2.5558,2.6085,2.619,2.5613,2.6098,2.6259,2.5843,2.6493,2.6971,2.7159,2.7346,2.7511,2.7629,2.785,2.8369,2.9175,2.9175,2.9614,3.0487,3.1242,3.1703,3.2903,3.3548,3.4205,3.4205,3.4853,3.5442,3.5219,3.5178,3.5105,3.487,3.4846,3.4846,3.4846,3.5505,3.6345,3.7289,3.8134,3.8946,3.9757,3.9694,3.9437,3.9013,3.8849,3.8667,3.8438,3.7815,0.0,0.0,3.7686,3.7023,3.6584,3.647,3.6376,3.6235,3.701,3.7086,3.6377,3.6083,3.5981,3.6064,3.6064,3.5991,3.5881,3.6163,3.6218,3.6083,3.6229,0.0,3.6083,3.6229,3.6119,3.5881,3.6028,3.5991,3.587,3.587,3.5415,3.4784,3.4784,3.4369,3.3809,3.3915,3.3817,3.3544,3.2881,3.2542,3.2259,3.1592,3.139,3.139,3.139,3.0913,3.0375,3.0228,2.969,2.917,2.9023,2.8999,2.8999,2.8999,2.8895,2.8583,2.7915,2.7682,2.7365,2.6699,2.6607,2.6607,2.6607,2.6479,2.6392,2.6392,2.592,2.581,2.6355,2.5902,2.5849,2.6412,2.6737,2.6921,2.6958,2.7159,2.756,2.8237,2.8296,2.8732,2.9592,2.9592,3.0023,3.0825,3.0961,3.1771,3.4074,3.4354,3.4638,3.4507,3.4764,3.5057,3.4926,3.4898,3.4865,3.4738,3.4694,3.4694,3.4694,3.5351,3.6068,3.6639,3.7655,3.8516,3.8895,3.9194,3.9261,3.8923,3.888,3.8844,3.8704,3.834,3.8285,3.8663,3.834,3.7835,3.7158,3.6992,3.7118,3.7533,3.7529,3.7529,3.7551,3.6725,3.6512,3.6916,3.6916,3.6714,3.6328,3.7165,3.732,3.6953,3.7375,3.7312,3.6953,3.7386,3.7055,3.6347,3.6751,3.6677,3.631,3.631,3.6046,3.5672,3.5672,3.514,3.4417,3.4417,3.413,3.3733,3.3341,3.3213,3.3146,3.2767,3.2657,3.2657,3.2657,3.2357,3.1971,3.1543,3.0516,2.95,2.9097,2.8999,2.8999,2.8999,2.8999,2.8877,2.8497,2.8424,2.8295,2.7904,2.7849,2.7849,2.7849,2.7849,2.769,2.7273,2.6875,2.6806,2.7181,2.7255,2.7255,2.7236,2.7711,2.7996,2.7996,2.8211,2.8535,2.8905,2.9437,2.9913,3.0333,3.0743,3.1153,3.1539,3.1996,3.2623,3.5075,3.5008,3.4963,3.4744,3.4694,3.4679,3.4617,3.4588,3.4585,3.4526,3.4516,3.4516,3.4516,3.502,3.5598,3.5996,3.6955,3.7752,3.8106,3.8675,3.8964,3.8733,3.8854,3.8891,3.8718,3.8699,0.0,3.8699,3.8699,3.8414,3.7779,3.776,3.8054,3.8689,3.8091,3.8054,3.8681,3.7441,3.7136,3.776,3.776,3.743,3.6853,3.812,3.8358,3.7779,3.8432,3.834,3.7815,3.8432,3.7955,3.6879,3.7503,3.7375,3.6798,3.6798,3.6714,3.6567,3.6567,3.6009,3.5261,3.5052,3.4461,3.3807,3.3807,3.3807,3.3807,3.3807,3.3807,3.3807,3.3807,3.3678,3.3348,3.2534,3.1384,3.0283,2.9647,2.95,2.9464,2.9299,2.9191,2.907,2.89,2.8809,2.8767,2.8767,2.8767,2.8767,2.8767,2.8681,2.843,2.7985,2.784,2.7866,2.8044,2.8479,2.8552,2.8081,2.8644,2.8999,2.8999,2.9359,2.9575,2.9575,3.0521,3.1014,3.1014,3.1641,3.2049,3.2212,3.2916,3.3315,3.4734,3.4748,3.4724,3.4718,3.4694,3.4627,3.4323,3.4259,3.4177,3.3928,3.3888,3.3888,3.3888,3.3943,3.4577,3.6342,3.6733,3.733,3.8777,3.9653,3.9795,3.8819,3.9331,3.9496,3.8781,3.8699,3.8699,3.8699,3.8699,3.8663,3.8589,3.8597,3.8608,3.8699,3.8634,3.8634,3.8699,3.856,3.8524,3.8597,3.8597,3.856,3.8479,3.8634,3.867,3.8589,3.8663,3.867,0.0,3.8663,3.8608,3.8487,3.856,3.8534,3.8479,3.8479,3.8017,3.7382,3.7382,3.6861,3.6046,3.5261,3.4461,3.3807,3.3807,3.3807,3.3807,3.3807,3.3807,3.3807,3.3807,3.325,3.2516,3.1702,3.139,3.1262,3.1207,3.1188,3.0968,3.0228,2.9793,2.9309,2.8585,2.8197,2.8003,2.8003,2.8003,2.8003,2.8003,2.7629,2.7627,2.8278,2.8019,2.8099,2.8822,2.8282,2.8191,2.8858,2.8968,2.8999,2.8999,2.9732,3.0123,3.0123,3.0925,3.1348,3.1348,3.1421,3.1839,3.2562,3.2636,3.3065,3.4445,3.477,3.503,3.4338,3.4154,3.4123,3.3993,3.3961,3.3935,3.3815,3.3807,3.3807,3.3807,3.3807,3.4203,3.5474,3.6128,3.6856,3.7983,3.8836,3.936,3.9428,3.9706,3.978,3.9441,3.9423,3.9221,3.8744,3.8699,3.8699,3.8699,3.8699,3.8699,3.8699,3.8699,3.8699,3.8699,3.8699,3.8699,3.8699,3.8699,3.8699,3.8699,3.8699,3.8699,3.8699,3.8699,3.8699,0.0,3.8699,3.8699,3.8699,3.8699,3.8699,3.8699,3.8699,3.8505,3.8212,3.8212,3.7705,3.6978,3.6615,3.5954,3.5117,3.41,3.3807,3.3807,3.3807,3.3807,3.3741,3.3501,3.2983,3.2339,3.1523,3.1343,3.121,3.0729,3.0614,3.0388,2.9626,2.9354,2.9005,2.822,2.7996,2.8124,2.8823,2.8929,2.9011,2.9251,2.9543,2.9661,2.9503,2.8465,2.8319,2.9616,2.9439,2.9586,3.0393,3.0448,3.0448,3.0448,3.0748,3.0913,3.0913,3.1715,3.2118,3.2118,3.2614,3.2999,3.3323,3.3323,3.3488,3.4209,3.4705,3.5093,3.4051,3.3807,3.3807,3.3807,3.3807,3.3807,3.3807,3.3807,3.3807,3.3807,3.3807,3.4057,3.4869,3.5727,3.6585,3.7382,3.8403,3.9184,3.9515,3.9761,3.9816,3.9578,3.9559,3.9313,3.8744,3.8699,3.8699,3.8699,3.8699,3.8699,3.8699,3.8699,3.8699,3.8699,3.8699,3.8699,3.8699,3.8699,3.8699,3.8699,3.8699,3.8699,3.8692,3.8538,3.8465,0.0,3.831,3.8261,3.8261,3.8261,3.8261,3.8261,3.8261,3.8261,3.8261,3.8261,3.7879,3.7394,3.7301,3.6876,3.6178,3.4928,3.444,3.4257,3.4045,3.3712,3.3343,3.3068,3.2745,3.2359,3.1794,3.1653,3.1503,3.0924,3.081,3.0588,2.9824,2.9573,2.9267,2.8494,2.8298,2.8496,2.9308,2.9423,2.9511,2.9803,3.0427,3.0615,3.0042,2.9089,2.904,3.043,3.0558,3.0803,3.1354,3.139,3.139,3.139,3.1629,3.1751,3.1751,3.2552,3.2956,3.2956,3.3532,3.3807,3.3807,3.4045,3.4284,3.4015,3.4387,3.4802,3.4009,3.3807,3.3807,3.3807,3.3807,3.3807,3.3807,3.3807,3.3807,3.3807,3.3807,3.4057,3.4869,3.5727,3.6585,3.7382,3.888,3.9596,3.881,3.9423,3.9588,3.8799,3.8707,3.8707,3.8699,3.8699,0.0,3.8699,3.8699,3.8699,3.8699,3.8699,3.8699,3.8699,3.8699,3.8699,3.8699,3.8699,3.8699,3.8699,3.8699,3.8699,3.8658,3.815,3.7902,0.0,3.7406,3.7219,3.7219,3.7219,3.7219,3.7219,3.7219,3.7219,3.7219,3.7219,3.721,3.7161,3.683,3.6696,3.6634,3.6362,3.5904,3.5333,3.4607,3.349,3.2517,3.2509,3.2501,3.2501,3.2501,3.2483,3.2483,3.2483,3.2483,3.2245,3.1441,3.0945,3.0422,2.9617,2.9203,2.8994,2.8994,2.902,2.902,2.9003,2.9299,2.9513,2.9504,2.9841,3.0426,3.1316,3.139,3.139,3.139,3.139,3.139,3.139,3.2167,3.2589,3.2589,3.3378,3.3788,3.3788,3.3807,3.3807,3.3825,3.4619,3.5445,3.3862,3.4387,3.4821,3.4009,3.3807,3.3807,3.3807,3.3807,3.3807,3.3807,3.3807,3.3807,3.3807,3.4259,3.5085,3.6486,3.7404,3.8212,3.9027,4.0047,4.0626,4.0369,4.1056,4.1222,4.0424,3.9845,3.9294,3.8744,3.8699,3.8546,3.8175,3.8623,3.8837,3.8692,3.8699,3.8512,3.8158,3.814,3.7989,3.7667,3.7667,3.7667,3.7685,3.8205,3.8437,3.8446,3.8787,3.8631,3.816,3.7998,3.7659,3.7209,3.7209,3.7209,3.7209,3.7209,3.7209,3.7209,3.7209,3.7209,3.7175,3.7075,3.7049,3.7023,3.6943,3.6246,3.5379,3.4776,3.375,3.2832,3.2832,3.223,3.1601,3.1601,3.1601,3.1601,3.1601,3.1601,3.1395,3.0621,3.0375,3.0052,2.9285,2.9066,2.9263,3.0048,3.0169,3.0257,3.0539,3.1144,3.1351,3.0789,3.1334,3.1769,3.1813,3.1819,3.2165,3.2986,3.3036,3.3036,3.3036,3.3275,3.3672,3.4234,3.4491,3.4919,3.5514,3.5514,3.5514,3.5514,3.5771,3.6321,3.3715,3.4387,3.4821,3.4009,3.3807,3.3807,3.3807,3.3807,3.3807,3.3807,3.3807,3.3807,3.3807,3.4461,3.5334,3.6395,3.7522,3.8531,3.9331,4.0139,4.0755,4.1067,4.1544,4.1449,4.0449,4.0141,3.9602,3.8625,3.8817,3.8832,3.8482,3.8893,3.9085,3.8981,3.8972,3.8796,3.8464,3.8464,3.8316,3.8038,3.8038,3.8038,3.8056,3.8504,3.8714,3.8722,3.8995,3.8842,0.0,3.822,3.7885,3.7453,3.7453,3.729,3.7056,3.7056,3.6864,3.6603,3.6603,3.6603,3.6633,3.6825,3.7047,3.7154,3.697,3.6204,3.5306,3.479,3.3715,3.2735,3.2735,3.1971,3.12,3.12,3.12,3.12,3.12,3.12,3.1149,3.097,3.0717,3.0463,3.0279,3.0008,3.0162,3.1152,3.1301,3.1479,3.2027,3.2524,3.2533,3.1768,3.2377,3.2704,3.2395,3.2265,3.2508,3.3255,3.3487,3.3717,3.4002,3.4172,3.4644,3.547,3.5488,3.5764,3.631,3.631,3.6457,3.6751,3.6751,3.7173,0.0,3.4259,3.4747,3.399,3.3807,3.3807,3.3807,3.3807,0.0,3.3807,3.3807,3.3825,3.3862,3.4546,3.5133,3.5236,3.6615,3.7933,3.8689,3.9478,4.0278,4.1044,4.1207,4.071,3.9273,3.9842,3.9756,3.8463,3.9005,3.9373,3.935,3.9392,3.9417,3.9376,3.9429,3.9415,3.935,3.9332,3.9329,3.9299,3.9299,3.9299,3.9288,3.9351,3.9376,0.0,3.891,3.869,0.0,3.8164,3.7944,3.7893,3.7893,3.7483,3.688,3.688,3.64,3.5752,3.5752,3.5752,3.5836,3.6285,3.6736,3.6991,3.6481,3.5883,3.5268,3.4729,3.3552,3.2446,3.2395,3.186,3.1336,3.1285,3.1319,3.1369,3.1369,3.1369,3.1556,3.2259,3.1826,3.1572,3.2259,3.1809,3.1589,3.2276,3.2378,3.2621,3.3322,3.3396,3.3136,3.2452,3.2983,3.3298,3.3055,3.2774,3.2636,3.2652,3.3074,3.364,3.4398,3.4816,3.5424,3.6252,3.6333,3.6384,3.6406,3.6384,3.6769,3.7521,3.7491,3.7879,3.1904,0.0,3.4045,3.3844,3.3807,3.3807,0.0,3.3807,3.3807,3.3807,3.3807,3.399,3.4601,3.5415,3.6387,3.7635,3.867,3.9394,3.9596,4.0304,4.0969,4.1361,4.2318,4.2003,3.9645,4.0439,4.0573,3.9239,3.9295,3.9209,3.8807,3.9309,3.9455,3.9115,3.9633,3.9582,3.8792,3.8786,3.8602,3.8248,3.8248,3.8248,3.8265,3.8829,3.9086,3.912,3.9557,3.9428,3.8906,3.8795,3.8413,3.7893,3.7893,3.7787,3.7652,3.7652,3.7521,3.7352,3.7352,3.7352,3.7291,3.686,3.6364,3.5946,3.5821,3.5955,3.6032,3.5489,3.4692,3.3857,3.3288,3.3017,3.2747,3.2192,3.2469,3.2882,3.2882,3.2882,3.2933,3.3119,3.3,3.2933,3.3119,3.3,3.2939,3.3119,3.3136,3.3203,3.3379,3.3396,3.3328,3.3169,3.3305,3.3363,3.3311,3.3549,3.3847,3.4156,3.4287,3.4436,3.4613,3.5102,3.5571,3.5997,3.6649,3.7182,3.752,3.7155,3.728,3.781,3.7442,3.7372,3.1751,3.2596,3.325,3.325,3.3532,3.3807,3.3807,3.3807,3.3807,3.3807,3.3807,3.4045,3.4851,3.5708,3.6714,3.7962,3.9137,4.0165,4.0899,4.1699,4.2161,4.2056,4.2695,4.2217,3.987,4.057,4.063,3.9313,3.9528,3.96,3.9305,3.9675,3.9759,3.952,3.988,3.9838,3.9293,3.9293,3.9162,3.8916,3.8916,3.8916,3.892,3.9322,3.9508,3.9525,3.9943,3.9863,3.9508,3.9508,3.9271,3.8916,3.8916,3.87,3.8396,3.8396,3.8193,3.7893,3.7893,3.7686,3.7393,3.7325,3.6535,3.5678,3.6045,3.6105,3.5974,3.5672,3.5081,3.4415,3.4015,3.366,3.3294,3.2909,3.3119,3.3396,3.3396,3.3396,3.3508,3.3846,3.3632,3.3497,3.3846,3.3626,3.3497,3.3846,3.3897,3.4032,3.4376,3.441,3.4275,3.3947,3.4207,3.4275,3.3931,3.4446,3.4589,3.4137,3.4305,3.4603,3.4955,3.543,3.5936,3.6499,3.696,3.7323,3.7578,3.7323,3.7323,3.7569,3.7313,3.7367,3.1837,3.2399,3.2619,3.2754,3.3311,3.3807,3.3807,3.3807,3.3807,3.3807,3.3807,3.4082,3.5023,3.58,3.6641,3.7694,3.9119,4.0573,4.1973,4.2752,4.2959,4.233,4.2438,4.1808,3.9869,4.0412,4.0421,3.9269,3.9745,4.0096,4.0096,4.0096,4.0096,4.0096,4.0096,4.0096,4.0096,4.0096,4.0096,4.0096,4.0096,4.0096,4.0096,4.0096,4.0096,4.0096,0.0,0.0,4.0096,4.0096,4.0096,4.0096,4.0096,3.9711,3.9169,3.9169,3.8768,3.8244,3.8244,3.7748,3.7241,3.7855,3.7116,3.6084,3.6767,3.6417,3.578,3.578,3.5239,3.4641,3.4533,3.4117,3.37,3.3582,3.3649,3.3734,3.3734,3.3734,3.392,3.4539,3.4167,3.392,3.4556,3.415,3.3947,3.4573,3.4675,3.4895,3.5515,3.56,3.5357,3.4726,3.5222,3.5357,3.4726,3.5239,3.507,3.3818,3.4107,3.4668,3.5448,3.571,3.6239,3.7068,3.6991,3.6991,3.7086,3.6991,3.7062,3.7235,3.7175,3.7521,3.0314,3.1561,3.2754,3.3458,3.3715,3.3807,3.3807,3.3807,3.3807,3.3807,3.3807,3.4266,3.5826,3.6211,3.7,3.9174,4.0304,4.1062,4.1479,4.1641,4.1354,4.0362,4.1244,4.1198,3.9301,4.0201,4.0627,3.9977,4.0045,4.0096,4.0096,4.0096,4.0096,4.0096,4.0096,4.0096,4.0096,4.0096,4.0096,4.0096,4.0096,4.0096,4.0096,4.0096,4.0096,4.0096,0.0,4.0096,4.0096,4.0096,4.0096,4.0096,4.0096,4.0028,3.9943,3.9943,3.9846,3.9762,3.9762,3.9288,3.8679,3.8797,3.8261,3.7572,3.7702,3.7212,3.6615,3.6615,3.6045,3.5289,3.4658,3.4878,3.5103,3.4472,3.481,3.5261,3.5261,3.5261,3.5295,3.5408,3.534,3.5295,3.5408,3.534,3.5295,3.5408,3.5442,3.5464,3.5583,3.56,3.5549,3.543,3.5532,3.5549,3.543,3.5532,3.5498,3.5278,3.5322,3.5629,3.6212,3.585,3.5923,3.6519,3.6075,3.6065,3.6529,3.6065,3.6412,3.7436,3.7053,3.7263,3.0632,3.1715,3.2894,3.4142,3.4791,3.5147,3.5147,3.5147,3.5147,0.0,3.5147,3.5642,3.7294,3.7606,3.8395,4.0799,4.1224,4.1452,4.2027,4.1828,4.1317,4.0486,0.0,4.0851,3.9709,4.0119,4.0368,4.0121,4.0096,4.0096,4.0096,4.0096,4.0096,4.0096,4.0096,4.0096,4.0096,4.0096,4.0096,4.0096,4.0096,4.0096,4.0096,4.0096,4.0096,4.0096,0.0,4.0096,4.0096,4.0096,4.0096,4.0096,4.0096,4.0096,4.0096,4.0096,4.0096,4.0096,4.0096,3.9609,3.9068,3.9457,3.8819,3.7961,3.8379,3.7973,3.7381,3.7381,3.6524,3.5515,3.5171,3.5357,3.5515,3.5171,3.5357,3.56,3.56,3.56,3.56,3.56,3.56,3.56,3.56,3.56,3.56,3.56,3.56,3.56,3.56,3.56,3.56,3.56,3.56,3.56,3.56,3.56,3.56,3.56,3.56,3.5706,3.5963,3.5728,3.5717,3.5963,3.5728,3.5717,3.5974,3.6152,3.6548,3.7131,3.7318,3.7787,3.1409,3.2265,3.3231,3.4656,0.0,3.5826,3.6211,3.6138,0.0,0.0,0.0,3.7026,3.845,3.9158,4.0099,4.1812,4.1869,4.184,4.2223,4.1885,4.1369,4.078,4.0697,4.0552,4.0146,4.0096,4.0096,4.0096,4.0096,4.0096,4.0096,4.0096,4.0096,4.0096,4.0096,4.0096,4.0096,4.0096,4.0096,4.0096,4.0096,4.0096,4.0096,4.0096,4.0096,4.0096,4.0096,4.0096,4.0096,4.0096,4.0096,4.0096,4.0096,4.0096,4.0096,4.0096,4.0096,4.0096,4.0096,3.9728,3.9356,3.9926,3.9339,3.8514,3.9102,3.8734,3.8159,3.8159,3.7183,3.6152,3.6152,3.6017,3.5881,3.5881,3.5881,3.5881,3.5881,3.6017,3.6101,3.5915,3.6017,3.6084,3.5915,3.6017,3.6152,3.6152,3.6152,3.6152,3.6152,3.6152,3.6152,3.6152,3.6152,3.6152,3.6152,3.6152,3.6152,3.6152,3.5983,3.5797,3.56,3.578,3.5881,3.5881,3.5881,3.5966,3.614,3.6767,3.7139,3.7337,3.7889,3.8548,3.2087,3.3103,3.391,3.4784,3.4497,0.0,3.5961,3.5672,0.0,3.6138,0.0,0.0,3.8542,4.0524,4.1904,4.1523,4.2117,4.2241,4.1172,4.0995,4.0756,4.0217,4.0159,4.0146,4.0096,4.0096,4.0096,4.0096,4.0096,4.0096,4.0096,4.0096,4.0096,4.0096,4.0096,4.0096,4.0096,4.0096,4.0096,4.0096,4.0096,4.0096,4.0096,4.0096,4.0096,4.0096,4.0096,4.0096,4.0096,4.0096,4.0096,4.0096,4.0096,4.0096,4.0096,4.0096,4.0096,4.0096,4.0096,4.0079,4.0028,4.0079,4.0028,3.996,4.0011,3.9508,3.892,3.892,3.8345,3.7724,3.7724,3.7241,3.6699,3.6699,3.6699,3.6699,3.6699,3.7246,3.7533,3.6851,3.7263,3.7516,3.6834,3.728,3.7724,3.7724,3.7724,3.7724,3.7724,3.7724,3.7724,3.7724,3.7724,3.7724,3.7724,3.7724,3.7724,3.7724,3.7088,3.6378,3.5633,3.6315,3.6699,3.6699,3.6699,3.7054,3.7724,3.7792,3.8176,3.8848,3.8899,3.9322,3.2436,3.3555,3.4754,3.5598,3.5587,0.0,0.0,3.7918,3.8277,3.9103,3.9525,0.0,0.0,4.2084,4.2855,4.23,4.2175,4.1853,4.1018,4.0613,4.0336,4.0121,4.0096,4.0096,4.0096,4.0096,4.0096,4.0096,4.0096,4.0096,4.0096,4.0096,4.0096,4.0096,4.0096,4.0096,4.0096,4.0096,4.0096,4.0096,4.0096,4.0096,4.0096,4.0096,4.0096,4.0096,4.0096,4.0096,4.0096,4.0096,4.0096,4.0096,4.0096,4.0096,4.0096,4.0096,4.0096,4.0096,4.0096,4.0096,4.0096,4.0096,4.0096,4.0096,4.0096,3.991,3.9677,3.9677,3.9474,3.9068,3.8142,3.7702,3.7483,3.7483,3.7483,3.7483,3.7483,3.7702,3.7809,3.7533,3.7719,3.7821,3.7533,3.7719,3.7893,3.7893,3.7893,3.7893,3.7893,3.7893,3.7893,3.7893,3.7893,3.7893,3.7893,3.7893,3.7893,3.7893,3.7635,3.7347,3.7031,3.7313,3.7483,3.7483,3.7483,3.7618,3.7893,3.8362,3.8717,3.9005,3.9474,3.9842,3.3298,3.4154,3.5206,3.6083,0.0,0.0,3.8707,3.9313,3.9827,4.0883,4.1305,4.1727,4.2525,0.0,4.3268,4.2539,4.208,4.1523,4.0762,4.0336,4.0096,4.0096,4.0096,4.0096,4.0096,4.0096,4.0096,4.0096,4.0096,4.0096,4.0096,4.0096,4.0096,4.0096,4.0096,4.0096,4.0096,4.0096,4.0096,4.0096,4.0096,4.0096,4.0096,4.0096,4.0096,4.0096,4.0096,4.0096,4.0096,4.0096,4.0096,4.0096,4.0096,4.0096,4.0096,4.0096,4.0096,4.0096,4.0096,4.0096,4.0096,4.0096,4.0096,4.0096,4.0096,4.0096,4.0096,4.0096,4.0096,3.9876,3.8865,3.8413,3.8261,3.8261,3.8261,3.8261,3.8261,3.843,3.8531,3.8294,3.8447,3.8514,3.8294,3.8447,3.8582,3.8582,3.8582,3.8582,3.8582,3.8582,3.8582,3.8582,3.8582,3.8582,3.8582,3.8582,3.8582,3.8582,3.8582,3.8396,3.791,3.8125,3.8261,3.8261,3.8261,3.8362,3.8599,3.9102,3.9356,3.9356,3.9846,4.0096,3.4759,3.4997,3.5224,3.6083,0.0,0.0,3.9559,3.9313,3.9195,4.0791,4.1764,4.2543,4.3341,4.3506,0.0,4.1972,4.18,4.1397,4.0266,4.0096,4.0096,4.0096,4.0096,4.0096,4.0096,4.0096,4.0096,4.0096,4.0096,4.0096,4.0096,4.0096,4.0096,4.0096,4.0096,4.0096,4.0096,4.0096,4.0096,4.0096,4.0096,4.0096,4.0096,4.0096,4.0096,4.0096,4.0096,4.0096,4.0096,4.0096,4.0096,4.0096,4.0096,4.0096,4.0096,4.0096,4.0096,4.0096,4.0096,4.0096,4.0096,4.0096,4.0096,4.0096,4.0096,4.0096,4.0096,4.0096,4.0096,4.0096,4.0096,3.9559,3.9005,3.9005,3.9005,3.9005,3.9005,3.9576,3.9893,3.9153,3.9592,3.9876,3.9136,3.9609,4.0096,4.0096,4.0096,4.0096,4.0096,4.0096,4.0096,4.0096,4.0096,4.0096,4.0096,4.0096,4.0096,4.0096,4.0096,3.944,3.799,3.8616,3.9005,3.9005,3.9005,3.9372,4.0096,4.0096,4.0096,4.0096,4.0096,4.0096,3.4241,3.5011,3.6119,3.6942,3.8164,3.9614,0.0,4.1405,0.0,0.0,4.2992,4.3231,4.3451,4.3196,0.0,4.1927,4.1446,4.092,4.0192,4.0096,4.0096,4.0096,4.0096,4.0096,4.0096,4.0096,4.0096,4.0096,4.0096,4.0096,4.0096,4.0096,4.0096,4.0096,4.0096,4.0096,4.0096,4.0096,4.0096,4.0096,4.0096,4.0096,4.0096,4.0096,4.0096,4.0096,4.0096,4.0096,4.0096,4.0096,4.0096,4.0096,4.0096,4.0096,4.0096,4.0096,4.0096,4.0096,4.0096,4.0096,4.0096,4.0096,4.0096,4.0096,4.0096,4.0096,4.0096,4.0096,4.0096,4.0096,4.0096,3.9943,3.9762,3.9762,3.9762,3.9762,3.9762,3.996,4.0045,3.9812,3.996,4.0028,3.9808,3.996,4.0096,4.0096,4.0096,4.0096,4.0096,4.0096,4.0096,4.0096,4.0096,4.0096,4.0096,4.0096,4.0096,4.0096,4.0096,3.991,3.9474,3.966,3.9762,3.9762,3.9762,3.9893,4.0096,4.0096,4.0096,4.0096,4.0096,4.0096,3.5319,3.6229,3.7441,3.8256,3.9431,4.0799,4.2415,4.2782,0.0,0.0,4.3506,4.3506,4.3506,4.305,0.0,4.1906,4.1284,4.0697,4.0184,4.0096,4.0096,4.0096,4.0096,4.0096,4.0096,4.0096,4.0096,4.0096,4.0096,4.0096,4.0096,4.0096,4.0096,4.0096,4.0096,4.0096,4.0096,4.0096,4.0096,4.0096,4.0096,4.0096,4.0096,4.0096,4.0096,4.0096,4.0096,4.0096,4.0096,4.0096,4.0096,4.0096,4.0096,4.0096,4.0096,4.0096,4.0096,4.0096,4.0096,4.0096,4.0096,4.0096,4.0096,4.0096,4.0096,4.0096,4.0096,4.0096,4.0096,4.018,4.0455,4.054,4.0455,4.018,4.0096,4.0096,4.0096,4.0096,4.0096,4.0096,4.0096,4.0096,4.0096,4.0096,4.0096,4.0096,4.0096,4.0096,4.0096,4.0096,4.0096,4.0096,4.0096,4.0096,4.0096,4.0096,4.0096,4.0096,4.0096,4.0096,4.0096,4.0096,4.0096,4.0096,4.0096,4.0096,4.0096,4.0096,4.0096,4.0096,4.0096,4.0096,3.729,3.8091,3.8909,3.9798,4.0671,4.169,4.3176,4.3506,4.3506,4.3506,4.3561,4.358,4.3537,4.314,4.2618,4.2034,4.1421,4.0827,4.0273,4.0197,4.018,4.0113,4.0096,4.0096,4.0096,4.0096,4.0096,4.0096,4.0096,4.0096,4.0096,4.0096,4.0096,4.0096,4.0096,4.0096,4.0096,4.0096,4.0096,4.0096,4.0096,4.0096,4.0096,4.0096,4.0096,4.0096,4.0096,4.0096,4.0096,4.0096,4.0096,4.0096,4.0096,4.0096,4.0096,4.0096,4.0096,4.0096,4.0096,4.0096,4.0096,4.0096,4.0096,4.0096,4.0096,4.0096,4.0096,4.0096,4.0146,4.0337,4.0933,4.1153,4.1018,4.0282,4.0146,4.018,4.0113,4.0096,4.0096,4.0096,4.0096,4.0096,4.0096,4.0096,4.0096,4.0096,4.0096,4.0117,4.0185,4.0197,4.0231,4.0299,4.0299,4.0282,4.0214,4.0197,4.0168,4.0096,4.0096,4.0096,4.0096,4.0096,4.0096,4.0096,4.0096,4.0096,4.0096,4.0096,4.0096,4.0096,4.0096,4.0096,3.729,3.8091,3.903,4.0479,4.1919,4.3065,4.3414,4.3506,4.3506,4.3506,4.3993,4.4309,4.3818,4.3778,4.36,4.3003,4.2387,4.1762,4.106,4.0967,4.076,4.018,4.0096,4.0096,4.0096,4.0096,4.0096,4.0096,4.0096,4.0096,4.0096,4.0096,4.0096,4.0096,4.0096,4.0096,4.0096,4.0096,4.0096,4.0096,4.0096,4.0096,4.0096,4.0096,4.0096,4.0096,4.0096,4.0096,4.0096,4.0096,4.0096,4.0096,4.0096,4.0096,4.0096,4.0096,4.0096,4.0096,4.0096,4.0096,4.0096,4.0096,4.0096,4.0096,4.0096,4.0096,4.0096,4.0096,4.0523,4.0865,4.0455,4.0777,4.1018,4.0282,4.054,4.0798,4.0231,4.0096,4.0096,4.0096,4.0096,4.0096,4.0096,4.0096,4.0096,4.0096,4.0096,4.0303,4.0882,4.0967,4.1187,4.1775,4.1826,4.1589,4.1018,4.0967,4.0726,4.0146,4.0096,4.0096,4.0096,4.0096,4.0096,4.0096,4.0096,4.0096,4.0096,4.0096,4.0096,4.0096,4.0096,4.0096,3.8337,3.9239,4.0241,4.1846,4.2882,4.3506,4.3506,4.38,4.4066,4.4066,4.4406,4.4638,4.4413,4.3935,4.3496,4.3234,4.2407,4.1762,4.1728,4.1424,4.1068,4.0675,4.0303,4.0096,4.0096,4.0096,4.0096,4.0096,4.0096,4.0096,4.0096,4.0096,4.0096,4.0096,4.0096,4.0096,4.0096,4.0096,4.0096,4.0096,4.0096,4.0096,4.0096,4.0096,4.0096,4.0096,4.0096,4.0096,4.0096,4.0096,4.0096,4.0096,4.0096,4.0096,4.0096,4.0096,4.0096,4.0096,4.0096,4.0096,4.0096,4.0096,4.0096,4.0096,4.0096,4.0096,4.0168,4.0523,4.0899,4.1271,4.1593,4.1982,4.2155,4.1779,4.1153,4.0574,4.018,4.0096,4.0096,4.0096,4.0096,4.0214,4.0574,4.0641,4.0641,4.0641,4.0641,4.0777,4.1153,4.1508,4.1863,4.2266,4.23,4.2134,4.1762,4.1728,4.1407,4.0675,4.0641,4.0641,4.0641,4.0286,4.0096,4.0096,4.0096,4.0096,4.0096,4.0096,4.0096,4.0096,4.0096,4.0096,3.9431,4.0598,4.169,4.3322,4.3708,4.3745,4.3873,4.4344,4.4794,4.4931,4.4949,4.4974,4.5022,4.4153,4.3435,4.3437,4.2518,4.1948,4.2422,4.1847,4.1339,4.1221,4.0557,4.0096,4.0096,4.0096,4.0096,4.0096,4.0096,4.0096,4.0096,4.0096,4.0096,4.0096,4.0096,4.0096,4.0096,4.0096,4.0096,4.0096,4.0096,4.0096,4.0096,4.0096,4.0096,4.0096,4.0096,4.0096,4.0096,4.0096,4.0096,4.0096,4.0096,4.0096,4.0096,4.0096,4.0096,4.0096,4.0096,4.0096,4.0096,4.0096,4.0096,4.0117,4.0252,4.0286,4.0438,4.117,4.1491,4.1833,4.2932,4.3304,4.3372,4.3237,4.1813,4.0485,4.0485,4.0485,4.0485,4.0485,4.0371,4.0523,4.1255,4.1275,4.1238,4.1373,4.139,4.1441,4.1546,4.2117,4.254,4.2689,4.2706,4.2638,4.2489,4.2489,4.2168,4.1441,4.139,4.139,4.139,4.0794,4.0485,4.0485,4.0354,4.0286,4.0286,4.0286,4.0218,4.0096,4.0096,4.0096,3.9266,4.1009,4.2525,4.4131,4.4535,4.4727,4.5424,4.5264,4.5166,4.5861,4.5988,4.584,4.5278,4.5172,4.5005,4.4507,4.425,4.3941,4.3338,4.2625,4.1914,4.1288,4.0557,4.0096,4.0096,4.0096,4.0096,4.0096,4.0096,4.0096,4.0096,4.0096,4.0096,4.0096,4.0096,4.0096,4.0096,4.0096,4.0096,4.0096,4.0096,4.0096,4.0096,4.0096,4.0096,4.0096,4.0096,4.0096,4.0096,4.0096,4.0096,4.0096,4.0096,4.0096,4.0096,4.0096,4.0096,4.0096,4.0096,4.0096,4.0096,4.0096,4.0096,4.0218,4.0849,4.1052,4.1204,4.1961,4.2608,4.3,4.2557,4.2916,4.3237,4.2591,4.2232,4.2012,4.2012,4.2012,4.2012,4.2012,4.1491,4.1288,4.2029,4.1627,4.1424,4.2049,4.2151,4.2388,4.3017,4.3186,4.3521,4.4212,4.4279,4.4009,4.3304,4.3254,4.2932,4.2202,4.2151,4.2151,4.2151,4.2063,4.2012,4.2012,4.1373,4.1052,4.1052,4.1052,4.0713,4.0096,4.0096,4.0096,3.9918,4.1423,4.269,4.4296,4.47,4.483,4.5299,4.5534,4.5664,4.5636,4.5726,4.5728,4.542,4.5107,4.482,4.4625,4.4228,4.3961,4.4062,4.3403,4.2642,4.1897,4.117,4.0557,4.0146,4.0096,4.0096,4.0096,4.0096,4.0096,4.0096,4.0096,4.0096,4.0096,4.0096,4.0096,4.0096,4.0096,4.0096,4.0096,4.0096,4.0096,4.0096,4.0096,4.0096,4.0096,4.0096,4.0096,4.0096,4.0096,4.0096,4.0096,4.0096,4.0096,4.0096,4.0096,4.0096,4.0096,4.0096,4.0096,4.018,4.0591,4.0726,4.0849,4.1593,4.1813,4.1965,4.2709,4.3152,4.3423,4.3569,4.3839,4.3992,4.367,4.3586,4.3586,4.3586,4.2909,4.23,4.23,4.2371,4.2391,4.2317,4.2371,4.2391,4.2317,4.2642,4.3034,4.3355,4.3778,4.4212,4.455,4.4615,4.4465,4.4096,4.4062,4.3741,4.298,4.2929,4.2929,4.2929,4.2523,4.2706,4.3569,4.2422,4.1813,4.1813,4.1813,4.1657,4.1335,4.1335,4.1335,4.005,4.108,4.2067,4.4035,4.4528,4.473,4.5451,4.5825,4.5884,4.5376,4.5269,4.5267,4.5267,4.4815,4.4486,4.458,4.4096,4.391,4.4516,4.391,4.3203,4.2642,4.1931,4.1255,4.0709,4.0489,4.0371,4.0371,4.0214,4.0096,4.0096,4.0096,4.0096,4.0096,4.0096,4.0096,4.0096,4.0096,4.0096,4.0096,4.0096,4.0096,4.0096,4.0096,4.0096,4.0096,4.0096,4.0096,4.0096,4.0096,4.0096,4.0096,4.0096,4.0096,4.0096,4.0096,4.0096,4.013,4.0303,4.0371,4.0506,4.1238,4.1474,4.1627,4.2354,4.2574,4.2743,4.349,4.3693,4.3842,4.4432,4.4615,4.4615,4.4615,4.4615,4.4615,4.4615,4.3704,4.2875,4.2875,4.3166,4.3288,4.2943,4.3169,4.3288,4.2943,4.3352,4.3693,4.3693,4.4228,4.4615,4.4615,4.4615,4.4615,4.4615,4.4615,4.4347,4.3727,4.3693,4.3693,4.3693,4.3183,4.3433,4.4567,4.3467,4.279,4.2574,4.2574,4.2472,4.23,4.23,4.23,3.8965,3.9414,4.0352,4.3308,4.4083,4.4671,4.6791,4.6371,4.5532,4.5493,4.5045,4.4654,4.4654,4.462,4.4589,4.4598,4.455,4.455,4.4584,4.391,4.3389,4.3355,4.2692,4.2232,4.2198,4.1542,4.1136,4.1136,4.0506,4.0096,4.0096,4.0096,4.0096,4.0096,4.0096,4.0096,4.0096,4.0096,4.0096,4.0096,4.0096,4.0096,4.0096,4.0096,4.0096,4.0096,4.0096,4.0096,4.0096,4.0096,4.0096,4.0096,4.0096,4.0096,4.0096,4.0096,4.0096,4.0197,4.0899,4.1136,4.1271,4.1999,4.2249,4.2371,4.3118,4.3338,4.3507,4.4313,4.4533,4.4564,4.4598,4.4615,4.4615,4.4615,4.4615,4.4615,4.4615,4.4547,4.4479,4.4479,4.3893,4.3626,4.4364,4.3876,4.3643,4.4364,4.4499,4.4533,4.4533,4.4567,4.4615,4.4615,4.4615,4.4615,4.4615,4.4615,4.4567,4.4533,4.4533,4.4533,4.4533,4.4499,4.453,4.4615,4.4516,4.411,4.3338,4.3338,4.298,4.23,4.23,4.23,3.8374,3.871,3.9422,4.2012,4.3027,4.3764,4.5164,4.5496,4.5381,4.4998,4.4748,4.4615,4.4615,4.4615,4.4615,4.4615,4.4615,4.4615,4.4615,4.4347,4.3978,4.3457,4.3169,4.2828,4.235,4.2049,4.1914,4.1914,4.1221,4.0798,4.0798,4.0354,4.0096,4.0096,4.0096,4.0096,4.0096,4.0096,4.0096,4.0096,4.0096,4.0096,4.0096,4.0096,4.0096,4.0096,4.0096,4.0096,4.0096,4.0096,4.0096,4.0096,4.0096,4.0096,4.0096,4.0096,4.0405,4.0832,4.1119,4.1508,4.2033,4.2777,4.3,4.3152,4.3927,4.4164,4.4228,4.4516,4.4615,4.4615,4.4615,4.4615,4.4615,4.4615,4.4615,4.4615,4.4615,4.4615,4.4615,4.4615,4.4364,4.4096,4.3876,4.4012,4.4079,4.3859,4.4279,4.4615,4.4615,4.4615,4.4615,4.4615,4.4615,4.4615,4.4615,4.4615,4.4615,4.4615,4.4615,4.4615,4.4615,4.4615,4.4615,4.4615,4.4615,4.4465,4.4164,4.4164,4.4042,4.3772,4.3772,4.3772,3.7461,3.7797,3.8398,4.0665,4.1635,4.2446,4.4039,4.46,4.4767,4.4628,4.4615,4.4615,4.4615,4.4615,4.4615,4.4615,4.4615,4.4615,4.4615,4.4615,4.4398,4.3876,4.3809,4.3606,4.3129,4.2841,4.2675,4.2675,4.1982,0.0,4.1576,4.0878,4.0354,4.0113,4.0096,4.0096,4.0096,4.0096,4.0096,4.0096,4.0096,4.0096,4.0096,4.0096,4.0096,4.0096,4.0096,4.0096,4.0096,4.0096,4.0096,4.0096,4.0096,4.0096,4.013,4.0371,4.0781,4.1271,4.1779,4.2269,4.2794,4.3572,4.3809,4.391,4.4432,4.4615,4.4615,4.4615,4.4615,4.4615,4.4615,4.4615,4.4615,4.4615,4.4615,4.4615,4.4615,4.4615,4.4615,4.4615,4.4615,4.4432,4.3893,4.4245,4.4415,4.3876,4.4262,4.4615,4.4615,4.4615,4.4615,4.4615,4.4615,4.4615,4.4615,4.4615,4.4615,4.4615,4.4615,4.4615,4.4615,4.4615,4.4615,4.4615,4.4615,4.4615,4.4615,4.4615,4.4615,4.4615,4.4615,4.4615,0.0,0.0,0.0,3.9311,3.9922,4.0773,4.3637,4.3789,4.3575,4.4398,4.455,4.4567,4.4615,4.4615,4.4615,4.4615,4.4615,4.4615,4.4615,4.4615,4.4615,4.4615,4.4615,4.4615,4.4615,4.3893,4.344,4.344,4.2743,4.2333,4.2333,4.161,4.0849,4.013,4.0096,4.0096,4.0096,4.0096,4.0096,4.0096,4.0096,4.0096,4.0096,4.0096,4.0096,4.0096,4.0096,4.0096,4.0096,4.0096,4.0096,4.0096,4.0096,4.0113,4.0218,4.0933,4.1225,4.1461,4.2899,4.3423,4.3558,4.4347,4.4615,4.4615,4.4615,4.4615,4.4615,4.4615,4.4615,4.4615,4.4615,4.4615,4.4615,4.4615,4.4615,4.4615,4.4615,4.4615,4.4615,4.4615,4.4615,4.4615,4.4615,4.4615,4.4615,4.4615,4.4615,4.4615,4.4615,4.4615,4.4615,4.4615,4.4615,4.4615,4.4615,4.4615,4.4615,4.4615,4.4615,4.4615,4.4615,4.4615,4.4615,4.4615,4.4615,4.4615,4.4615,4.4615,4.4615,4.4615,4.4615,4.4615,3.5578,0.0,0.0,0.0,0.0,0.0,4.0865,4.1566,4.2172,4.347,4.3727,4.391,4.4482,4.4615,4.4615,4.4615,4.4615,4.4615,4.4615,4.4615,4.4615,4.4615,4.4615,4.4615,4.4615,4.4398,4.4279,0.0,4.3538,4.3102,4.3102,4.1897,4.0849,4.013,4.0096,4.0096,4.0096,4.0096,4.0096,4.0096,4.0096,4.0096,4.0096,4.0096,4.0096,4.0096,4.0096,4.0096,4.0096,4.0096,4.0096,4.0096,4.0096,4.0422,4.0916,4.1119,4.1884,4.2848,4.3271,4.3792,4.4296,4.453,4.4615,4.4615,4.4615,4.4615,4.4615,4.4615,4.4615,4.4615,4.4615,4.4615,4.4615,4.4615,4.4615,4.4615,4.4615,4.4615,4.4615,4.4615,4.4615,4.4615,4.4615,4.4615,4.4615,4.4615,4.4615,4.4615,4.4615,4.4615,4.4615,4.4615,4.4615,4.4615,4.4615,4.4615,4.4615,4.4615,4.4615,4.4615,4.4615,4.4615,4.4615,4.4615,4.4615,4.4615,4.4615,4.4615,4.4615,4.4615,4.4615,4.4615,0.0,0.0,0.0,0.0,0.0,0.0,3.9698,4.0426,4.1255,4.3034,4.3406,4.3643,4.4448,4.4615,4.4615,4.4615,4.4615,4.4615,4.4615,4.4615,4.4615,4.4615,4.4615,4.4615,4.4615,4.4615,4.4615,4.4615,4.4178,4.3623,4.298,4.2134,4.1183,4.013,4.0096,4.0096,4.0096,4.0096,4.0096,4.0096,4.0096,4.0096,4.0096,4.0096,4.0096,4.0096,4.0096,4.0096,4.0096,4.0096,4.0096,4.013,4.0438,4.0815,4.1271,4.1884,4.2662,4.3457,4.3792,4.4212,4.4615,4.4615,4.4615,4.4615,4.4615,4.4615,4.4615,4.4615,4.4615,4.4615,4.4615,4.4615,4.4615,4.4615,4.4615,4.4615,4.4615,4.4615,4.4615,4.4615,4.4615,4.4615,4.4615,4.4615,4.4615,4.4615,4.4615,4.4615,4.4615,4.4615,4.4615,4.4615,4.4615,4.4615,4.4615,4.4615,4.4615,4.4615,4.4615,4.4615,4.4615,4.4615,4.4615,4.4615,4.4615,4.4615,4.4615,4.4615,4.4615,4.4615,4.4615,4.4615,3.5408,3.56,0.0,0.0,3.6677,0.0,3.9266,3.9808,4.0455,4.2594,4.3102,4.3389,4.4195,4.4415,4.4432,4.4361,4.4482,4.4615,4.4615,4.4615,4.4618,4.4702,4.4719,4.4753,4.4838,4.477,4.4719,4.4719,4.4649,4.3924,4.2384,4.23,4.1623,4.0146,4.0096,4.0096,4.0096,4.0096,4.0096,4.0096,4.0096,4.0096,4.0096,4.0096,4.0096,4.0096,4.0096,4.0096,4.0096,4.0096,4.0096,4.018,4.0815,4.1136,4.1373,4.2763,4.3338,4.3524,4.433,4.4615,4.4615,4.4615,4.4615,4.4615,4.4615,4.4615,4.4615,4.4615,4.4615,4.4615,4.4615,4.4615,4.4615,4.4615,4.4615,4.4615,4.4615,4.4615,4.4615,4.4615,4.4615,4.4615,4.4615,4.4615,4.4615,4.4615,4.4615,4.4615,4.4615,4.4615,4.4615,4.4615,4.4615,4.4615,4.4615,4.4615,4.4615,4.4615,4.4615,4.4615,4.4615,4.4615,4.4615,4.4615,4.4615,4.4615,4.4615,4.4615,4.4615,4.4615,4.4615,4.4615,3.5408,3.56,3.5633,3.5797,0.0,0.0,3.719,3.79,3.879,4.0413,4.1225,4.1863,4.2621,4.3234,4.3436,4.2858,4.3789,4.4615,4.4615,4.4615,4.4821,4.5415,4.5483,4.572,4.631,4.5821,4.5483,4.5483,4.4939,4.3924,4.2384,4.23,4.1623,4.0146,4.0096,4.0096,4.0096,4.0096,4.0096,4.0096,4.0096,4.0096,4.0096,4.0096,4.0096,4.0096,4.0096,4.0096,4.0096,4.0096,4.0096,4.0113,4.0265,4.0692,4.1322,4.2185,4.2882,4.3524,4.433,4.4615,4.4615,4.4615,4.4615,4.4615,4.4615,4.4615,4.4615,4.4615,4.4615,4.4615,4.4615,4.4615,4.4615,4.4615,4.4615,4.4615,4.4615,4.4615,4.4615,4.4615,4.4615,4.4615,4.4615,4.4615,4.4615,4.4615,4.4615,4.4615,4.4615,4.4615,4.4615,4.4615,4.4615,4.4615,4.4615,4.4615,4.4615,4.4615,4.4615,4.4615,4.4615,4.4615,4.4615,4.4615,4.4615,4.4615,4.4615,4.4615,4.4615,4.4615,4.4615,4.4615,3.5498,3.56,3.56,3.56,0.0,0.0,0.0,3.7635,3.8418,4.0278,4.0937,4.1424,4.2151,4.2591,4.2861,4.2861,4.3504,4.413,4.4533,4.4615,4.4871,4.5618,4.5703,4.5991,4.6733,4.6126,4.5551,4.5179,4.4804,4.3924,4.2384,4.23,4.1623,4.0146,4.0096,4.0096,4.0096,4.0096,4.0096,4.0096,4.0096,4.0096,4.0096,4.0096,4.0096,4.0096,4.0096,4.0096,4.0096,4.0096,4.0096,4.0146,4.0506,4.1102,4.183,4.2591,4.3335,4.4062,4.4465,4.4615,4.4615,4.4615,4.4615,4.4615,4.4615,4.4615,4.4615,4.4615,4.4615,4.4615,4.4615,4.4615,4.4615,4.4615,4.4615,4.4615,4.4615,4.4615,4.4615,4.4615,4.4615,4.4615,4.4615,4.4615,4.4615,4.4615,4.4615,4.4615,4.4615,4.4615,4.4615,4.4615,4.4615,4.4615,4.4615,4.4615,4.4615,4.4615,4.4615,4.4615,4.4615,4.4615,4.4615,4.4615,4.4615,4.4615,4.4615,4.4615,4.4615,4.4615,4.4615,4.4615,0.0,0.0,0.0,0.0,0.0,3.5966,0.0,0.0,0.0,4.0375,4.0882,4.117,4.1775,4.1995,4.2236,4.2679,4.3,4.342,4.4059,4.4279,0.0,4.5587,4.5703,4.5991,4.6733,4.6126,4.5399,4.4651,4.4615,4.3992,4.2591,4.2384,4.169,4.0354,4.0168,4.0096,4.0096,4.0096,4.0096,4.0096,4.0096,4.0096,4.0096,4.0096,4.0096,4.0096,4.0096,4.0096,4.0096,4.0096,4.0096,4.0163,4.0747,4.1441,4.2168,4.2916,4.369,4.4398,4.4564,4.4615,4.4615,4.4615,4.4615,4.4615,4.4615,4.4615,4.4615,4.4615,4.4615,4.4615,4.4615,4.4615,4.4615,4.4615,4.4615,4.4615,4.4615,4.4615,4.4615,4.4615,4.4615,4.4615,4.4615,4.4615,4.4615,4.4615,4.4615,4.4615,4.4615,4.4615,4.4615,4.4615,4.4615,4.4615,4.4615,4.4615,4.4615,4.4615,4.4615,4.4615,4.4615,4.4615,4.4615,4.4615,4.4615,4.4615,4.4615,4.4615,4.4615,4.4615,4.4615,4.4615,0.0,0.0,0.0,0.0,3.56,0.0,0.0,0.0,3.8159,3.9056,0.0,4.0248,4.0333,0.0,0.0,0.0,0.0,0.0,4.2553,4.3132,4.4065,4.5534,4.5703,4.5991,4.6733,4.6126,4.5399,4.4651,4.4615,4.4212,4.3321,4.2658,4.1914,4.1102,4.0438,4.0096,4.0096,4.0096,4.0096,4.0096,4.0096,4.0096,4.0096,4.0096,4.0096,4.0096,4.0096,4.0096,4.0096,4.0096,4.0096,4.0113,4.0185,4.0675,4.1407,4.2151,4.2895,4.3643,4.4347,4.4615,4.4615,4.4615,4.4615,4.4615,4.4615,4.4615,4.4615,4.4615,4.4615,4.4615,4.4615,4.4615,4.4615,4.4615,4.4615,4.4615,4.4615,4.4615,4.4615,4.4615,4.4615,4.4615,4.4615,4.4615,4.4615,4.4615,4.4615,4.4615,4.4615,4.4615,4.4615,4.4615,4.4615,4.4615,4.4615,4.4615,4.4615,4.4615,4.4615,4.4615,4.4615,4.4615,4.4615,4.4615,4.4615,4.4615,4.4615,4.4615,4.4615,4.4615,4.4615,4.4615,0.0,0.0,0.0,0.0,0.0,0.0,3.7799,0.0,3.8751,0.0,0.0,0.0,0.0,0.0,0.0,0.0,4.1255,0.0,0.0,4.2574,4.3487,4.5466,0.0,0.0,4.6126,4.5889,4.5399,4.4651,4.4615,4.4245,4.344,4.3102,4.2391,4.1238,4.0899,4.054,4.0096,4.0096,4.0096,4.0096,4.0096,4.0096,4.0096,4.0096,4.0096,4.0096,4.0096,4.0096,4.0096,4.0096,4.0354,4.073,4.073,4.1187,4.1931,4.2675,4.3436,4.413,4.4482,4.4615,4.4615,4.4615,4.4615,4.4615,4.4615,4.4615,4.4615,4.4615,4.4615,4.4615,4.4615,4.4615,4.4615,4.4615,4.4615,4.4615,4.4615,4.4615,4.4615,4.4615,4.4615,4.4615,4.4615,4.4615,4.4615,4.4615,4.4615,4.4615,4.4615,4.4615,4.4615,4.4615,4.4615,4.4615,4.4615,4.4615,4.4615,4.4615,4.4615,4.4615,4.4615,4.4615,4.4615,4.4615,4.4615,4.4615,4.4615,4.4615,4.4615,4.4615,4.4615,4.4615,3.5864,0.0,0.0,0.0,0.0,0.0,0.0,0.0,0.0,0.0,0.0,0.0,0.0,0.0,0.0,0.0,0.0,4.139,0.0,4.1999,0.0,0.0,0.0,0.0,0.0,4.5399,4.5179,4.4635,4.4615,4.4347,4.3775,4.3524,4.2916,4.1833,4.1407,4.0933,4.0405,4.0197,4.0096,4.0096,4.0096,4.0096,4.0096,4.0096,4.0096,4.0096,4.0096,4.0096,4.013,4.032,4.0726,4.1238,4.166,4.2134,4.2675,4.3203,4.391,4.4615,4.4615,4.4615,4.4615,4.4615,4.4615,4.4615,4.4615,4.4615,4.4615,4.4615,4.4615,4.4615,4.4615,4.4615,4.4615,4.4615,4.4615,4.4615,4.4615,4.4615,4.4615,4.4615,4.4615,4.4615,4.4615,4.4615,4.4615,4.4615,4.4615,4.4615,4.4615,4.4615,4.4615,4.4615,4.4615,4.4615,4.4615,4.4615,4.4615,4.4615,4.4615,4.4615,4.4615,4.4615,4.4615,4.4615,4.4615,4.4615,4.4615,4.4615,4.4615,4.4584,4.4364,4.4381,0.0,0.0,0.0,3.7686,0.0,0.0,0.0,0.0,3.9411,0.0,0.0,0.0,0.0,0.0,0.0,0.0,0.0,0.0,0.0,0.0,0.0,0.0,0.0,0.0,0.0,4.4649,4.4618,0.0,4.4615,4.4598,4.455,4.3826,4.3389,4.3338,4.1935,4.1187,4.1157,4.0455,4.0096,4.0096,4.0096,4.0096,4.0096,4.0096,4.0096,4.0096,4.0096,4.0096,4.0163,4.0865,4.1187,4.1339,4.278,4.3341,4.3372,4.3389,4.391,4.4615,4.4615,4.4615,4.4615,4.4615,4.4615,4.4615,4.4615,4.4615,4.4615,4.4615,4.4615,4.4615,4.4615,4.4615,4.4615,4.4615,4.4615,4.4615,4.4615,4.4615,4.4615,4.4615,4.4615,4.4615,4.4615,4.4615,4.4615,4.4615,4.4615,4.4615,4.4615,4.4615,4.4615,4.4615,4.4615,4.4615,4.4615,4.4615,4.4615,4.4615,4.4615,4.4615,4.4615,4.4615,4.4615,4.4615,4.4615,4.4615,4.4615,4.4615,4.4615,4.4567,4.3809,4.3859,0.0,0.0,3.6304,3.7572,0.0,0.0,0.0,0.0,0.0,0.0,0.0,0.0,0.0,0.0,0.0,0.0,0.0,0.0,0.0,0.0,0.0,0.0,0.0,0.0,0.0,0.0,0.0,4.3859,4.4296,0.0,4.4615,4.4347,4.3944,4.3423,4.2916,4.2188,4.1208,4.095,4.0591,4.0096,4.0096,4.0096,4.0096,4.0096,4.0096,4.0096,4.0096,4.0096,4.0163,4.0899,4.1491,4.2033,4.3017,4.3741,4.4181,4.4181,4.4364,4.4615,4.4615,4.4615,4.4615,4.4615,4.4615,4.4615,4.4615,4.4615,4.4615,4.4615,4.4615,4.4615,4.4615,4.4615,4.4615,4.4615,4.4615,4.4615,4.4615,4.4615,4.4615,4.4615,4.4615,4.4615,4.4615,4.4615,4.4615,4.4615,4.4615,4.4615,4.4615,4.4615,4.4615,4.4615,4.4615,4.4615,4.4615,4.4615,4.4615,4.4615,4.4615,4.4615,4.4615,4.4615,4.4615,4.4615,4.4615,4.4615,4.4615,4.4615,4.433,4.3792,4.3031,4.3081,3.5949,3.6028,0.0,3.7589,3.8108,0.0,3.9812,0.0,4.0709,0.0,0.0,0.0,0.0,0.0,0.0,0.0,0.0,0.0,0.0,4.1204,0.0,0.0,0.0,0.0,0.0,4.3805,4.3789,4.3826,4.4045,0.0,0.0,4.4615,4.4364,4.3842,4.3541,4.2949,4.1986,4.1457,4.0967,4.0489,4.0231,4.0096,4.0096,4.0096,4.0096,4.0113,4.0371,4.0489,4.0574,4.1576,4.2256,4.2777,4.3538,4.413,4.4615,4.4615,4.4615,4.4615,4.4615,4.4615,4.4615,4.4615,4.4615,4.4615,4.4615,4.4615,4.4615,4.4615,4.4615,4.4615,4.4615,4.4615,4.4615,4.4615,4.4615,4.4615,4.4615,4.4615,4.4615,4.4615,4.4615,4.4615,4.4615,4.4615,4.4615,4.4615,4.4615,4.4615,4.4615,4.4615,4.4615,4.4615,4.4615,4.4615,4.4615,4.4615,4.4615,4.4615,4.4615,4.4615,4.4615,4.4615,4.4615,4.4615,4.4615,4.4465,4.4164,4.4164,4.3775,4.2983,4.2252,4.2168]}]]